<?xml version="1.0" encoding="UTF-8"?>
<gpx version="1.1" creator="2bulu-scraper" xmlns="http://www.topografix.com/GPX/1/1">
  <metadata><name>夹江大旗山往返</name><desc>source: 2bulu.com trackId=82775069; exported 2026-09-01T16:10:26.748Z</desc>
    <bounds minlat="29.759278" minlon="103.426049" maxlat="29.783558" maxlon="103.461385"/>
    <link href="https://www.2bulu.com/track/t-n9BCWsHpxZHp%252FR2KBg5Tzw%253D%253D.htm"><text>2bulu 源页面</text></link>
  </metadata>
  <wpt lat="29.783207" lon="103.460297"><ele>610</ele><name></name></wpt>
  <wpt lat="29.782445" lon="103.457259"><ele>707</ele><name></name></wpt>
  <wpt lat="29.781608" lon="103.454731"><ele>788</ele><name></name></wpt>
  <wpt lat="29.780048" lon="103.452748"><ele>898</ele><name></name></wpt>
  <wpt lat="29.780093" lon="103.452735"><ele>899</ele><name></name></wpt>
  <wpt lat="29.77996" lon="103.4525"><ele>918</ele><name></name></wpt>
  <wpt lat="29.779307" lon="103.452501"><ele>928</ele><name></name></wpt>
  <wpt lat="29.777792" lon="103.450853"><ele>945</ele><name></name></wpt>
  <wpt lat="29.77726" lon="103.450569"><ele>959</ele><name></name></wpt>
  <wpt lat="29.77684" lon="103.450088"><ele>972</ele><name></name></wpt>
  <wpt lat="29.775126" lon="103.448357"><ele>998</ele><name></name></wpt>
  <wpt lat="29.774935" lon="103.448082"><ele>1001</ele><name></name></wpt>
  <wpt lat="29.774935" lon="103.448082"><ele>1001</ele><name></name></wpt>
  <wpt lat="29.773514" lon="103.448097"><ele>995</ele><name></name></wpt>
  <wpt lat="29.772353" lon="103.448176"><ele>991</ele><name></name></wpt>
  <wpt lat="29.772353" lon="103.448176"><ele>991</ele><name></name></wpt>
  <wpt lat="29.7723" lon="103.448176"><ele>991</ele><name></name></wpt>
  <wpt lat="29.770844" lon="103.446534"><ele>1002</ele><name></name></wpt>
  <wpt lat="29.760405" lon="103.430161"><ele>1119</ele><name>肉眼可见的生命力</name></wpt>
  <wpt lat="29.759367" lon="103.426235"><ele>1167</ele><name></name></wpt>
  <wpt lat="29.762816" lon="103.434836"><ele>1092</ele><name></name></wpt>
  <wpt lat="29.762816" lon="103.434836"><ele>1092</ele><name></name></wpt>
  <wpt lat="29.772625" lon="103.448207"><ele>992</ele><name></name></wpt>
  <wpt lat="29.781396" lon="103.454438"><ele>800</ele><name></name></wpt>
  <wpt lat="29.783328" lon="103.461255"><ele>583</ele><name></name></wpt>
  <trk><name>夹江大旗山往返</name>
      <trkseg>
        <trkpt lat="29.783207" lon="103.460297"><ele>609.72955</ele><time>2026-04-20T18:06:52.000Z</time></trkpt>
        <trkpt lat="29.783225" lon="103.460242"><ele>610.3324</ele><time>2026-04-20T18:06:54.000Z</time></trkpt>
        <trkpt lat="29.783232" lon="103.460189"><ele>610.62476</ele><time>2026-04-20T18:06:58.000Z</time></trkpt>
        <trkpt lat="29.783251" lon="103.460112"><ele>612.046</ele><time>2026-04-20T18:07:01.000Z</time></trkpt>
        <trkpt lat="29.783259" lon="103.460055"><ele>615.40643</ele><time>2026-04-20T18:07:09.000Z</time></trkpt>
        <trkpt lat="29.78326" lon="103.460003"><ele>615.8585</ele><time>2026-04-20T18:07:14.000Z</time></trkpt>
        <trkpt lat="29.783242" lon="103.459953"><ele>616.48413</ele><time>2026-04-20T18:07:19.000Z</time></trkpt>
        <trkpt lat="29.783246" lon="103.459899"><ele>618.3773</ele><time>2026-04-20T18:07:23.000Z</time></trkpt>
        <trkpt lat="29.783225" lon="103.459849"><ele>621.8754</ele><time>2026-04-20T18:07:32.000Z</time></trkpt>
        <trkpt lat="29.783199" lon="103.459807"><ele>624.7854</ele><time>2026-04-20T18:07:40.000Z</time></trkpt>
        <trkpt lat="29.78316" lon="103.459765"><ele>629.7088</ele><time>2026-04-20T18:08:17.000Z</time></trkpt>
        <trkpt lat="29.783147" lon="103.459703"><ele>631.8243</ele><time>2026-04-20T18:08:25.000Z</time></trkpt>
        <trkpt lat="29.783106" lon="103.459674"><ele>634.11536</ele><time>2026-04-20T18:08:32.000Z</time></trkpt>
        <trkpt lat="29.783068" lon="103.459638"><ele>635.39404</ele><time>2026-04-20T18:08:39.000Z</time></trkpt>
        <trkpt lat="29.783029" lon="103.459602"><ele>637.30414</ele><time>2026-04-20T18:08:45.000Z</time></trkpt>
        <trkpt lat="29.783003" lon="103.459556"><ele>639.7995</ele><time>2026-04-20T18:08:52.000Z</time></trkpt>
        <trkpt lat="29.782971" lon="103.459509"><ele>641.70966</ele><time>2026-04-20T18:08:59.000Z</time></trkpt>
        <trkpt lat="29.782939" lon="103.459472"><ele>641.9282</ele><time>2026-04-20T18:09:12.000Z</time></trkpt>
        <trkpt lat="29.782922" lon="103.459418"><ele>642.6908</ele><time>2026-04-20T18:09:17.000Z</time></trkpt>
        <trkpt lat="29.782885" lon="103.459386"><ele>645.4887</ele><time>2026-04-20T18:09:28.000Z</time></trkpt>
        <trkpt lat="29.782869" lon="103.459336"><ele>646.40283</ele><time>2026-04-20T18:09:36.000Z</time></trkpt>
        <trkpt lat="29.782868" lon="103.459281"><ele>648.64465</ele><time>2026-04-20T18:09:44.000Z</time></trkpt>
        <trkpt lat="29.782884" lon="103.459221"><ele>649.52136</ele><time>2026-04-20T18:09:49.000Z</time></trkpt>
        <trkpt lat="29.78292" lon="103.459182"><ele>650.3059</ele><time>2026-04-20T18:09:53.000Z</time></trkpt>
        <trkpt lat="29.782966" lon="103.459181"><ele>651.42267</ele><time>2026-04-20T18:09:57.000Z</time></trkpt>
        <trkpt lat="29.783014" lon="103.459178"><ele>653.411</ele><time>2026-04-20T18:10:02.000Z</time></trkpt>
        <trkpt lat="29.78307" lon="103.459181"><ele>655.197</ele><time>2026-04-20T18:10:06.000Z</time></trkpt>
        <trkpt lat="29.783097" lon="103.459138"><ele>655.5063</ele><time>2026-04-20T18:10:16.000Z</time></trkpt>
        <trkpt lat="29.783115" lon="103.459073"><ele>657.5281</ele><time>2026-04-20T18:10:29.000Z</time></trkpt>
        <trkpt lat="29.78307" lon="103.459038"><ele>656.77954</ele><time>2026-04-20T18:10:48.000Z</time></trkpt>
        <trkpt lat="29.783036" lon="103.458992"><ele>658.7413</ele><time>2026-04-20T18:10:56.000Z</time></trkpt>
        <trkpt lat="29.783012" lon="103.458934"><ele>660.03253</ele><time>2026-04-20T18:11:01.000Z</time></trkpt>
        <trkpt lat="29.782977" lon="103.458899"><ele>662.0466</ele><time>2026-04-20T18:11:07.000Z</time></trkpt>
        <trkpt lat="29.782952" lon="103.458844"><ele>663.0503</ele><time>2026-04-20T18:11:15.000Z</time></trkpt>
        <trkpt lat="29.782924" lon="103.458795"><ele>664.2375</ele><time>2026-04-20T18:11:21.000Z</time></trkpt>
        <trkpt lat="29.782884" lon="103.458758"><ele>664.2008</ele><time>2026-04-20T18:11:26.000Z</time></trkpt>
        <trkpt lat="29.782846" lon="103.458718"><ele>663.94434</ele><time>2026-04-20T18:11:31.000Z</time></trkpt>
        <trkpt lat="29.782811" lon="103.458677"><ele>662.7207</ele><time>2026-04-20T18:11:41.000Z</time></trkpt>
        <trkpt lat="29.782806" lon="103.458618"><ele>664.1117</ele><time>2026-04-20T18:11:49.000Z</time></trkpt>
        <trkpt lat="29.782783" lon="103.458541"><ele>666.78827</ele><time>2026-04-20T18:11:52.000Z</time></trkpt>
        <trkpt lat="29.782788" lon="103.458482"><ele>670.7845</ele><time>2026-04-20T18:12:00.000Z</time></trkpt>
        <trkpt lat="29.782836" lon="103.458491"><ele>670.6091</ele><time>2026-04-20T18:12:00.000Z</time></trkpt>
        <trkpt lat="29.782818" lon="103.458443"><ele>671.2767</ele><time>2026-04-20T18:12:03.000Z</time></trkpt>
        <trkpt lat="29.782765" lon="103.458441"><ele>672.728</ele><time>2026-04-20T18:12:07.000Z</time></trkpt>
        <trkpt lat="29.782723" lon="103.458414"><ele>674.28375</ele><time>2026-04-20T18:12:15.000Z</time></trkpt>
        <trkpt lat="29.782693" lon="103.458374"><ele>676.2172</ele><time>2026-04-20T18:12:22.000Z</time></trkpt>
        <trkpt lat="29.782652" lon="103.458331"><ele>676.26404</ele><time>2026-04-20T18:12:28.000Z</time></trkpt>
        <trkpt lat="29.782653" lon="103.458278"><ele>677.3634</ele><time>2026-04-20T18:12:34.000Z</time></trkpt>
        <trkpt lat="29.782682" lon="103.45823"><ele>678.39264</ele><time>2026-04-20T18:12:39.000Z</time></trkpt>
        <trkpt lat="29.7827" lon="103.458174"><ele>681.81476</ele><time>2026-04-20T18:12:49.000Z</time></trkpt>
        <trkpt lat="29.782658" lon="103.458153"><ele>680.98914</ele><time>2026-04-20T18:12:53.000Z</time></trkpt>
        <trkpt lat="29.782639" lon="103.458102"><ele>682.5406</ele><time>2026-04-20T18:12:58.000Z</time></trkpt>
        <trkpt lat="29.782622" lon="103.45805"><ele>684.1165</ele><time>2026-04-20T18:13:13.000Z</time></trkpt>
        <trkpt lat="29.782605" lon="103.457992"><ele>684.614</ele><time>2026-04-20T18:13:20.000Z</time></trkpt>
        <trkpt lat="29.782597" lon="103.45794"><ele>685.7269</ele><time>2026-04-20T18:13:27.000Z</time></trkpt>
        <trkpt lat="29.782579" lon="103.457888"><ele>686.3578</ele><time>2026-04-20T18:13:33.000Z</time></trkpt>
        <trkpt lat="29.782535" lon="103.457868"><ele>687.0114</ele><time>2026-04-20T18:13:39.000Z</time></trkpt>
        <trkpt lat="29.782486" lon="103.457843"><ele>687.8451</ele><time>2026-04-20T18:13:43.000Z</time></trkpt>
        <trkpt lat="29.782458" lon="103.457798"><ele>688.8563</ele><time>2026-04-20T18:13:48.000Z</time></trkpt>
        <trkpt lat="29.782421" lon="103.457764"><ele>690.335</ele><time>2026-04-20T18:13:54.000Z</time></trkpt>
        <trkpt lat="29.782386" lon="103.457725"><ele>691.7505</ele><time>2026-04-20T18:13:59.000Z</time></trkpt>
        <trkpt lat="29.782355" lon="103.457681"><ele>692.3413</ele><time>2026-04-20T18:14:04.000Z</time></trkpt>
        <trkpt lat="29.78233" lon="103.45763"><ele>693.7689</ele><time>2026-04-20T18:14:10.000Z</time></trkpt>
        <trkpt lat="29.782371" lon="103.457583"><ele>695.8582</ele><time>2026-04-20T18:14:18.000Z</time></trkpt>
        <trkpt lat="29.782413" lon="103.45756"><ele>696.2351</ele><time>2026-04-20T18:14:23.000Z</time></trkpt>
        <trkpt lat="29.782457" lon="103.45753"><ele>698.6149</ele><time>2026-04-20T18:14:31.000Z</time></trkpt>
        <trkpt lat="29.782498" lon="103.457495"><ele>702.4833</ele><time>2026-04-20T18:14:40.000Z</time></trkpt>
        <trkpt lat="29.782527" lon="103.457447"><ele>704.39606</ele><time>2026-04-20T18:14:48.000Z</time></trkpt>
        <trkpt lat="29.782509" lon="103.457397"><ele>704.97144</ele><time>2026-04-20T18:14:55.000Z</time></trkpt>
        <trkpt lat="29.782503" lon="103.457336"><ele>706.33673</ele><time>2026-04-20T18:15:02.000Z</time></trkpt>
        <trkpt lat="29.782462" lon="103.45731"><ele>708.0105</ele><time>2026-04-20T18:15:09.000Z</time></trkpt>
        <trkpt lat="29.782445" lon="103.457259"><ele>707.4301</ele><time>2026-04-20T18:15:17.000Z</time></trkpt>
        <trkpt lat="29.782482" lon="103.457229"><ele>710.8818</ele><time>2026-04-20T18:15:40.000Z</time></trkpt>
        <trkpt lat="29.78248" lon="103.457166"><ele>711.17804</ele><time>2026-04-20T18:15:51.000Z</time></trkpt>
        <trkpt lat="29.782461" lon="103.457117"><ele>711.9931</ele><time>2026-04-20T18:15:59.000Z</time></trkpt>
        <trkpt lat="29.782433" lon="103.457073"><ele>713.2305</ele><time>2026-04-20T18:16:06.000Z</time></trkpt>
        <trkpt lat="29.782421" lon="103.457018"><ele>715.04596</ele><time>2026-04-20T18:16:13.000Z</time></trkpt>
        <trkpt lat="29.782408" lon="103.456967"><ele>715.9229</ele><time>2026-04-20T18:16:19.000Z</time></trkpt>
        <trkpt lat="29.782402" lon="103.456908"><ele>717.6176</ele><time>2026-04-20T18:16:26.000Z</time></trkpt>
        <trkpt lat="29.782402" lon="103.456844"><ele>720.11835</ele><time>2026-04-20T18:16:34.000Z</time></trkpt>
        <trkpt lat="29.782383" lon="103.456787"><ele>721.4492</ele><time>2026-04-20T18:16:40.000Z</time></trkpt>
        <trkpt lat="29.782378" lon="103.456719"><ele>720.38574</ele><time>2026-04-20T18:16:46.000Z</time></trkpt>
        <trkpt lat="29.782353" lon="103.456661"><ele>722.24475</ele><time>2026-04-20T18:16:55.000Z</time></trkpt>
        <trkpt lat="29.782339" lon="103.456605"><ele>722.7984</ele><time>2026-04-20T18:17:01.000Z</time></trkpt>
        <trkpt lat="29.78231" lon="103.456548"><ele>724.4793</ele><time>2026-04-20T18:17:08.000Z</time></trkpt>
        <trkpt lat="29.782287" lon="103.456496"><ele>725.1233</ele><time>2026-04-20T18:17:14.000Z</time></trkpt>
        <trkpt lat="29.782249" lon="103.456445"><ele>727.625</ele><time>2026-04-20T18:17:20.000Z</time></trkpt>
        <trkpt lat="29.782227" lon="103.456398"><ele>728.8419</ele><time>2026-04-20T18:17:25.000Z</time></trkpt>
        <trkpt lat="29.782216" lon="103.456336"><ele>730.9917</ele><time>2026-04-20T18:17:31.000Z</time></trkpt>
        <trkpt lat="29.782193" lon="103.45629"><ele>734.10114</ele><time>2026-04-20T18:17:38.000Z</time></trkpt>
        <trkpt lat="29.782155" lon="103.456249"><ele>735.0616</ele><time>2026-04-20T18:17:46.000Z</time></trkpt>
        <trkpt lat="29.782128" lon="103.456197"><ele>735.8423</ele><time>2026-04-20T18:17:56.000Z</time></trkpt>
        <trkpt lat="29.782087" lon="103.456172"><ele>737.9719</ele><time>2026-04-20T18:18:06.000Z</time></trkpt>
        <trkpt lat="29.782048" lon="103.456142"><ele>738.8895</ele><time>2026-04-20T18:18:13.000Z</time></trkpt>
        <trkpt lat="29.782011" lon="103.456109"><ele>739.54944</ele><time>2026-04-20T18:18:19.000Z</time></trkpt>
        <trkpt lat="29.781983" lon="103.45605"><ele>740.46936</ele><time>2026-04-20T18:18:25.000Z</time></trkpt>
        <trkpt lat="29.781952" lon="103.456002"><ele>741.7729</ele><time>2026-04-20T18:18:33.000Z</time></trkpt>
        <trkpt lat="29.781928" lon="103.455954"><ele>742.2216</ele><time>2026-04-20T18:18:39.000Z</time></trkpt>
        <trkpt lat="29.781893" lon="103.455921"><ele>745.948</ele><time>2026-04-20T18:18:55.000Z</time></trkpt>
        <trkpt lat="29.781862" lon="103.455871"><ele>749.4336</ele><time>2026-04-20T18:19:18.000Z</time></trkpt>
        <trkpt lat="29.781851" lon="103.455818"><ele>749.9927</ele><time>2026-04-20T18:19:23.000Z</time></trkpt>
        <trkpt lat="29.781845" lon="103.455756"><ele>750.57074</ele><time>2026-04-20T18:19:28.000Z</time></trkpt>
        <trkpt lat="29.781819" lon="103.455702"><ele>752.1966</ele><time>2026-04-20T18:19:34.000Z</time></trkpt>
        <trkpt lat="29.781802" lon="103.455648"><ele>755.4999</ele><time>2026-04-20T18:19:38.000Z</time></trkpt>
        <trkpt lat="29.781818" lon="103.455595"><ele>755.0043</ele><time>2026-04-20T18:19:43.000Z</time></trkpt>
        <trkpt lat="29.781792" lon="103.455553"><ele>756.6068</ele><time>2026-04-20T18:19:50.000Z</time></trkpt>
        <trkpt lat="29.781791" lon="103.455486"><ele>758.3692</ele><time>2026-04-20T18:19:54.000Z</time></trkpt>
        <trkpt lat="29.781796" lon="103.45543"><ele>759.61914</ele><time>2026-04-20T18:19:56.000Z</time></trkpt>
        <trkpt lat="29.781749" lon="103.455392"><ele>762.20496</ele><time>2026-04-20T18:20:03.000Z</time></trkpt>
        <trkpt lat="29.781768" lon="103.455345"><ele>765.5254</ele><time>2026-04-20T18:20:20.000Z</time></trkpt>
        <trkpt lat="29.781762" lon="103.455282"><ele>766.5152</ele><time>2026-04-20T18:20:26.000Z</time></trkpt>
        <trkpt lat="29.781741" lon="103.455328"><ele>768.5686</ele><time>2026-04-20T18:20:39.000Z</time></trkpt>
        <trkpt lat="29.781774" lon="103.455277"><ele>766.8223</ele><time>2026-04-20T18:20:46.000Z</time></trkpt>
        <trkpt lat="29.781766" lon="103.455202"><ele>767.58057</ele><time>2026-04-20T18:20:49.000Z</time></trkpt>
        <trkpt lat="29.781797" lon="103.455144"><ele>768.4114</ele><time>2026-04-20T18:20:57.000Z</time></trkpt>
        <trkpt lat="29.781805" lon="103.455084"><ele>770.9464</ele><time>2026-04-20T18:21:05.000Z</time></trkpt>
        <trkpt lat="29.78179" lon="103.455025"><ele>771.92896</ele><time>2026-04-20T18:21:12.000Z</time></trkpt>
        <trkpt lat="29.781821" lon="103.454975"><ele>773.1333</ele><time>2026-04-20T18:21:20.000Z</time></trkpt>
        <trkpt lat="29.781808" lon="103.454922"><ele>774.83636</ele><time>2026-04-20T18:21:25.000Z</time></trkpt>
        <trkpt lat="29.781824" lon="103.454861"><ele>776.81586</ele><time>2026-04-20T18:21:34.000Z</time></trkpt>
        <trkpt lat="29.781794" lon="103.454817"><ele>779.1576</ele><time>2026-04-20T18:21:54.000Z</time></trkpt>
        <trkpt lat="29.781739" lon="103.454804"><ele>781.00995</ele><time>2026-04-20T18:22:05.000Z</time></trkpt>
        <trkpt lat="29.781684" lon="103.454802"><ele>785.8164</ele><time>2026-04-20T18:22:22.000Z</time></trkpt>
        <trkpt lat="29.781654" lon="103.454747"><ele>785.8024</ele><time>2026-04-20T18:22:32.000Z</time></trkpt>
        <trkpt lat="29.781608" lon="103.454731"><ele>787.61694</ele><time>2026-04-20T18:22:51.000Z</time></trkpt>
        <trkpt lat="29.781559" lon="103.454718"><ele>790.4484</ele><time>2026-04-20T18:23:11.000Z</time></trkpt>
        <trkpt lat="29.781599" lon="103.454677"><ele>791.84827</ele><time>2026-04-20T18:23:19.000Z</time></trkpt>
        <trkpt lat="29.781548" lon="103.454679"><ele>792.729</ele><time>2026-04-20T18:23:27.000Z</time></trkpt>
        <trkpt lat="29.781511" lon="103.45465"><ele>794.0307</ele><time>2026-04-20T18:23:32.000Z</time></trkpt>
        <trkpt lat="29.781494" lon="103.454598"><ele>796.5325</ele><time>2026-04-20T18:24:00.000Z</time></trkpt>
        <trkpt lat="29.781449" lon="103.454581"><ele>799.8225</ele><time>2026-04-20T18:24:11.000Z</time></trkpt>
        <trkpt lat="29.781425" lon="103.454532"><ele>802.78796</ele><time>2026-04-20T18:24:20.000Z</time></trkpt>
        <trkpt lat="29.781399" lon="103.454486"><ele>804.4878</ele><time>2026-04-20T18:24:35.000Z</time></trkpt>
        <trkpt lat="29.781351" lon="103.454489"><ele>808.3828</ele><time>2026-04-20T18:25:00.000Z</time></trkpt>
        <trkpt lat="29.781329" lon="103.454438"><ele>809.28394</ele><time>2026-04-20T18:25:09.000Z</time></trkpt>
        <trkpt lat="29.781326" lon="103.454386"><ele>808.2045</ele><time>2026-04-20T18:25:45.000Z</time></trkpt>
        <trkpt lat="29.781284" lon="103.454359"><ele>812.01483</ele><time>2026-04-20T18:25:57.000Z</time></trkpt>
        <trkpt lat="29.781242" lon="103.454325"><ele>815.4033</ele><time>2026-04-20T18:26:11.000Z</time></trkpt>
        <trkpt lat="29.781208" lon="103.454284"><ele>819.9096</ele><time>2026-04-20T18:26:23.000Z</time></trkpt>
        <trkpt lat="29.781187" lon="103.454233"><ele>822.36487</ele><time>2026-04-20T18:26:48.000Z</time></trkpt>
        <trkpt lat="29.781144" lon="103.45421"><ele>828.0819</ele><time>2026-04-20T18:27:02.000Z</time></trkpt>
        <trkpt lat="29.781104" lon="103.454169"><ele>829.80365</ele><time>2026-04-20T18:27:11.000Z</time></trkpt>
        <trkpt lat="29.781072" lon="103.454127"><ele>832.0275</ele><time>2026-04-20T18:27:27.000Z</time></trkpt>
        <trkpt lat="29.781047" lon="103.454085"><ele>833.7093</ele><time>2026-04-20T18:27:35.000Z</time></trkpt>
        <trkpt lat="29.781003" lon="103.454065"><ele>835.35626</ele><time>2026-04-20T18:27:43.000Z</time></trkpt>
        <trkpt lat="29.780954" lon="103.454057"><ele>836.84235</ele><time>2026-04-20T18:27:49.000Z</time></trkpt>
        <trkpt lat="29.780921" lon="103.454017"><ele>837.24725</ele><time>2026-04-20T18:27:59.000Z</time></trkpt>
        <trkpt lat="29.780887" lon="103.453974"><ele>837.576</ele><time>2026-04-20T18:28:06.000Z</time></trkpt>
        <trkpt lat="29.780847" lon="103.453942"><ele>839.1497</ele><time>2026-04-20T18:28:18.000Z</time></trkpt>
        <trkpt lat="29.780808" lon="103.45391"><ele>839.1596</ele><time>2026-04-20T18:28:24.000Z</time></trkpt>
        <trkpt lat="29.780752" lon="103.453897"><ele>840.5971</ele><time>2026-04-20T18:28:34.000Z</time></trkpt>
        <trkpt lat="29.780707" lon="103.453886"><ele>841.25977</ele><time>2026-04-20T18:28:40.000Z</time></trkpt>
        <trkpt lat="29.780661" lon="103.453859"><ele>842.0246</ele><time>2026-04-20T18:29:00.000Z</time></trkpt>
        <trkpt lat="29.780619" lon="103.453829"><ele>843.462</ele><time>2026-04-20T18:29:05.000Z</time></trkpt>
        <trkpt lat="29.780563" lon="103.453814"><ele>845.22394</ele><time>2026-04-20T18:29:10.000Z</time></trkpt>
        <trkpt lat="29.780523" lon="103.453789"><ele>847.158</ele><time>2026-04-20T18:29:16.000Z</time></trkpt>
        <trkpt lat="29.780479" lon="103.453751"><ele>848.4763</ele><time>2026-04-20T18:29:24.000Z</time></trkpt>
        <trkpt lat="29.780434" lon="103.453726"><ele>850.0855</ele><time>2026-04-20T18:29:30.000Z</time></trkpt>
        <trkpt lat="29.780388" lon="103.453699"><ele>853.1881</ele><time>2026-04-20T18:29:38.000Z</time></trkpt>
        <trkpt lat="29.780342" lon="103.453689"><ele>854.90045</ele><time>2026-04-20T18:29:45.000Z</time></trkpt>
        <trkpt lat="29.780295" lon="103.453669"><ele>854.5397</ele><time>2026-04-20T18:29:51.000Z</time></trkpt>
        <trkpt lat="29.780255" lon="103.453643"><ele>855.9486</ele><time>2026-04-20T18:29:58.000Z</time></trkpt>
        <trkpt lat="29.780215" lon="103.453606"><ele>856.06274</ele><time>2026-04-20T18:30:05.000Z</time></trkpt>
        <trkpt lat="29.780168" lon="103.453583"><ele>858.7734</ele><time>2026-04-20T18:30:19.000Z</time></trkpt>
        <trkpt lat="29.780143" lon="103.453648"><ele>858.1384</ele><time>2026-04-20T18:30:25.000Z</time></trkpt>
        <trkpt lat="29.780103" lon="103.453677"><ele>857.6581</ele><time>2026-04-20T18:30:30.000Z</time></trkpt>
        <trkpt lat="29.780077" lon="103.453723"><ele>857.3578</ele><time>2026-04-20T18:30:33.000Z</time></trkpt>
        <trkpt lat="29.780087" lon="103.453659"><ele>857.4344</ele><time>2026-04-20T18:30:56.000Z</time></trkpt>
        <trkpt lat="29.780056" lon="103.453622"><ele>857.8531</ele><time>2026-04-20T18:31:04.000Z</time></trkpt>
        <trkpt lat="29.780004" lon="103.45362"><ele>858.02924</ele><time>2026-04-20T18:31:10.000Z</time></trkpt>
        <trkpt lat="29.780017" lon="103.453536"><ele>858.3929</ele><time>2026-04-20T18:31:26.000Z</time></trkpt>
        <trkpt lat="29.780015" lon="103.453589"><ele>858.51825</ele><time>2026-04-20T18:31:27.000Z</time></trkpt>
        <trkpt lat="29.780083" lon="103.453606"><ele>859.23944</ele><time>2026-04-20T18:31:30.000Z</time></trkpt>
        <trkpt lat="29.780096" lon="103.453659"><ele>858.48627</ele><time>2026-04-20T18:31:33.000Z</time></trkpt>
        <trkpt lat="29.780146" lon="103.453641"><ele>858.0341</ele><time>2026-04-20T18:31:53.000Z</time></trkpt>
        <trkpt lat="29.780176" lon="103.453593"><ele>857.70825</ele><time>2026-04-20T18:31:57.000Z</time></trkpt>
        <trkpt lat="29.780152" lon="103.453542"><ele>858.3718</ele><time>2026-04-20T18:32:05.000Z</time></trkpt>
        <trkpt lat="29.780111" lon="103.453512"><ele>858.774</ele><time>2026-04-20T18:32:10.000Z</time></trkpt>
        <trkpt lat="29.780078" lon="103.453457"><ele>860.6707</ele><time>2026-04-20T18:32:20.000Z</time></trkpt>
        <trkpt lat="29.78007" lon="103.453404"><ele>861.91016</ele><time>2026-04-20T18:32:29.000Z</time></trkpt>
        <trkpt lat="29.780053" lon="103.453354"><ele>863.35315</ele><time>2026-04-20T18:32:34.000Z</time></trkpt>
        <trkpt lat="29.780037" lon="103.453303"><ele>864.2814</ele><time>2026-04-20T18:32:42.000Z</time></trkpt>
        <trkpt lat="29.78001" lon="103.45326"><ele>867.0149</ele><time>2026-04-20T18:33:36.000Z</time></trkpt>
        <trkpt lat="29.779979" lon="103.453215"><ele>869.8182</ele><time>2026-04-20T18:33:46.000Z</time></trkpt>
        <trkpt lat="29.779964" lon="103.453162"><ele>872.5783</ele><time>2026-04-20T18:33:56.000Z</time></trkpt>
        <trkpt lat="29.779971" lon="103.453108"><ele>873.0966</ele><time>2026-04-20T18:34:06.000Z</time></trkpt>
        <trkpt lat="29.779956" lon="103.453056"><ele>877.0812</ele><time>2026-04-20T18:34:22.000Z</time></trkpt>
        <trkpt lat="29.779927" lon="103.453008"><ele>879.05646</ele><time>2026-04-20T18:34:31.000Z</time></trkpt>
        <trkpt lat="29.779881" lon="103.45298"><ele>883.7375</ele><time>2026-04-20T18:34:53.000Z</time></trkpt>
        <trkpt lat="29.779853" lon="103.452939"><ele>886.8779</ele><time>2026-04-20T18:35:03.000Z</time></trkpt>
        <trkpt lat="29.779871" lon="103.452887"><ele>891.5452</ele><time>2026-04-20T18:35:23.000Z</time></trkpt>
        <trkpt lat="29.779877" lon="103.452823"><ele>896.2452</ele><time>2026-04-20T18:35:52.000Z</time></trkpt>
        <trkpt lat="29.779927" lon="103.452837"><ele>896.2756</ele><time>2026-04-20T18:35:55.000Z</time></trkpt>
        <trkpt lat="29.779972" lon="103.452827"><ele>897.85944</ele><time>2026-04-20T18:36:00.000Z</time></trkpt>
        <trkpt lat="29.780005" lon="103.452783"><ele>897.8135</ele><time>2026-04-20T18:36:06.000Z</time></trkpt>
        <trkpt lat="29.780048" lon="103.452748"><ele>897.6865</ele><time>2026-04-20T18:36:11.000Z</time></trkpt>
        <trkpt lat="29.780093" lon="103.452735"><ele>899.2577</ele><time>2026-04-20T18:36:27.000Z</time></trkpt>
        <trkpt lat="29.780139" lon="103.452726"><ele>898.2041</ele><time>2026-04-20T18:36:45.000Z</time></trkpt>
        <trkpt lat="29.780177" lon="103.452697"><ele>899.993</ele><time>2026-04-20T18:36:54.000Z</time></trkpt>
        <trkpt lat="29.780209" lon="103.452656"><ele>900.3999</ele><time>2026-04-20T18:36:58.000Z</time></trkpt>
        <trkpt lat="29.780255" lon="103.452629"><ele>902.7586</ele><time>2026-04-20T18:37:05.000Z</time></trkpt>
        <trkpt lat="29.780296" lon="103.452605"><ele>905.3328</ele><time>2026-04-20T18:37:12.000Z</time></trkpt>
        <trkpt lat="29.780325" lon="103.452555"><ele>907.9668</ele><time>2026-04-20T18:37:24.000Z</time></trkpt>
        <trkpt lat="29.780368" lon="103.452533"><ele>909.0759</ele><time>2026-04-20T18:37:31.000Z</time></trkpt>
        <trkpt lat="29.780386" lon="103.452475"><ele>909.97894</ele><time>2026-04-20T18:37:40.000Z</time></trkpt>
        <trkpt lat="29.780391" lon="103.452418"><ele>911.8661</ele><time>2026-04-20T18:37:47.000Z</time></trkpt>
        <trkpt lat="29.78035" lon="103.452449"><ele>911.54694</ele><time>2026-04-20T18:38:41.000Z</time></trkpt>
        <trkpt lat="29.780311" lon="103.452476"><ele>911.1329</ele><time>2026-04-20T18:38:46.000Z</time></trkpt>
        <trkpt lat="29.780266" lon="103.452498"><ele>909.8534</ele><time>2026-04-20T18:38:51.000Z</time></trkpt>
        <trkpt lat="29.780213" lon="103.45252"><ele>909.4201</ele><time>2026-04-20T18:38:58.000Z</time></trkpt>
        <trkpt lat="29.780164" lon="103.452533"><ele>910.16034</ele><time>2026-04-20T18:39:03.000Z</time></trkpt>
        <trkpt lat="29.780111" lon="103.452538"><ele>911.702</ele><time>2026-04-20T18:39:11.000Z</time></trkpt>
        <trkpt lat="29.780068" lon="103.452521"><ele>913.515</ele><time>2026-04-20T18:39:36.000Z</time></trkpt>
        <trkpt lat="29.780009" lon="103.452514"><ele>917.0391</ele><time>2026-04-20T18:40:15.000Z</time></trkpt>
        <trkpt lat="29.77996" lon="103.4525"><ele>918.02234</ele><time>2026-04-20T18:40:20.000Z</time></trkpt>
        <trkpt lat="29.779913" lon="103.452499"><ele>918.74585</ele><time>2026-04-20T18:40:34.000Z</time></trkpt>
        <trkpt lat="29.779869" lon="103.452485"><ele>919.2628</ele><time>2026-04-20T18:40:39.000Z</time></trkpt>
        <trkpt lat="29.779824" lon="103.452478"><ele>919.8167</ele><time>2026-04-20T18:40:44.000Z</time></trkpt>
        <trkpt lat="29.779784" lon="103.452506"><ele>920.1385</ele><time>2026-04-20T18:40:48.000Z</time></trkpt>
        <trkpt lat="29.779733" lon="103.45251"><ele>920.6118</ele><time>2026-04-20T18:40:52.000Z</time></trkpt>
        <trkpt lat="29.779688" lon="103.452523"><ele>921.0595</ele><time>2026-04-20T18:40:56.000Z</time></trkpt>
        <trkpt lat="29.779632" lon="103.452537"><ele>919.55927</ele><time>2026-04-20T18:41:00.000Z</time></trkpt>
        <trkpt lat="29.77958" lon="103.452547"><ele>920.7943</ele><time>2026-04-20T18:41:05.000Z</time></trkpt>
        <trkpt lat="29.779531" lon="103.452538"><ele>921.3283</ele><time>2026-04-20T18:41:10.000Z</time></trkpt>
        <trkpt lat="29.779487" lon="103.452525"><ele>921.6214</ele><time>2026-04-20T18:41:14.000Z</time></trkpt>
        <trkpt lat="29.779449" lon="103.452487"><ele>922.6956</ele><time>2026-04-20T18:41:19.000Z</time></trkpt>
        <trkpt lat="29.779401" lon="103.452472"><ele>923.5052</ele><time>2026-04-20T18:41:24.000Z</time></trkpt>
        <trkpt lat="29.779362" lon="103.452506"><ele>923.583</ele><time>2026-04-20T18:41:31.000Z</time></trkpt>
        <trkpt lat="29.779342" lon="103.452457"><ele>923.17615</ele><time>2026-04-20T18:41:35.000Z</time></trkpt>
        <trkpt lat="29.779384" lon="103.452429"><ele>925.65955</ele><time>2026-04-20T18:41:42.000Z</time></trkpt>
        <trkpt lat="29.779447" lon="103.452428"><ele>932.4937</ele><time>2026-04-20T18:42:49.000Z</time></trkpt>
        <trkpt lat="29.779401" lon="103.452422"><ele>930.9349</ele><time>2026-04-20T18:42:56.000Z</time></trkpt>
        <trkpt lat="29.77936" lon="103.452449"><ele>929.2701</ele><time>2026-04-20T18:43:02.000Z</time></trkpt>
        <trkpt lat="29.779352" lon="103.452507"><ele>929.94824</ele><time>2026-04-20T18:43:52.000Z</time></trkpt>
        <trkpt lat="29.779307" lon="103.452501"><ele>928.44226</ele><time>2026-04-20T18:44:00.000Z</time></trkpt>
        <trkpt lat="29.779261" lon="103.452493"><ele>929.51556</ele><time>2026-04-20T18:44:20.000Z</time></trkpt>
        <trkpt lat="29.779213" lon="103.452473"><ele>929.55255</ele><time>2026-04-20T18:44:28.000Z</time></trkpt>
        <trkpt lat="29.779166" lon="103.452458"><ele>928.9721</ele><time>2026-04-20T18:44:34.000Z</time></trkpt>
        <trkpt lat="29.779138" lon="103.452416"><ele>929.8348</ele><time>2026-04-20T18:44:41.000Z</time></trkpt>
        <trkpt lat="29.779096" lon="103.452389"><ele>930.1342</ele><time>2026-04-20T18:44:47.000Z</time></trkpt>
        <trkpt lat="29.779044" lon="103.452358"><ele>931.3301</ele><time>2026-04-20T18:44:54.000Z</time></trkpt>
        <trkpt lat="29.778997" lon="103.452336"><ele>931.4264</ele><time>2026-04-20T18:45:01.000Z</time></trkpt>
        <trkpt lat="29.778961" lon="103.452292"><ele>932.18274</ele><time>2026-04-20T18:45:07.000Z</time></trkpt>
        <trkpt lat="29.778954" lon="103.452231"><ele>933.3148</ele><time>2026-04-20T18:45:11.000Z</time></trkpt>
        <trkpt lat="29.778944" lon="103.452176"><ele>934.07874</ele><time>2026-04-20T18:45:17.000Z</time></trkpt>
        <trkpt lat="29.778947" lon="103.452115"><ele>934.6046</ele><time>2026-04-20T18:45:22.000Z</time></trkpt>
        <trkpt lat="29.778949" lon="103.452054"><ele>934.03406</ele><time>2026-04-20T18:45:28.000Z</time></trkpt>
        <trkpt lat="29.778946" lon="103.451997"><ele>934.98804</ele><time>2026-04-20T18:45:39.000Z</time></trkpt>
        <trkpt lat="29.778943" lon="103.451937"><ele>935.8351</ele><time>2026-04-20T18:45:44.000Z</time></trkpt>
        <trkpt lat="29.778933" lon="103.451874"><ele>936.15204</ele><time>2026-04-20T18:45:50.000Z</time></trkpt>
        <trkpt lat="29.778894" lon="103.451829"><ele>935.19165</ele><time>2026-04-20T18:45:55.000Z</time></trkpt>
        <trkpt lat="29.778857" lon="103.451792"><ele>934.98706</ele><time>2026-04-20T18:46:01.000Z</time></trkpt>
        <trkpt lat="29.778807" lon="103.451778"><ele>934.8081</ele><time>2026-04-20T18:46:06.000Z</time></trkpt>
        <trkpt lat="29.778761" lon="103.451767"><ele>933.57324</ele><time>2026-04-20T18:46:10.000Z</time></trkpt>
        <trkpt lat="29.778743" lon="103.451712"><ele>932.8271</ele><time>2026-04-20T18:46:13.000Z</time></trkpt>
        <trkpt lat="29.778738" lon="103.451659"><ele>933.91296</ele><time>2026-04-20T18:46:17.000Z</time></trkpt>
        <trkpt lat="29.778719" lon="103.451605"><ele>933.59485</ele><time>2026-04-20T18:46:21.000Z</time></trkpt>
        <trkpt lat="29.77871" lon="103.451541"><ele>933.56683</ele><time>2026-04-20T18:46:28.000Z</time></trkpt>
        <trkpt lat="29.778695" lon="103.451482"><ele>934.25</ele><time>2026-04-20T18:46:32.000Z</time></trkpt>
        <trkpt lat="29.778677" lon="103.451435"><ele>934.8029</ele><time>2026-04-20T18:46:37.000Z</time></trkpt>
        <trkpt lat="29.778632" lon="103.451422"><ele>934.6296</ele><time>2026-04-20T18:46:41.000Z</time></trkpt>
        <trkpt lat="29.778593" lon="103.451393"><ele>935.84454</ele><time>2026-04-20T18:46:46.000Z</time></trkpt>
        <trkpt lat="29.778548" lon="103.45136"><ele>935.4047</ele><time>2026-04-20T18:46:51.000Z</time></trkpt>
        <trkpt lat="29.778498" lon="103.451338"><ele>935.6959</ele><time>2026-04-20T18:46:56.000Z</time></trkpt>
        <trkpt lat="29.778465" lon="103.451292"><ele>935.7614</ele><time>2026-04-20T18:47:02.000Z</time></trkpt>
        <trkpt lat="29.778447" lon="103.451234"><ele>936.7283</ele><time>2026-04-20T18:47:07.000Z</time></trkpt>
        <trkpt lat="29.77845" lon="103.451174"><ele>937.26184</ele><time>2026-04-20T18:47:12.000Z</time></trkpt>
        <trkpt lat="29.778435" lon="103.451112"><ele>938.9663</ele><time>2026-04-20T18:47:17.000Z</time></trkpt>
        <trkpt lat="29.778395" lon="103.451062"><ele>939.3235</ele><time>2026-04-20T18:47:22.000Z</time></trkpt>
        <trkpt lat="29.778358" lon="103.451025"><ele>939.0483</ele><time>2026-04-20T18:47:26.000Z</time></trkpt>
        <trkpt lat="29.778308" lon="103.451018"><ele>939.8711</ele><time>2026-04-20T18:47:32.000Z</time></trkpt>
        <trkpt lat="29.778264" lon="103.451002"><ele>940.5058</ele><time>2026-04-20T18:47:37.000Z</time></trkpt>
        <trkpt lat="29.778217" lon="103.45102"><ele>940.8863</ele><time>2026-04-20T18:47:43.000Z</time></trkpt>
        <trkpt lat="29.778164" lon="103.451039"><ele>942.00507</ele><time>2026-04-20T18:47:52.000Z</time></trkpt>
        <trkpt lat="29.778106" lon="103.451023"><ele>942.45154</ele><time>2026-04-20T18:47:57.000Z</time></trkpt>
        <trkpt lat="29.778061" lon="103.45099"><ele>942.8299</ele><time>2026-04-20T18:48:03.000Z</time></trkpt>
        <trkpt lat="29.77801" lon="103.450969"><ele>943.47675</ele><time>2026-04-20T18:48:10.000Z</time></trkpt>
        <trkpt lat="29.777947" lon="103.450959"><ele>944.2217</ele><time>2026-04-20T18:48:14.000Z</time></trkpt>
        <trkpt lat="29.777902" lon="103.450963"><ele>944.097</ele><time>2026-04-20T18:48:19.000Z</time></trkpt>
        <trkpt lat="29.777862" lon="103.450936"><ele>944.0332</ele><time>2026-04-20T18:48:24.000Z</time></trkpt>
        <trkpt lat="29.777827" lon="103.450893"><ele>944.14813</ele><time>2026-04-20T18:48:28.000Z</time></trkpt>
        <trkpt lat="29.777792" lon="103.450853"><ele>945.1828</ele><time>2026-04-20T18:48:33.000Z</time></trkpt>
        <trkpt lat="29.777746" lon="103.450831"><ele>945.99054</ele><time>2026-04-20T18:48:48.000Z</time></trkpt>
        <trkpt lat="29.777705" lon="103.450801"><ele>946.53174</ele><time>2026-04-20T18:48:53.000Z</time></trkpt>
        <trkpt lat="29.777667" lon="103.450769"><ele>947.7508</ele><time>2026-04-20T18:49:00.000Z</time></trkpt>
        <trkpt lat="29.777637" lon="103.450724"><ele>948.578</ele><time>2026-04-20T18:49:06.000Z</time></trkpt>
        <trkpt lat="29.777605" lon="103.450686"><ele>949.67145</ele><time>2026-04-20T18:49:16.000Z</time></trkpt>
        <trkpt lat="29.777568" lon="103.450655"><ele>951.1926</ele><time>2026-04-20T18:49:22.000Z</time></trkpt>
        <trkpt lat="29.77754" lon="103.45061"><ele>952.6444</ele><time>2026-04-20T18:49:27.000Z</time></trkpt>
        <trkpt lat="29.7775" lon="103.450577"><ele>953.1939</ele><time>2026-04-20T18:49:35.000Z</time></trkpt>
        <trkpt lat="29.777456" lon="103.450561"><ele>954.3321</ele><time>2026-04-20T18:49:40.000Z</time></trkpt>
        <trkpt lat="29.777409" lon="103.450572"><ele>955.82196</ele><time>2026-04-20T18:49:45.000Z</time></trkpt>
        <trkpt lat="29.777362" lon="103.450564"><ele>958.25684</ele><time>2026-04-20T18:49:54.000Z</time></trkpt>
        <trkpt lat="29.777308" lon="103.450569"><ele>958.90186</ele><time>2026-04-20T18:50:01.000Z</time></trkpt>
        <trkpt lat="29.77726" lon="103.450569"><ele>959.24506</ele><time>2026-04-20T18:50:08.000Z</time></trkpt>
        <trkpt lat="29.777215" lon="103.450585"><ele>960.9162</ele><time>2026-04-20T18:50:31.000Z</time></trkpt>
        <trkpt lat="29.777166" lon="103.450583"><ele>961.8195</ele><time>2026-04-20T18:50:35.000Z</time></trkpt>
        <trkpt lat="29.7771" lon="103.450573"><ele>961.735</ele><time>2026-04-20T18:50:40.000Z</time></trkpt>
        <trkpt lat="29.777051" lon="103.450564"><ele>961.79486</ele><time>2026-04-20T18:50:43.000Z</time></trkpt>
        <trkpt lat="29.777006" lon="103.450551"><ele>961.32825</ele><time>2026-04-20T18:50:47.000Z</time></trkpt>
        <trkpt lat="29.776958" lon="103.450524"><ele>962.3636</ele><time>2026-04-20T18:50:51.000Z</time></trkpt>
        <trkpt lat="29.776937" lon="103.450476"><ele>964.4095</ele><time>2026-04-20T18:50:54.000Z</time></trkpt>
        <trkpt lat="29.776925" lon="103.450425"><ele>966.11334</ele><time>2026-04-20T18:50:57.000Z</time></trkpt>
        <trkpt lat="29.776904" lon="103.450369"><ele>967.35785</ele><time>2026-04-20T18:51:00.000Z</time></trkpt>
        <trkpt lat="29.77689" lon="103.450311"><ele>968.81995</ele><time>2026-04-20T18:51:03.000Z</time></trkpt>
        <trkpt lat="29.776863" lon="103.450268"><ele>969.99945</ele><time>2026-04-20T18:51:05.000Z</time></trkpt>
        <trkpt lat="29.776841" lon="103.45021"><ele>969.9732</ele><time>2026-04-20T18:51:08.000Z</time></trkpt>
        <trkpt lat="29.776817" lon="103.450152"><ele>971.6746</ele><time>2026-04-20T18:51:15.000Z</time></trkpt>
        <trkpt lat="29.776794" lon="103.450102"><ele>973.2091</ele><time>2026-04-20T18:51:31.000Z</time></trkpt>
        <trkpt lat="29.77684" lon="103.450088"><ele>971.6412</ele><time>2026-04-20T18:51:41.000Z</time></trkpt>
        <trkpt lat="29.776806" lon="103.45013"><ele>974.00885</ele><time>2026-04-20T18:52:05.000Z</time></trkpt>
        <trkpt lat="29.776778" lon="103.450086"><ele>975.2268</ele><time>2026-04-20T18:52:11.000Z</time></trkpt>
        <trkpt lat="29.776759" lon="103.450039"><ele>976.4045</ele><time>2026-04-20T18:52:16.000Z</time></trkpt>
        <trkpt lat="29.776721" lon="103.450001"><ele>979.089</ele><time>2026-04-20T18:52:28.000Z</time></trkpt>
        <trkpt lat="29.776671" lon="103.449998"><ele>980.14874</ele><time>2026-04-20T18:52:37.000Z</time></trkpt>
        <trkpt lat="29.776639" lon="103.449949"><ele>980.5897</ele><time>2026-04-20T18:52:41.000Z</time></trkpt>
        <trkpt lat="29.776587" lon="103.449944"><ele>981.54376</ele><time>2026-04-20T18:52:50.000Z</time></trkpt>
        <trkpt lat="29.776561" lon="103.449893"><ele>982.819</ele><time>2026-04-20T18:52:56.000Z</time></trkpt>
        <trkpt lat="29.776544" lon="103.449831"><ele>981.98645</ele><time>2026-04-20T18:52:59.000Z</time></trkpt>
        <trkpt lat="29.776513" lon="103.449779"><ele>982.25006</ele><time>2026-04-20T18:53:03.000Z</time></trkpt>
        <trkpt lat="29.77647" lon="103.449763"><ele>983.2133</ele><time>2026-04-20T18:53:08.000Z</time></trkpt>
        <trkpt lat="29.776416" lon="103.44975"><ele>984.3666</ele><time>2026-04-20T18:53:13.000Z</time></trkpt>
        <trkpt lat="29.776369" lon="103.44975"><ele>984.8725</ele><time>2026-04-20T18:53:18.000Z</time></trkpt>
        <trkpt lat="29.776327" lon="103.449786"><ele>987.06146</ele><time>2026-04-20T18:53:26.000Z</time></trkpt>
        <trkpt lat="29.776292" lon="103.449822"><ele>988.0422</ele><time>2026-04-20T18:53:48.000Z</time></trkpt>
        <trkpt lat="29.776247" lon="103.449797"><ele>988.3112</ele><time>2026-04-20T18:53:54.000Z</time></trkpt>
        <trkpt lat="29.776298" lon="103.449821"><ele>987.39136</ele><time>2026-04-20T18:54:22.000Z</time></trkpt>
        <trkpt lat="29.776282" lon="103.449875"><ele>987.796</ele><time>2026-04-20T18:54:27.000Z</time></trkpt>
        <trkpt lat="29.776245" lon="103.449924"><ele>988.495</ele><time>2026-04-20T18:55:20.000Z</time></trkpt>
        <trkpt lat="29.776224" lon="103.449973"><ele>989.18835</ele><time>2026-04-20T18:55:36.000Z</time></trkpt>
        <trkpt lat="29.776202" lon="103.450021"><ele>988.0787</ele><time>2026-04-20T18:55:42.000Z</time></trkpt>
        <trkpt lat="29.776157" lon="103.450019"><ele>988.1839</ele><time>2026-04-20T18:55:47.000Z</time></trkpt>
        <trkpt lat="29.776189" lon="103.450056"><ele>988.5508</ele><time>2026-04-20T18:56:59.000Z</time></trkpt>
        <trkpt lat="29.776235" lon="103.450059"><ele>988.4347</ele><time>2026-04-20T18:57:21.000Z</time></trkpt>
        <trkpt lat="29.776276" lon="103.450082"><ele>987.3054</ele><time>2026-04-20T18:57:46.000Z</time></trkpt>
        <trkpt lat="29.77631" lon="103.450119"><ele>986.5767</ele><time>2026-04-20T18:58:20.000Z</time></trkpt>
        <trkpt lat="29.776351" lon="103.450147"><ele>986.9512</ele><time>2026-04-20T18:58:46.000Z</time></trkpt>
        <trkpt lat="29.776307" lon="103.450126"><ele>985.2125</ele><time>2026-04-20T18:59:56.000Z</time></trkpt>
        <trkpt lat="29.776345" lon="103.450159"><ele>988.20624</ele><time>2026-04-20T19:00:39.000Z</time></trkpt>
        <trkpt lat="29.776313" lon="103.45011"><ele>984.50336</ele><time>2026-04-20T19:03:45.000Z</time></trkpt>
        <trkpt lat="29.77627" lon="103.450083"><ele>985.0239</ele><time>2026-04-20T19:03:51.000Z</time></trkpt>
        <trkpt lat="29.776224" lon="103.450063"><ele>985.4257</ele><time>2026-04-20T19:03:56.000Z</time></trkpt>
        <trkpt lat="29.776198" lon="103.450016"><ele>986.5523</ele><time>2026-04-20T19:04:02.000Z</time></trkpt>
        <trkpt lat="29.776226" lon="103.449961"><ele>987.32196</ele><time>2026-04-20T19:04:07.000Z</time></trkpt>
        <trkpt lat="29.776247" lon="103.449915"><ele>988.573</ele><time>2026-04-20T19:04:19.000Z</time></trkpt>
        <trkpt lat="29.776274" lon="103.449862"><ele>988.52466</ele><time>2026-04-20T19:04:24.000Z</time></trkpt>
        <trkpt lat="29.776294" lon="103.449808"><ele>989.314</ele><time>2026-04-20T19:04:28.000Z</time></trkpt>
        <trkpt lat="29.776249" lon="103.449784"><ele>990.0361</ele><time>2026-04-20T19:04:32.000Z</time></trkpt>
        <trkpt lat="29.776199" lon="103.449788"><ele>989.6435</ele><time>2026-04-20T19:04:40.000Z</time></trkpt>
        <trkpt lat="29.776149" lon="103.449803"><ele>989.9555</ele><time>2026-04-20T19:04:45.000Z</time></trkpt>
        <trkpt lat="29.776098" lon="103.449799"><ele>990.71906</ele><time>2026-04-20T19:04:50.000Z</time></trkpt>
        <trkpt lat="29.776042" lon="103.449777"><ele>991.801</ele><time>2026-04-20T19:04:56.000Z</time></trkpt>
        <trkpt lat="29.775991" lon="103.449751"><ele>992.5473</ele><time>2026-04-20T19:05:01.000Z</time></trkpt>
        <trkpt lat="29.775955" lon="103.449712"><ele>991.73083</ele><time>2026-04-20T19:05:05.000Z</time></trkpt>
        <trkpt lat="29.775906" lon="103.449688"><ele>992.1947</ele><time>2026-04-20T19:05:11.000Z</time></trkpt>
        <trkpt lat="29.775856" lon="103.44968"><ele>992.8437</ele><time>2026-04-20T19:05:16.000Z</time></trkpt>
        <trkpt lat="29.775812" lon="103.449656"><ele>993.56647</ele><time>2026-04-20T19:05:22.000Z</time></trkpt>
        <trkpt lat="29.77576" lon="103.449635"><ele>994.9262</ele><time>2026-04-20T19:05:27.000Z</time></trkpt>
        <trkpt lat="29.775723" lon="103.449603"><ele>994.2621</ele><time>2026-04-20T19:05:34.000Z</time></trkpt>
        <trkpt lat="29.775691" lon="103.44956"><ele>995.5957</ele><time>2026-04-20T19:05:39.000Z</time></trkpt>
        <trkpt lat="29.775659" lon="103.449524"><ele>995.03705</ele><time>2026-04-20T19:05:44.000Z</time></trkpt>
        <trkpt lat="29.775662" lon="103.449465"><ele>995.40076</ele><time>2026-04-20T19:05:48.000Z</time></trkpt>
        <trkpt lat="29.775673" lon="103.449411"><ele>995.97473</ele><time>2026-04-20T19:05:52.000Z</time></trkpt>
        <trkpt lat="29.775664" lon="103.449345"><ele>996.5619</ele><time>2026-04-20T19:05:59.000Z</time></trkpt>
        <trkpt lat="29.775643" lon="103.449295"><ele>996.5091</ele><time>2026-04-20T19:06:02.000Z</time></trkpt>
        <trkpt lat="29.77562" lon="103.44923"><ele>996.93256</ele><time>2026-04-20T19:06:06.000Z</time></trkpt>
        <trkpt lat="29.775579" lon="103.449188"><ele>995.2306</ele><time>2026-04-20T19:06:11.000Z</time></trkpt>
        <trkpt lat="29.77554" lon="103.449152"><ele>993.9164</ele><time>2026-04-20T19:06:16.000Z</time></trkpt>
        <trkpt lat="29.775503" lon="103.449107"><ele>993.97656</ele><time>2026-04-20T19:06:22.000Z</time></trkpt>
        <trkpt lat="29.775476" lon="103.449054"><ele>994.5452</ele><time>2026-04-20T19:06:26.000Z</time></trkpt>
        <trkpt lat="29.775436" lon="103.449027"><ele>995.5618</ele><time>2026-04-20T19:06:31.000Z</time></trkpt>
        <trkpt lat="29.775398" lon="103.448998"><ele>996.3314</ele><time>2026-04-20T19:06:35.000Z</time></trkpt>
        <trkpt lat="29.775376" lon="103.448941"><ele>998.1823</ele><time>2026-04-20T19:06:41.000Z</time></trkpt>
        <trkpt lat="29.775391" lon="103.448882"><ele>999.1193</ele><time>2026-04-20T19:06:45.000Z</time></trkpt>
        <trkpt lat="29.775406" lon="103.448826"><ele>999.5225</ele><time>2026-04-20T19:06:51.000Z</time></trkpt>
        <trkpt lat="29.77537" lon="103.448774"><ele>1000.2728</ele><time>2026-04-20T19:06:57.000Z</time></trkpt>
        <trkpt lat="29.775371" lon="103.44872"><ele>1000.67505</ele><time>2026-04-20T19:07:01.000Z</time></trkpt>
        <trkpt lat="29.775386" lon="103.448649"><ele>1001.5539</ele><time>2026-04-20T19:07:04.000Z</time></trkpt>
        <trkpt lat="29.775406" lon="103.448591"><ele>1001.9972</ele><time>2026-04-20T19:07:10.000Z</time></trkpt>
        <trkpt lat="29.775433" lon="103.448548"><ele>1001.5161</ele><time>2026-04-20T19:07:16.000Z</time></trkpt>
        <trkpt lat="29.775423" lon="103.448495"><ele>1000.21344</ele><time>2026-04-20T19:07:20.000Z</time></trkpt>
        <trkpt lat="29.775392" lon="103.448449"><ele>1000.6677</ele><time>2026-04-20T19:07:25.000Z</time></trkpt>
        <trkpt lat="29.775365" lon="103.448401"><ele>999.94055</ele><time>2026-04-20T19:07:29.000Z</time></trkpt>
        <trkpt lat="29.775322" lon="103.448373"><ele>997.8027</ele><time>2026-04-20T19:07:35.000Z</time></trkpt>
        <trkpt lat="29.775273" lon="103.448366"><ele>997.1829</ele><time>2026-04-20T19:07:40.000Z</time></trkpt>
        <trkpt lat="29.775232" lon="103.448336"><ele>996.71063</ele><time>2026-04-20T19:07:45.000Z</time></trkpt>
        <trkpt lat="29.775182" lon="103.448373"><ele>997.06616</ele><time>2026-04-20T19:08:08.000Z</time></trkpt>
        <trkpt lat="29.775126" lon="103.448357"><ele>998.03845</ele><time>2026-04-20T19:08:11.000Z</time></trkpt>
        <trkpt lat="29.775071" lon="103.44831"><ele>999.25793</ele><time>2026-04-20T19:08:32.000Z</time></trkpt>
        <trkpt lat="29.77506" lon="103.44824"><ele>999.26654</ele><time>2026-04-20T19:08:36.000Z</time></trkpt>
        <trkpt lat="29.775043" lon="103.448186"><ele>999.7271</ele><time>2026-04-20T19:08:44.000Z</time></trkpt>
        <trkpt lat="29.77503" lon="103.448115"><ele>1000.3567</ele><time>2026-04-20T19:08:51.000Z</time></trkpt>
        <trkpt lat="29.774979" lon="103.4481"><ele>1000.6462</ele><time>2026-04-20T19:09:00.000Z</time></trkpt>
        <trkpt lat="29.774935" lon="103.448082"><ele>1000.6189</ele><time>2026-04-20T19:09:18.000Z</time></trkpt>
        <trkpt lat="29.77489" lon="103.448092"><ele>997.69965</ele><time>2026-04-20T19:09:45.000Z</time></trkpt>
        <trkpt lat="29.774838" lon="103.448078"><ele>997.25476</ele><time>2026-04-20T19:10:07.000Z</time></trkpt>
        <trkpt lat="29.774786" lon="103.448053"><ele>996.93005</ele><time>2026-04-20T19:10:13.000Z</time></trkpt>
        <trkpt lat="29.77474" lon="103.448042"><ele>997.1109</ele><time>2026-04-20T19:10:17.000Z</time></trkpt>
        <trkpt lat="29.774689" lon="103.44803"><ele>997.75037</ele><time>2026-04-20T19:10:22.000Z</time></trkpt>
        <trkpt lat="29.774643" lon="103.448023"><ele>996.7918</ele><time>2026-04-20T19:10:27.000Z</time></trkpt>
        <trkpt lat="29.774597" lon="103.448024"><ele>993.7467</ele><time>2026-04-20T19:10:46.000Z</time></trkpt>
        <trkpt lat="29.774552" lon="103.448024"><ele>993.6147</ele><time>2026-04-20T19:10:50.000Z</time></trkpt>
        <trkpt lat="29.774505" lon="103.448015"><ele>994.53796</ele><time>2026-04-20T19:10:54.000Z</time></trkpt>
        <trkpt lat="29.774462" lon="103.447989"><ele>994.9472</ele><time>2026-04-20T19:11:03.000Z</time></trkpt>
        <trkpt lat="29.774417" lon="103.44799"><ele>994.583</ele><time>2026-04-20T19:11:07.000Z</time></trkpt>
        <trkpt lat="29.774364" lon="103.447991"><ele>996.1039</ele><time>2026-04-20T19:11:11.000Z</time></trkpt>
        <trkpt lat="29.774313" lon="103.447972"><ele>995.38477</ele><time>2026-04-20T19:11:17.000Z</time></trkpt>
        <trkpt lat="29.77426" lon="103.447968"><ele>996.47235</ele><time>2026-04-20T19:11:25.000Z</time></trkpt>
        <trkpt lat="29.774204" lon="103.44797"><ele>995.639</ele><time>2026-04-20T19:11:53.000Z</time></trkpt>
        <trkpt lat="29.774163" lon="103.447998"><ele>995.12775</ele><time>2026-04-20T19:11:59.000Z</time></trkpt>
        <trkpt lat="29.774118" lon="103.447982"><ele>994.8814</ele><time>2026-04-20T19:12:06.000Z</time></trkpt>
        <trkpt lat="29.774065" lon="103.447982"><ele>993.81116</ele><time>2026-04-20T19:12:12.000Z</time></trkpt>
        <trkpt lat="29.774014" lon="103.447987"><ele>993.4647</ele><time>2026-04-20T19:12:18.000Z</time></trkpt>
        <trkpt lat="29.77397" lon="103.448001"><ele>992.7223</ele><time>2026-04-20T19:12:23.000Z</time></trkpt>
        <trkpt lat="29.773923" lon="103.448001"><ele>993.1079</ele><time>2026-04-20T19:12:26.000Z</time></trkpt>
        <trkpt lat="29.773879" lon="103.448019"><ele>993.5038</ele><time>2026-04-20T19:12:29.000Z</time></trkpt>
        <trkpt lat="29.773834" lon="103.448032"><ele>994.83466</ele><time>2026-04-20T19:12:34.000Z</time></trkpt>
        <trkpt lat="29.773789" lon="103.448045"><ele>995.20636</ele><time>2026-04-20T19:12:39.000Z</time></trkpt>
        <trkpt lat="29.773735" lon="103.448049"><ele>995.66</ele><time>2026-04-20T19:12:42.000Z</time></trkpt>
        <trkpt lat="29.773683" lon="103.448048"><ele>997.0148</ele><time>2026-04-20T19:12:46.000Z</time></trkpt>
        <trkpt lat="29.773634" lon="103.448054"><ele>996.26483</ele><time>2026-04-20T19:12:51.000Z</time></trkpt>
        <trkpt lat="29.773596" lon="103.448009"><ele>994.5851</ele><time>2026-04-20T19:13:00.000Z</time></trkpt>
        <trkpt lat="29.773547" lon="103.44805"><ele>993.8196</ele><time>2026-04-20T19:13:06.000Z</time></trkpt>
        <trkpt lat="29.773514" lon="103.448097"><ele>995.4478</ele><time>2026-04-20T19:13:23.000Z</time></trkpt>
        <trkpt lat="29.773475" lon="103.448072"><ele>996.3905</ele><time>2026-04-20T19:13:43.000Z</time></trkpt>
        <trkpt lat="29.773407" lon="103.448058"><ele>996.30493</ele><time>2026-04-20T19:13:47.000Z</time></trkpt>
        <trkpt lat="29.773369" lon="103.448028"><ele>996.30707</ele><time>2026-04-20T19:13:49.000Z</time></trkpt>
        <trkpt lat="29.773339" lon="103.448074"><ele>994.8461</ele><time>2026-04-20T19:13:55.000Z</time></trkpt>
        <trkpt lat="29.773292" lon="103.44809"><ele>995.02435</ele><time>2026-04-20T19:14:00.000Z</time></trkpt>
        <trkpt lat="29.773253" lon="103.448119"><ele>995.0111</ele><time>2026-04-20T19:14:04.000Z</time></trkpt>
        <trkpt lat="29.773217" lon="103.448154"><ele>995.0877</ele><time>2026-04-20T19:14:08.000Z</time></trkpt>
        <trkpt lat="29.773172" lon="103.448142"><ele>996.05853</ele><time>2026-04-20T19:14:12.000Z</time></trkpt>
        <trkpt lat="29.773117" lon="103.44814"><ele>995.7046</ele><time>2026-04-20T19:14:18.000Z</time></trkpt>
        <trkpt lat="29.773051" lon="103.448175"><ele>997.8561</ele><time>2026-04-20T19:14:28.000Z</time></trkpt>
        <trkpt lat="29.773002" lon="103.44818"><ele>997.93835</ele><time>2026-04-20T19:14:44.000Z</time></trkpt>
        <trkpt lat="29.772946" lon="103.448161"><ele>998.5981</ele><time>2026-04-20T19:14:49.000Z</time></trkpt>
        <trkpt lat="29.772903" lon="103.44818"><ele>998.2977</ele><time>2026-04-20T19:14:54.000Z</time></trkpt>
        <trkpt lat="29.772853" lon="103.448176"><ele>997.96423</ele><time>2026-04-20T19:14:58.000Z</time></trkpt>
        <trkpt lat="29.772811" lon="103.448154"><ele>996.6163</ele><time>2026-04-20T19:15:03.000Z</time></trkpt>
        <trkpt lat="29.772766" lon="103.448171"><ele>996.2049</ele><time>2026-04-20T19:15:08.000Z</time></trkpt>
        <trkpt lat="29.772716" lon="103.448182"><ele>995.06976</ele><time>2026-04-20T19:15:12.000Z</time></trkpt>
        <trkpt lat="29.772667" lon="103.448187"><ele>995.53754</ele><time>2026-04-20T19:15:18.000Z</time></trkpt>
        <trkpt lat="29.772619" lon="103.448175"><ele>995.0623</ele><time>2026-04-20T19:15:23.000Z</time></trkpt>
        <trkpt lat="29.772572" lon="103.448168"><ele>995.89185</ele><time>2026-04-20T19:15:27.000Z</time></trkpt>
        <trkpt lat="29.772517" lon="103.448167"><ele>995.3971</ele><time>2026-04-20T19:15:31.000Z</time></trkpt>
        <trkpt lat="29.772558" lon="103.448203"><ele>996.11816</ele><time>2026-04-20T19:15:43.000Z</time></trkpt>
        <trkpt lat="29.772492" lon="103.448214"><ele>994.9351</ele><time>2026-04-20T19:15:57.000Z</time></trkpt>
        <trkpt lat="29.772444" lon="103.448204"><ele>993.87384</ele><time>2026-04-20T19:16:01.000Z</time></trkpt>
        <trkpt lat="29.77248" lon="103.448249"><ele>994.63055</ele><time>2026-04-20T19:16:15.000Z</time></trkpt>
        <trkpt lat="29.772521" lon="103.448275"><ele>994.06506</ele><time>2026-04-20T19:16:24.000Z</time></trkpt>
        <trkpt lat="29.772573" lon="103.448273"><ele>996.74286</ele><time>2026-04-20T19:16:33.000Z</time></trkpt>
        <trkpt lat="29.77261" lon="103.448305"><ele>999.79645</ele><time>2026-04-20T19:16:48.000Z</time></trkpt>
        <trkpt lat="29.772563" lon="103.44831"><ele>997.00287</ele><time>2026-04-20T19:17:00.000Z</time></trkpt>
        <trkpt lat="29.772523" lon="103.448284"><ele>993.8183</ele><time>2026-04-20T19:17:07.000Z</time></trkpt>
        <trkpt lat="29.772481" lon="103.448253"><ele>991.8393</ele><time>2026-04-20T19:17:14.000Z</time></trkpt>
        <trkpt lat="29.772437" lon="103.448232"><ele>992.6564</ele><time>2026-04-20T19:17:22.000Z</time></trkpt>
        <trkpt lat="29.772396" lon="103.448202"><ele>992.6818</ele><time>2026-04-20T19:18:23.000Z</time></trkpt>
        <trkpt lat="29.772353" lon="103.448176"><ele>990.8853</ele><time>2026-04-20T19:18:33.000Z</time></trkpt>
        <trkpt lat="29.772327" lon="103.448127"><ele>991.3544</ele><time>2026-04-20T19:20:50.000Z</time></trkpt>
        <trkpt lat="29.7723" lon="103.448176"><ele>991.1058</ele><time>2026-04-20T19:21:03.000Z</time></trkpt>
        <trkpt lat="29.772266" lon="103.44814"><ele>989.9959</ele><time>2026-04-20T19:21:16.000Z</time></trkpt>
        <trkpt lat="29.77233" lon="103.448155"><ele>993.04486</ele><time>2026-04-20T19:22:01.000Z</time></trkpt>
        <trkpt lat="29.772346" lon="103.448207"><ele>993.4767</ele><time>2026-04-20T19:22:24.000Z</time></trkpt>
        <trkpt lat="29.772382" lon="103.448165"><ele>988.60394</ele><time>2026-04-20T19:22:46.000Z</time></trkpt>
        <trkpt lat="29.772347" lon="103.448202"><ele>991.63074</ele><time>2026-04-20T19:22:59.000Z</time></trkpt>
        <trkpt lat="29.772311" lon="103.44817"><ele>989.42377</ele><time>2026-04-20T19:23:17.000Z</time></trkpt>
        <trkpt lat="29.772287" lon="103.448125"><ele>994.0883</ele><time>2026-04-20T19:23:45.000Z</time></trkpt>
        <trkpt lat="29.772246" lon="103.448146"><ele>994.6666</ele><time>2026-04-20T19:24:13.000Z</time></trkpt>
        <trkpt lat="29.772199" lon="103.448159"><ele>993.7031</ele><time>2026-04-20T19:24:18.000Z</time></trkpt>
        <trkpt lat="29.772148" lon="103.448158"><ele>992.87195</ele><time>2026-04-20T19:24:25.000Z</time></trkpt>
        <trkpt lat="29.7721" lon="103.448155"><ele>993.80554</ele><time>2026-04-20T19:24:29.000Z</time></trkpt>
        <trkpt lat="29.772044" lon="103.448153"><ele>992.99585</ele><time>2026-04-20T19:24:35.000Z</time></trkpt>
        <trkpt lat="29.771998" lon="103.448118"><ele>992.3457</ele><time>2026-04-20T19:24:44.000Z</time></trkpt>
        <trkpt lat="29.771952" lon="103.448085"><ele>992.76306</ele><time>2026-04-20T19:24:50.000Z</time></trkpt>
        <trkpt lat="29.771904" lon="103.448052"><ele>993.436</ele><time>2026-04-20T19:24:54.000Z</time></trkpt>
        <trkpt lat="29.771951" lon="103.448071"><ele>993.6664</ele><time>2026-04-20T19:25:05.000Z</time></trkpt>
        <trkpt lat="29.771993" lon="103.448094"><ele>994.577</ele><time>2026-04-20T19:25:12.000Z</time></trkpt>
        <trkpt lat="29.771938" lon="103.44807"><ele>994.5098</ele><time>2026-04-20T19:25:18.000Z</time></trkpt>
        <trkpt lat="29.771895" lon="103.448035"><ele>994.19244</ele><time>2026-04-20T19:25:22.000Z</time></trkpt>
        <trkpt lat="29.771858" lon="103.447999"><ele>994.37024</ele><time>2026-04-20T19:25:29.000Z</time></trkpt>
        <trkpt lat="29.771812" lon="103.447989"><ele>996.1458</ele><time>2026-04-20T19:25:35.000Z</time></trkpt>
        <trkpt lat="29.771765" lon="103.447978"><ele>995.45325</ele><time>2026-04-20T19:25:40.000Z</time></trkpt>
        <trkpt lat="29.771728" lon="103.447945"><ele>995.37054</ele><time>2026-04-20T19:25:45.000Z</time></trkpt>
        <trkpt lat="29.771674" lon="103.447915"><ele>996.1225</ele><time>2026-04-20T19:25:49.000Z</time></trkpt>
        <trkpt lat="29.771673" lon="103.447854"><ele>996.8135</ele><time>2026-04-20T19:25:54.000Z</time></trkpt>
        <trkpt lat="29.771642" lon="103.447803"><ele>998.2224</ele><time>2026-04-20T19:25:57.000Z</time></trkpt>
        <trkpt lat="29.771603" lon="103.447758"><ele>1000.2765</ele><time>2026-04-20T19:26:02.000Z</time></trkpt>
        <trkpt lat="29.771588" lon="103.447674"><ele>1001.0801</ele><time>2026-04-20T19:26:11.000Z</time></trkpt>
        <trkpt lat="29.771562" lon="103.447627"><ele>1001.9666</ele><time>2026-04-20T19:26:17.000Z</time></trkpt>
        <trkpt lat="29.771542" lon="103.44758"><ele>1002.531</ele><time>2026-04-20T19:26:18.000Z</time></trkpt>
        <trkpt lat="29.771543" lon="103.447516"><ele>1004.6938</ele><time>2026-04-20T19:26:28.000Z</time></trkpt>
        <trkpt lat="29.771527" lon="103.447465"><ele>1004.6669</ele><time>2026-04-20T19:26:34.000Z</time></trkpt>
        <trkpt lat="29.771531" lon="103.447409"><ele>1004.5365</ele><time>2026-04-20T19:26:39.000Z</time></trkpt>
        <trkpt lat="29.771516" lon="103.447314"><ele>1004.72144</ele><time>2026-04-20T19:26:47.000Z</time></trkpt>
        <trkpt lat="29.771457" lon="103.44733"><ele>1002.20184</ele><time>2026-04-20T19:27:05.000Z</time></trkpt>
        <trkpt lat="29.771422" lon="103.447202"><ele>1002.0203</ele><time>2026-04-20T19:27:19.000Z</time></trkpt>
        <trkpt lat="29.771475" lon="103.447174"><ele>1002.0342</ele><time>2026-04-20T19:27:23.000Z</time></trkpt>
        <trkpt lat="29.771426" lon="103.447186"><ele>1003.35205</ele><time>2026-04-20T19:27:25.000Z</time></trkpt>
        <trkpt lat="29.77139" lon="103.447129"><ele>1004.50336</ele><time>2026-04-20T19:27:29.000Z</time></trkpt>
        <trkpt lat="29.77135" lon="103.447098"><ele>1003.9877</ele><time>2026-04-20T19:27:34.000Z</time></trkpt>
        <trkpt lat="29.771348" lon="103.447041"><ele>1003.3454</ele><time>2026-04-20T19:27:39.000Z</time></trkpt>
        <trkpt lat="29.771335" lon="103.44699"><ele>1001.76575</ele><time>2026-04-20T19:27:46.000Z</time></trkpt>
        <trkpt lat="29.771271" lon="103.446956"><ele>1001.2721</ele><time>2026-04-20T19:28:00.000Z</time></trkpt>
        <trkpt lat="29.771222" lon="103.446945"><ele>1002.60974</ele><time>2026-04-20T19:28:12.000Z</time></trkpt>
        <trkpt lat="29.771265" lon="103.446908"><ele>1000.5839</ele><time>2026-04-20T19:28:28.000Z</time></trkpt>
        <trkpt lat="29.771224" lon="103.446862"><ele>999.94617</ele><time>2026-04-20T19:28:32.000Z</time></trkpt>
        <trkpt lat="29.771179" lon="103.446862"><ele>999.5911</ele><time>2026-04-20T19:28:39.000Z</time></trkpt>
        <trkpt lat="29.771133" lon="103.446881"><ele>999.54333</ele><time>2026-04-20T19:28:49.000Z</time></trkpt>
        <trkpt lat="29.771097" lon="103.446846"><ele>1001.02875</ele><time>2026-04-20T19:28:57.000Z</time></trkpt>
        <trkpt lat="29.77105" lon="103.446849"><ele>1000.6646</ele><time>2026-04-20T19:29:03.000Z</time></trkpt>
        <trkpt lat="29.771029" lon="103.446789"><ele>1000.22644</ele><time>2026-04-20T19:29:07.000Z</time></trkpt>
        <trkpt lat="29.771055" lon="103.446733"><ele>1000.15546</ele><time>2026-04-20T19:29:15.000Z</time></trkpt>
        <trkpt lat="29.77104" lon="103.446679"><ele>1000.34216</ele><time>2026-04-20T19:29:21.000Z</time></trkpt>
        <trkpt lat="29.771016" lon="103.446631"><ele>1000.10156</ele><time>2026-04-20T19:29:26.000Z</time></trkpt>
        <trkpt lat="29.770989" lon="103.446577"><ele>1000.238</ele><time>2026-04-20T19:29:30.000Z</time></trkpt>
        <trkpt lat="29.770943" lon="103.446609"><ele>1001.4183</ele><time>2026-04-20T19:29:34.000Z</time></trkpt>
        <trkpt lat="29.770901" lon="103.446579"><ele>1002.8206</ele><time>2026-04-20T19:29:38.000Z</time></trkpt>
        <trkpt lat="29.770844" lon="103.446534"><ele>1002.4654</ele><time>2026-04-20T19:29:42.000Z</time></trkpt>
        <trkpt lat="29.770876" lon="103.446572"><ele>1001.43695</ele><time>2026-04-20T19:30:27.000Z</time></trkpt>
        <trkpt lat="29.770838" lon="103.446538"><ele>1002.20337</ele><time>2026-04-20T19:30:33.000Z</time></trkpt>
        <trkpt lat="29.770809" lon="103.446488"><ele>1001.621</ele><time>2026-04-20T19:30:37.000Z</time></trkpt>
        <trkpt lat="29.770771" lon="103.446458"><ele>1001.0989</ele><time>2026-04-20T19:30:42.000Z</time></trkpt>
        <trkpt lat="29.770723" lon="103.446438"><ele>1000.46094</ele><time>2026-04-20T19:30:46.000Z</time></trkpt>
        <trkpt lat="29.770706" lon="103.446382"><ele>1000.2309</ele><time>2026-04-20T19:30:50.000Z</time></trkpt>
        <trkpt lat="29.77069" lon="103.446326"><ele>1002.50586</ele><time>2026-04-20T19:30:55.000Z</time></trkpt>
        <trkpt lat="29.770679" lon="103.446267"><ele>1002.98724</ele><time>2026-04-20T19:30:58.000Z</time></trkpt>
        <trkpt lat="29.770638" lon="103.446245"><ele>1003.35846</ele><time>2026-04-20T19:31:04.000Z</time></trkpt>
        <trkpt lat="29.770607" lon="103.446289"><ele>1004.88165</ele><time>2026-04-20T19:31:21.000Z</time></trkpt>
        <trkpt lat="29.770577" lon="103.44633"><ele>1005.621</ele><time>2026-04-20T19:31:26.000Z</time></trkpt>
        <trkpt lat="29.770537" lon="103.446367"><ele>1006.62726</ele><time>2026-04-20T19:31:32.000Z</time></trkpt>
        <trkpt lat="29.7705" lon="103.446403"><ele>1008.61053</ele><time>2026-04-20T19:31:39.000Z</time></trkpt>
        <trkpt lat="29.770444" lon="103.446411"><ele>1008.8356</ele><time>2026-04-20T19:31:43.000Z</time></trkpt>
        <trkpt lat="29.770418" lon="103.446456"><ele>1010.0127</ele><time>2026-04-20T19:31:48.000Z</time></trkpt>
        <trkpt lat="29.770371" lon="103.446496"><ele>1010.72174</ele><time>2026-04-20T19:31:55.000Z</time></trkpt>
        <trkpt lat="29.770317" lon="103.446509"><ele>1011.59973</ele><time>2026-04-20T19:32:00.000Z</time></trkpt>
        <trkpt lat="29.770264" lon="103.446469"><ele>1011.9062</ele><time>2026-04-20T19:32:04.000Z</time></trkpt>
        <trkpt lat="29.770311" lon="103.446489"><ele>1011.6878</ele><time>2026-04-20T19:32:10.000Z</time></trkpt>
        <trkpt lat="29.770313" lon="103.446542"><ele>1013.0801</ele><time>2026-04-20T19:32:16.000Z</time></trkpt>
        <trkpt lat="29.770255" lon="103.446571"><ele>1013.7141</ele><time>2026-04-20T19:32:22.000Z</time></trkpt>
        <trkpt lat="29.770252" lon="103.446625"><ele>1016.31665</ele><time>2026-04-20T19:32:45.000Z</time></trkpt>
        <trkpt lat="29.770203" lon="103.446651"><ele>1017.7288</ele><time>2026-04-20T19:32:52.000Z</time></trkpt>
        <trkpt lat="29.770154" lon="103.446658"><ele>1018.1458</ele><time>2026-04-20T19:32:56.000Z</time></trkpt>
        <trkpt lat="29.770108" lon="103.446677"><ele>1020.9629</ele><time>2026-04-20T19:33:06.000Z</time></trkpt>
        <trkpt lat="29.770107" lon="103.446731"><ele>1021.29553</ele><time>2026-04-20T19:33:28.000Z</time></trkpt>
        <trkpt lat="29.770078" lon="103.446771"><ele>1021.2133</ele><time>2026-04-20T19:33:32.000Z</time></trkpt>
        <trkpt lat="29.770031" lon="103.446782"><ele>1021.27997</ele><time>2026-04-20T19:33:38.000Z</time></trkpt>
        <trkpt lat="29.769992" lon="103.446814"><ele>1020.77673</ele><time>2026-04-20T19:33:44.000Z</time></trkpt>
        <trkpt lat="29.769942" lon="103.446833"><ele>1020.8409</ele><time>2026-04-20T19:33:55.000Z</time></trkpt>
        <trkpt lat="29.769902" lon="103.446877"><ele>1021.2226</ele><time>2026-04-20T19:34:01.000Z</time></trkpt>
        <trkpt lat="29.769855" lon="103.446862"><ele>1020.25684</ele><time>2026-04-20T19:34:12.000Z</time></trkpt>
        <trkpt lat="29.769847" lon="103.446916"><ele>1022.6063</ele><time>2026-04-20T19:34:27.000Z</time></trkpt>
        <trkpt lat="29.769819" lon="103.44697"><ele>1026.709</ele><time>2026-04-20T19:34:48.000Z</time></trkpt>
        <trkpt lat="29.769779" lon="103.446995"><ele>1030.0043</ele><time>2026-04-20T19:34:57.000Z</time></trkpt>
        <trkpt lat="29.769744" lon="103.446964"><ele>1030.1715</ele><time>2026-04-20T19:35:02.000Z</time></trkpt>
        <trkpt lat="29.769716" lon="103.446923"><ele>1029.418</ele><time>2026-04-20T19:35:06.000Z</time></trkpt>
        <trkpt lat="29.769683" lon="103.446875"><ele>1029.4507</ele><time>2026-04-20T19:35:11.000Z</time></trkpt>
        <trkpt lat="29.769638" lon="103.446861"><ele>1030.0062</ele><time>2026-04-20T19:35:16.000Z</time></trkpt>
        <trkpt lat="29.769602" lon="103.446816"><ele>1031.8197</ele><time>2026-04-20T19:35:20.000Z</time></trkpt>
        <trkpt lat="29.769568" lon="103.446774"><ele>1031.4395</ele><time>2026-04-20T19:35:24.000Z</time></trkpt>
        <trkpt lat="29.769536" lon="103.446734"><ele>1031.5238</ele><time>2026-04-20T19:35:29.000Z</time></trkpt>
        <trkpt lat="29.769526" lon="103.446681"><ele>1029.9846</ele><time>2026-04-20T19:35:35.000Z</time></trkpt>
        <trkpt lat="29.769515" lon="103.446626"><ele>1029.5114</ele><time>2026-04-20T19:35:38.000Z</time></trkpt>
        <trkpt lat="29.769479" lon="103.446583"><ele>1029.5759</ele><time>2026-04-20T19:35:46.000Z</time></trkpt>
        <trkpt lat="29.769434" lon="103.446536"><ele>1029.5814</ele><time>2026-04-20T19:35:48.000Z</time></trkpt>
        <trkpt lat="29.769394" lon="103.4465"><ele>1031.4822</ele><time>2026-04-20T19:35:58.000Z</time></trkpt>
        <trkpt lat="29.76935" lon="103.44647"><ele>1032.8589</ele><time>2026-04-20T19:36:01.000Z</time></trkpt>
        <trkpt lat="29.769303" lon="103.446432"><ele>1034.5078</ele><time>2026-04-20T19:36:07.000Z</time></trkpt>
        <trkpt lat="29.769283" lon="103.446383"><ele>1035.0734</ele><time>2026-04-20T19:36:13.000Z</time></trkpt>
        <trkpt lat="29.769246" lon="103.446342"><ele>1035.5609</ele><time>2026-04-20T19:36:19.000Z</time></trkpt>
        <trkpt lat="29.769223" lon="103.446294"><ele>1036.0496</ele><time>2026-04-20T19:36:32.000Z</time></trkpt>
        <trkpt lat="29.769196" lon="103.446238"><ele>1037.4297</ele><time>2026-04-20T19:36:36.000Z</time></trkpt>
        <trkpt lat="29.769158" lon="103.446192"><ele>1039.6298</ele><time>2026-04-20T19:36:42.000Z</time></trkpt>
        <trkpt lat="29.769145" lon="103.446136"><ele>1041.2056</ele><time>2026-04-20T19:36:46.000Z</time></trkpt>
        <trkpt lat="29.769103" lon="103.446106"><ele>1042.1918</ele><time>2026-04-20T19:36:51.000Z</time></trkpt>
        <trkpt lat="29.769052" lon="103.446103"><ele>1041.671</ele><time>2026-04-20T19:36:56.000Z</time></trkpt>
        <trkpt lat="29.769006" lon="103.446034"><ele>1044.6154</ele><time>2026-04-20T19:37:01.000Z</time></trkpt>
        <trkpt lat="29.768975" lon="103.445997"><ele>1044.1012</ele><time>2026-04-20T19:37:05.000Z</time></trkpt>
        <trkpt lat="29.768935" lon="103.445959"><ele>1046.0781</ele><time>2026-04-20T19:37:12.000Z</time></trkpt>
        <trkpt lat="29.768887" lon="103.445948"><ele>1047.0831</ele><time>2026-04-20T19:37:24.000Z</time></trkpt>
        <trkpt lat="29.768872" lon="103.445997"><ele>1047.9623</ele><time>2026-04-20T19:37:32.000Z</time></trkpt>
        <trkpt lat="29.768884" lon="103.445939"><ele>1051.3783</ele><time>2026-04-20T19:38:08.000Z</time></trkpt>
        <trkpt lat="29.768865" lon="103.445886"><ele>1052.4415</ele><time>2026-04-20T19:38:13.000Z</time></trkpt>
        <trkpt lat="29.768821" lon="103.445843"><ele>1055.3452</ele><time>2026-04-20T19:38:20.000Z</time></trkpt>
        <trkpt lat="29.768784" lon="103.445802"><ele>1057.1698</ele><time>2026-04-20T19:38:44.000Z</time></trkpt>
        <trkpt lat="29.768745" lon="103.445762"><ele>1058.3171</ele><time>2026-04-20T19:38:52.000Z</time></trkpt>
        <trkpt lat="29.768788" lon="103.44579"><ele>1057.0063</ele><time>2026-04-20T19:39:18.000Z</time></trkpt>
        <trkpt lat="29.768812" lon="103.445838"><ele>1056.4467</ele><time>2026-04-20T19:39:28.000Z</time></trkpt>
        <trkpt lat="29.768845" lon="103.445802"><ele>1057.687</ele><time>2026-04-20T19:39:34.000Z</time></trkpt>
        <trkpt lat="29.768803" lon="103.445779"><ele>1057.8975</ele><time>2026-04-20T19:39:40.000Z</time></trkpt>
        <trkpt lat="29.76876" lon="103.445758"><ele>1058.8396</ele><time>2026-04-20T19:39:52.000Z</time></trkpt>
        <trkpt lat="29.768718" lon="103.445726"><ele>1058.6707</ele><time>2026-04-20T19:40:00.000Z</time></trkpt>
        <trkpt lat="29.768662" lon="103.445722"><ele>1062.2635</ele><time>2026-04-20T19:40:28.000Z</time></trkpt>
        <trkpt lat="29.768659" lon="103.445662"><ele>1061.7175</ele><time>2026-04-20T19:40:36.000Z</time></trkpt>
        <trkpt lat="29.768623" lon="103.445628"><ele>1062.3015</ele><time>2026-04-20T19:40:46.000Z</time></trkpt>
        <trkpt lat="29.768574" lon="103.445561"><ele>1067.4327</ele><time>2026-04-20T19:41:03.000Z</time></trkpt>
        <trkpt lat="29.768526" lon="103.445511"><ele>1064.6995</ele><time>2026-04-20T19:41:13.000Z</time></trkpt>
        <trkpt lat="29.768495" lon="103.445464"><ele>1064.0955</ele><time>2026-04-20T19:41:22.000Z</time></trkpt>
        <trkpt lat="29.768437" lon="103.445425"><ele>1064.2831</ele><time>2026-04-20T19:41:31.000Z</time></trkpt>
        <trkpt lat="29.768392" lon="103.445388"><ele>1063.4504</ele><time>2026-04-20T19:41:39.000Z</time></trkpt>
        <trkpt lat="29.768346" lon="103.445354"><ele>1060.225</ele><time>2026-04-20T19:41:44.000Z</time></trkpt>
        <trkpt lat="29.768317" lon="103.445309"><ele>1058.3695</ele><time>2026-04-20T19:41:48.000Z</time></trkpt>
        <trkpt lat="29.768297" lon="103.445259"><ele>1055.3756</ele><time>2026-04-20T19:41:52.000Z</time></trkpt>
        <trkpt lat="29.768265" lon="103.445219"><ele>1052.9612</ele><time>2026-04-20T19:41:56.000Z</time></trkpt>
        <trkpt lat="29.768229" lon="103.445176"><ele>1052.0254</ele><time>2026-04-20T19:42:03.000Z</time></trkpt>
        <trkpt lat="29.768202" lon="103.445134"><ele>1050.7915</ele><time>2026-04-20T19:42:07.000Z</time></trkpt>
        <trkpt lat="29.768167" lon="103.445096"><ele>1049.9286</ele><time>2026-04-20T19:42:10.000Z</time></trkpt>
        <trkpt lat="29.768136" lon="103.445047"><ele>1050.6222</ele><time>2026-04-20T19:42:13.000Z</time></trkpt>
        <trkpt lat="29.768109" lon="103.444989"><ele>1052.2572</ele><time>2026-04-20T19:42:16.000Z</time></trkpt>
        <trkpt lat="29.768101" lon="103.444933"><ele>1055.2245</ele><time>2026-04-20T19:42:21.000Z</time></trkpt>
        <trkpt lat="29.768067" lon="103.4449"><ele>1057.004</ele><time>2026-04-20T19:42:24.000Z</time></trkpt>
        <trkpt lat="29.768038" lon="103.444851"><ele>1057.1136</ele><time>2026-04-20T19:42:29.000Z</time></trkpt>
        <trkpt lat="29.76802" lon="103.444803"><ele>1058.6737</ele><time>2026-04-20T19:42:34.000Z</time></trkpt>
        <trkpt lat="29.767993" lon="103.444761"><ele>1057.2325</ele><time>2026-04-20T19:42:39.000Z</time></trkpt>
        <trkpt lat="29.76798" lon="103.44471"><ele>1056.6322</ele><time>2026-04-20T19:42:44.000Z</time></trkpt>
        <trkpt lat="29.767949" lon="103.444666"><ele>1058.6794</ele><time>2026-04-20T19:42:50.000Z</time></trkpt>
        <trkpt lat="29.767901" lon="103.444621"><ele>1060.5835</ele><time>2026-04-20T19:42:58.000Z</time></trkpt>
        <trkpt lat="29.767859" lon="103.44457"><ele>1062.6895</ele><time>2026-04-20T19:43:04.000Z</time></trkpt>
        <trkpt lat="29.767818" lon="103.444515"><ele>1063.3076</ele><time>2026-04-20T19:43:09.000Z</time></trkpt>
        <trkpt lat="29.767819" lon="103.444463"><ele>1063.109</ele><time>2026-04-20T19:43:15.000Z</time></trkpt>
        <trkpt lat="29.767772" lon="103.44442"><ele>1065.3585</ele><time>2026-04-20T19:43:23.000Z</time></trkpt>
        <trkpt lat="29.767725" lon="103.444394"><ele>1065.9888</ele><time>2026-04-20T19:43:27.000Z</time></trkpt>
        <trkpt lat="29.767669" lon="103.444364"><ele>1066.9889</ele><time>2026-04-20T19:43:31.000Z</time></trkpt>
        <trkpt lat="29.767617" lon="103.444318"><ele>1065.236</ele><time>2026-04-20T19:43:37.000Z</time></trkpt>
        <trkpt lat="29.767578" lon="103.444273"><ele>1064.9728</ele><time>2026-04-20T19:43:44.000Z</time></trkpt>
        <trkpt lat="29.767532" lon="103.444249"><ele>1065.8633</ele><time>2026-04-20T19:43:49.000Z</time></trkpt>
        <trkpt lat="29.767488" lon="103.444226"><ele>1066.9451</ele><time>2026-04-20T19:43:55.000Z</time></trkpt>
        <trkpt lat="29.767442" lon="103.444194"><ele>1067.2557</ele><time>2026-04-20T19:44:00.000Z</time></trkpt>
        <trkpt lat="29.7674" lon="103.444154"><ele>1067.784</ele><time>2026-04-20T19:44:06.000Z</time></trkpt>
        <trkpt lat="29.767366" lon="103.4441"><ele>1067.4677</ele><time>2026-04-20T19:44:12.000Z</time></trkpt>
        <trkpt lat="29.767332" lon="103.44406"><ele>1066.9407</ele><time>2026-04-20T19:44:17.000Z</time></trkpt>
        <trkpt lat="29.767285" lon="103.444028"><ele>1069.1368</ele><time>2026-04-20T19:44:24.000Z</time></trkpt>
        <trkpt lat="29.767245" lon="103.443993"><ele>1069.4833</ele><time>2026-04-20T19:44:30.000Z</time></trkpt>
        <trkpt lat="29.767201" lon="103.443958"><ele>1069.8208</ele><time>2026-04-20T19:44:36.000Z</time></trkpt>
        <trkpt lat="29.767163" lon="103.443921"><ele>1071.5825</ele><time>2026-04-20T19:44:43.000Z</time></trkpt>
        <trkpt lat="29.767119" lon="103.443885"><ele>1072.0596</ele><time>2026-04-20T19:44:46.000Z</time></trkpt>
        <trkpt lat="29.767083" lon="103.443854"><ele>1071.43</ele><time>2026-04-20T19:44:56.000Z</time></trkpt>
        <trkpt lat="29.767044" lon="103.443809"><ele>1072.0516</ele><time>2026-04-20T19:45:01.000Z</time></trkpt>
        <trkpt lat="29.767007" lon="103.443771"><ele>1072.861</ele><time>2026-04-20T19:45:06.000Z</time></trkpt>
        <trkpt lat="29.76697" lon="103.443717"><ele>1074.3195</ele><time>2026-04-20T19:45:12.000Z</time></trkpt>
        <trkpt lat="29.766936" lon="103.44366"><ele>1075.5862</ele><time>2026-04-20T19:45:18.000Z</time></trkpt>
        <trkpt lat="29.76691" lon="103.443613"><ele>1077.2736</ele><time>2026-04-20T19:45:25.000Z</time></trkpt>
        <trkpt lat="29.766868" lon="103.443572"><ele>1077.7559</ele><time>2026-04-20T19:45:32.000Z</time></trkpt>
        <trkpt lat="29.766818" lon="103.443567"><ele>1078.2491</ele><time>2026-04-20T19:45:44.000Z</time></trkpt>
        <trkpt lat="29.766782" lon="103.443535"><ele>1078.6389</ele><time>2026-04-20T19:45:58.000Z</time></trkpt>
        <trkpt lat="29.766744" lon="103.443506"><ele>1080.2065</ele><time>2026-04-20T19:46:02.000Z</time></trkpt>
        <trkpt lat="29.766693" lon="103.443487"><ele>1079.6129</ele><time>2026-04-20T19:46:10.000Z</time></trkpt>
        <trkpt lat="29.766653" lon="103.443456"><ele>1079.8586</ele><time>2026-04-20T19:46:13.000Z</time></trkpt>
        <trkpt lat="29.766614" lon="103.443414"><ele>1079.3851</ele><time>2026-04-20T19:46:18.000Z</time></trkpt>
        <trkpt lat="29.7666" lon="103.443357"><ele>1079.475</ele><time>2026-04-20T19:46:24.000Z</time></trkpt>
        <trkpt lat="29.766584" lon="103.443297"><ele>1082.6517</ele><time>2026-04-20T19:46:29.000Z</time></trkpt>
        <trkpt lat="29.76656" lon="103.443243"><ele>1082.9622</ele><time>2026-04-20T19:46:33.000Z</time></trkpt>
        <trkpt lat="29.766555" lon="103.443181"><ele>1084.6006</ele><time>2026-04-20T19:46:39.000Z</time></trkpt>
        <trkpt lat="29.766513" lon="103.443124"><ele>1084.0358</ele><time>2026-04-20T19:46:45.000Z</time></trkpt>
        <trkpt lat="29.766492" lon="103.44307"><ele>1084.7157</ele><time>2026-04-20T19:46:49.000Z</time></trkpt>
        <trkpt lat="29.766459" lon="103.443025"><ele>1085.9884</ele><time>2026-04-20T19:46:59.000Z</time></trkpt>
        <trkpt lat="29.766428" lon="103.442971"><ele>1086.2115</ele><time>2026-04-20T19:47:02.000Z</time></trkpt>
        <trkpt lat="29.766373" lon="103.442964"><ele>1085.9873</ele><time>2026-04-20T19:47:12.000Z</time></trkpt>
        <trkpt lat="29.76632" lon="103.442928"><ele>1089.4906</ele><time>2026-04-20T19:47:19.000Z</time></trkpt>
        <trkpt lat="29.766279" lon="103.442903"><ele>1090.8931</ele><time>2026-04-20T19:47:23.000Z</time></trkpt>
        <trkpt lat="29.766253" lon="103.442851"><ele>1090.232</ele><time>2026-04-20T19:47:27.000Z</time></trkpt>
        <trkpt lat="29.766226" lon="103.442808"><ele>1091.2812</ele><time>2026-04-20T19:47:31.000Z</time></trkpt>
        <trkpt lat="29.7662" lon="103.442765"><ele>1091.967</ele><time>2026-04-20T19:47:37.000Z</time></trkpt>
        <trkpt lat="29.76616" lon="103.442737"><ele>1093.5631</ele><time>2026-04-20T19:47:42.000Z</time></trkpt>
        <trkpt lat="29.766123" lon="103.442677"><ele>1092.7313</ele><time>2026-04-20T19:47:48.000Z</time></trkpt>
        <trkpt lat="29.766087" lon="103.44263"><ele>1092.171</ele><time>2026-04-20T19:47:53.000Z</time></trkpt>
        <trkpt lat="29.766046" lon="103.442599"><ele>1092.9469</ele><time>2026-04-20T19:47:57.000Z</time></trkpt>
        <trkpt lat="29.766014" lon="103.442543"><ele>1093.8209</ele><time>2026-04-20T19:48:02.000Z</time></trkpt>
        <trkpt lat="29.765973" lon="103.442504"><ele>1094.5656</ele><time>2026-04-20T19:48:11.000Z</time></trkpt>
        <trkpt lat="29.765945" lon="103.442452"><ele>1094.2303</ele><time>2026-04-20T19:48:17.000Z</time></trkpt>
        <trkpt lat="29.765917" lon="103.442387"><ele>1094.4878</ele><time>2026-04-20T19:48:21.000Z</time></trkpt>
        <trkpt lat="29.765892" lon="103.442334"><ele>1095.7524</ele><time>2026-04-20T19:48:26.000Z</time></trkpt>
        <trkpt lat="29.765855" lon="103.442282"><ele>1095.9034</ele><time>2026-04-20T19:48:35.000Z</time></trkpt>
        <trkpt lat="29.765807" lon="103.442279"><ele>1095.5208</ele><time>2026-04-20T19:48:40.000Z</time></trkpt>
        <trkpt lat="29.765757" lon="103.44228"><ele>1092.247</ele><time>2026-04-20T19:48:51.000Z</time></trkpt>
        <trkpt lat="29.765712" lon="103.442272"><ele>1092.448</ele><time>2026-04-20T19:48:55.000Z</time></trkpt>
        <trkpt lat="29.765644" lon="103.442237"><ele>1091.3972</ele><time>2026-04-20T19:49:01.000Z</time></trkpt>
        <trkpt lat="29.765598" lon="103.442197"><ele>1090.5416</ele><time>2026-04-20T19:49:07.000Z</time></trkpt>
        <trkpt lat="29.765555" lon="103.442158"><ele>1089.1976</ele><time>2026-04-20T19:49:13.000Z</time></trkpt>
        <trkpt lat="29.765519" lon="103.442115"><ele>1090.0624</ele><time>2026-04-20T19:49:18.000Z</time></trkpt>
        <trkpt lat="29.765488" lon="103.442057"><ele>1090.3495</ele><time>2026-04-20T19:49:24.000Z</time></trkpt>
        <trkpt lat="29.765465" lon="103.442002"><ele>1091.4626</ele><time>2026-04-20T19:49:28.000Z</time></trkpt>
        <trkpt lat="29.765444" lon="103.441943"><ele>1091.3962</ele><time>2026-04-20T19:49:33.000Z</time></trkpt>
        <trkpt lat="29.76542" lon="103.441896"><ele>1092.7102</ele><time>2026-04-20T19:49:36.000Z</time></trkpt>
        <trkpt lat="29.765442" lon="103.441849"><ele>1093.1318</ele><time>2026-04-20T19:50:16.000Z</time></trkpt>
        <trkpt lat="29.765441" lon="103.441791"><ele>1089.6174</ele><time>2026-04-20T19:50:26.000Z</time></trkpt>
        <trkpt lat="29.765391" lon="103.441737"><ele>1090.3236</ele><time>2026-04-20T19:50:29.000Z</time></trkpt>
        <trkpt lat="29.765353" lon="103.441686"><ele>1090.857</ele><time>2026-04-20T19:50:33.000Z</time></trkpt>
        <trkpt lat="29.765304" lon="103.441646"><ele>1092.7803</ele><time>2026-04-20T19:50:38.000Z</time></trkpt>
        <trkpt lat="29.765266" lon="103.441611"><ele>1094.4802</ele><time>2026-04-20T19:50:42.000Z</time></trkpt>
        <trkpt lat="29.765254" lon="103.441554"><ele>1096.1984</ele><time>2026-04-20T19:50:48.000Z</time></trkpt>
        <trkpt lat="29.765235" lon="103.441498"><ele>1097.4152</ele><time>2026-04-20T19:50:53.000Z</time></trkpt>
        <trkpt lat="29.765202" lon="103.441439"><ele>1097.21</ele><time>2026-04-20T19:50:58.000Z</time></trkpt>
        <trkpt lat="29.765177" lon="103.441389"><ele>1096.7953</ele><time>2026-04-20T19:51:02.000Z</time></trkpt>
        <trkpt lat="29.765149" lon="103.441343"><ele>1096.0325</ele><time>2026-04-20T19:51:07.000Z</time></trkpt>
        <trkpt lat="29.765117" lon="103.441295"><ele>1097.0386</ele><time>2026-04-20T19:51:11.000Z</time></trkpt>
        <trkpt lat="29.76509" lon="103.441248"><ele>1098.6564</ele><time>2026-04-20T19:51:15.000Z</time></trkpt>
        <trkpt lat="29.765078" lon="103.441195"><ele>1097.9287</ele><time>2026-04-20T19:51:19.000Z</time></trkpt>
        <trkpt lat="29.765161" lon="103.441131"><ele>1110.4358</ele><time>2026-04-20T19:51:38.000Z</time></trkpt>
        <trkpt lat="29.765112" lon="103.441103"><ele>1111.8906</ele><time>2026-04-20T19:51:41.000Z</time></trkpt>
        <trkpt lat="29.765062" lon="103.441096"><ele>1110.9535</ele><time>2026-04-20T19:52:15.000Z</time></trkpt>
        <trkpt lat="29.765031" lon="103.441053"><ele>1109.7452</ele><time>2026-04-20T19:52:23.000Z</time></trkpt>
        <trkpt lat="29.765018" lon="103.440999"><ele>1110.1602</ele><time>2026-04-20T19:52:29.000Z</time></trkpt>
        <trkpt lat="29.765005" lon="103.440938"><ele>1109.7214</ele><time>2026-04-20T19:52:35.000Z</time></trkpt>
        <trkpt lat="29.764987" lon="103.440884"><ele>1104.7747</ele><time>2026-04-20T19:52:41.000Z</time></trkpt>
        <trkpt lat="29.764953" lon="103.44084"><ele>1102.5911</ele><time>2026-04-20T19:52:48.000Z</time></trkpt>
        <trkpt lat="29.764938" lon="103.440778"><ele>1101.2827</ele><time>2026-04-20T19:52:53.000Z</time></trkpt>
        <trkpt lat="29.764937" lon="103.440726"><ele>1099.5848</ele><time>2026-04-20T19:52:59.000Z</time></trkpt>
        <trkpt lat="29.764911" lon="103.440674"><ele>1098.9679</ele><time>2026-04-20T19:53:04.000Z</time></trkpt>
        <trkpt lat="29.764906" lon="103.440622"><ele>1100.9801</ele><time>2026-04-20T19:53:09.000Z</time></trkpt>
        <trkpt lat="29.76489" lon="103.440551"><ele>1101.4331</ele><time>2026-04-20T19:53:14.000Z</time></trkpt>
        <trkpt lat="29.764891" lon="103.440498"><ele>1107.7821</ele><time>2026-04-20T19:53:57.000Z</time></trkpt>
        <trkpt lat="29.764851" lon="103.440462"><ele>1105.7086</ele><time>2026-04-20T19:54:01.000Z</time></trkpt>
        <trkpt lat="29.764822" lon="103.44042"><ele>1105.1755</ele><time>2026-04-20T19:54:04.000Z</time></trkpt>
        <trkpt lat="29.764789" lon="103.440371"><ele>1103.7695</ele><time>2026-04-20T19:54:08.000Z</time></trkpt>
        <trkpt lat="29.764768" lon="103.440321"><ele>1103.3585</ele><time>2026-04-20T19:54:11.000Z</time></trkpt>
        <trkpt lat="29.764726" lon="103.440284"><ele>1101.8474</ele><time>2026-04-20T19:54:18.000Z</time></trkpt>
        <trkpt lat="29.764704" lon="103.440229"><ele>1100.9117</ele><time>2026-04-20T19:54:22.000Z</time></trkpt>
        <trkpt lat="29.764696" lon="103.440171"><ele>1100.9265</ele><time>2026-04-20T19:54:25.000Z</time></trkpt>
        <trkpt lat="29.764674" lon="103.440117"><ele>1100.8823</ele><time>2026-04-20T19:54:32.000Z</time></trkpt>
        <trkpt lat="29.764657" lon="103.440066"><ele>1101.5312</ele><time>2026-04-20T19:54:36.000Z</time></trkpt>
        <trkpt lat="29.764633" lon="103.440009"><ele>1101.6</ele><time>2026-04-20T19:54:41.000Z</time></trkpt>
        <trkpt lat="29.764624" lon="103.439951"><ele>1102.3627</ele><time>2026-04-20T19:54:46.000Z</time></trkpt>
        <trkpt lat="29.764604" lon="103.439902"><ele>1101.6359</ele><time>2026-04-20T19:54:51.000Z</time></trkpt>
        <trkpt lat="29.764586" lon="103.439851"><ele>1101.5223</ele><time>2026-04-20T19:54:56.000Z</time></trkpt>
        <trkpt lat="29.764567" lon="103.439801"><ele>1101.8273</ele><time>2026-04-20T19:55:01.000Z</time></trkpt>
        <trkpt lat="29.764562" lon="103.439742"><ele>1101.9265</ele><time>2026-04-20T19:55:06.000Z</time></trkpt>
        <trkpt lat="29.764537" lon="103.439696"><ele>1102.7728</ele><time>2026-04-20T19:55:10.000Z</time></trkpt>
        <trkpt lat="29.764515" lon="103.439647"><ele>1103.1888</ele><time>2026-04-20T19:55:14.000Z</time></trkpt>
        <trkpt lat="29.764513" lon="103.43958"><ele>1103.0375</ele><time>2026-04-20T19:55:20.000Z</time></trkpt>
        <trkpt lat="29.764495" lon="103.439526"><ele>1103.8676</ele><time>2026-04-20T19:55:27.000Z</time></trkpt>
        <trkpt lat="29.764473" lon="103.439471"><ele>1103.4851</ele><time>2026-04-20T19:55:31.000Z</time></trkpt>
        <trkpt lat="29.764438" lon="103.439415"><ele>1102.7458</ele><time>2026-04-20T19:55:38.000Z</time></trkpt>
        <trkpt lat="29.764419" lon="103.439353"><ele>1103.2958</ele><time>2026-04-20T19:55:44.000Z</time></trkpt>
        <trkpt lat="29.764406" lon="103.439301"><ele>1103.6083</ele><time>2026-04-20T19:55:49.000Z</time></trkpt>
        <trkpt lat="29.764405" lon="103.439241"><ele>1104.0134</ele><time>2026-04-20T19:55:53.000Z</time></trkpt>
        <trkpt lat="29.764399" lon="103.439178"><ele>1104.7402</ele><time>2026-04-20T19:55:58.000Z</time></trkpt>
        <trkpt lat="29.76438" lon="103.439128"><ele>1104.491</ele><time>2026-04-20T19:56:03.000Z</time></trkpt>
        <trkpt lat="29.764361" lon="103.439072"><ele>1105.478</ele><time>2026-04-20T19:56:06.000Z</time></trkpt>
        <trkpt lat="29.764331" lon="103.439018"><ele>1104.3285</ele><time>2026-04-20T19:56:11.000Z</time></trkpt>
        <trkpt lat="29.76431" lon="103.438956"><ele>1103.7377</ele><time>2026-04-20T19:56:18.000Z</time></trkpt>
        <trkpt lat="29.76428" lon="103.438891"><ele>1103.3347</ele><time>2026-04-20T19:56:24.000Z</time></trkpt>
        <trkpt lat="29.764262" lon="103.438841"><ele>1103.0913</ele><time>2026-04-20T19:56:28.000Z</time></trkpt>
        <trkpt lat="29.764252" lon="103.43879"><ele>1103.0695</ele><time>2026-04-20T19:56:32.000Z</time></trkpt>
        <trkpt lat="29.764246" lon="103.438736"><ele>1102.5793</ele><time>2026-04-20T19:56:36.000Z</time></trkpt>
        <trkpt lat="29.764216" lon="103.438682"><ele>1102.9185</ele><time>2026-04-20T19:56:40.000Z</time></trkpt>
        <trkpt lat="29.764197" lon="103.438617"><ele>1102.2979</ele><time>2026-04-20T19:56:45.000Z</time></trkpt>
        <trkpt lat="29.764172" lon="103.438555"><ele>1103.5338</ele><time>2026-04-20T19:56:50.000Z</time></trkpt>
        <trkpt lat="29.764149" lon="103.438488"><ele>1102.4432</ele><time>2026-04-20T19:56:56.000Z</time></trkpt>
        <trkpt lat="29.764128" lon="103.43843"><ele>1102.8804</ele><time>2026-04-20T19:57:00.000Z</time></trkpt>
        <trkpt lat="29.764103" lon="103.438381"><ele>1103.0042</ele><time>2026-04-20T19:57:03.000Z</time></trkpt>
        <trkpt lat="29.764065" lon="103.438332"><ele>1102.06</ele><time>2026-04-20T19:57:08.000Z</time></trkpt>
        <trkpt lat="29.764018" lon="103.438291"><ele>1100.598</ele><time>2026-04-20T19:57:14.000Z</time></trkpt>
        <trkpt lat="29.763992" lon="103.438241"><ele>1100.5391</ele><time>2026-04-20T19:57:17.000Z</time></trkpt>
        <trkpt lat="29.763974" lon="103.438191"><ele>1101.125</ele><time>2026-04-20T19:57:21.000Z</time></trkpt>
        <trkpt lat="29.763945" lon="103.438129"><ele>1099.9822</ele><time>2026-04-20T19:57:27.000Z</time></trkpt>
        <trkpt lat="29.763909" lon="103.438088"><ele>1099.2731</ele><time>2026-04-20T19:57:31.000Z</time></trkpt>
        <trkpt lat="29.76387" lon="103.438059"><ele>1098.6125</ele><time>2026-04-20T19:57:35.000Z</time></trkpt>
        <trkpt lat="29.763824" lon="103.438016"><ele>1097.7689</ele><time>2026-04-20T19:57:40.000Z</time></trkpt>
        <trkpt lat="29.763808" lon="103.437961"><ele>1098.2855</ele><time>2026-04-20T19:57:44.000Z</time></trkpt>
        <trkpt lat="29.763824" lon="103.437912"><ele>1095.3821</ele><time>2026-04-20T19:57:52.000Z</time></trkpt>
        <trkpt lat="29.763803" lon="103.437863"><ele>1096.5082</ele><time>2026-04-20T19:57:56.000Z</time></trkpt>
        <trkpt lat="29.76379" lon="103.437804"><ele>1096.2413</ele><time>2026-04-20T19:58:01.000Z</time></trkpt>
        <trkpt lat="29.763757" lon="103.43776"><ele>1094.9739</ele><time>2026-04-20T19:58:06.000Z</time></trkpt>
        <trkpt lat="29.763728" lon="103.437708"><ele>1095.4824</ele><time>2026-04-20T19:58:09.000Z</time></trkpt>
        <trkpt lat="29.763694" lon="103.43766"><ele>1094.5542</ele><time>2026-04-20T19:58:13.000Z</time></trkpt>
        <trkpt lat="29.763661" lon="103.43761"><ele>1092.626</ele><time>2026-04-20T19:58:19.000Z</time></trkpt>
        <trkpt lat="29.763611" lon="103.437549"><ele>1091.7999</ele><time>2026-04-20T19:58:24.000Z</time></trkpt>
        <trkpt lat="29.763579" lon="103.437488"><ele>1092.2516</ele><time>2026-04-20T19:58:31.000Z</time></trkpt>
        <trkpt lat="29.763559" lon="103.437436"><ele>1092.1808</ele><time>2026-04-20T19:58:37.000Z</time></trkpt>
        <trkpt lat="29.763539" lon="103.437384"><ele>1092.5593</ele><time>2026-04-20T19:58:41.000Z</time></trkpt>
        <trkpt lat="29.763518" lon="103.437334"><ele>1091.9683</ele><time>2026-04-20T19:58:47.000Z</time></trkpt>
        <trkpt lat="29.763483" lon="103.43728"><ele>1092.2377</ele><time>2026-04-20T19:58:52.000Z</time></trkpt>
        <trkpt lat="29.763466" lon="103.437207"><ele>1092.5792</ele><time>2026-04-20T19:58:55.000Z</time></trkpt>
        <trkpt lat="29.763454" lon="103.437145"><ele>1092.0623</ele><time>2026-04-20T19:59:00.000Z</time></trkpt>
        <trkpt lat="29.763426" lon="103.437097"><ele>1092.0461</ele><time>2026-04-20T19:59:06.000Z</time></trkpt>
        <trkpt lat="29.763423" lon="103.437026"><ele>1092.6224</ele><time>2026-04-20T19:59:10.000Z</time></trkpt>
        <trkpt lat="29.763406" lon="103.436958"><ele>1091.6312</ele><time>2026-04-20T19:59:14.000Z</time></trkpt>
        <trkpt lat="29.763393" lon="103.436898"><ele>1091.4098</ele><time>2026-04-20T19:59:17.000Z</time></trkpt>
        <trkpt lat="29.763379" lon="103.436843"><ele>1089.765</ele><time>2026-04-20T19:59:22.000Z</time></trkpt>
        <trkpt lat="29.763397" lon="103.436794"><ele>1088.7999</ele><time>2026-04-20T19:59:27.000Z</time></trkpt>
        <trkpt lat="29.763391" lon="103.436738"><ele>1088.3043</ele><time>2026-04-20T19:59:29.000Z</time></trkpt>
        <trkpt lat="29.763374" lon="103.436678"><ele>1088.2275</ele><time>2026-04-20T19:59:35.000Z</time></trkpt>
        <trkpt lat="29.763336" lon="103.436635"><ele>1087.6467</ele><time>2026-04-20T19:59:41.000Z</time></trkpt>
        <trkpt lat="29.763334" lon="103.436548"><ele>1086.1432</ele><time>2026-04-20T19:59:46.000Z</time></trkpt>
        <trkpt lat="29.763276" lon="103.436506"><ele>1079.2886</ele><time>2026-04-20T20:00:03.000Z</time></trkpt>
        <trkpt lat="29.763247" lon="103.43646"><ele>1077.2847</ele><time>2026-04-20T20:00:07.000Z</time></trkpt>
        <trkpt lat="29.763228" lon="103.43641"><ele>1076.5435</ele><time>2026-04-20T20:00:09.000Z</time></trkpt>
        <trkpt lat="29.763265" lon="103.436338"><ele>1074.5065</ele><time>2026-04-20T20:00:19.000Z</time></trkpt>
        <trkpt lat="29.763256" lon="103.436271"><ele>1074.3064</ele><time>2026-04-20T20:00:32.000Z</time></trkpt>
        <trkpt lat="29.763258" lon="103.436213"><ele>1076.2263</ele><time>2026-04-20T20:00:40.000Z</time></trkpt>
        <trkpt lat="29.763265" lon="103.436153"><ele>1081.301</ele><time>2026-04-20T20:00:44.000Z</time></trkpt>
        <trkpt lat="29.763225" lon="103.436123"><ele>1086.9027</ele><time>2026-04-20T20:00:49.000Z</time></trkpt>
        <trkpt lat="29.76327" lon="103.436087"><ele>1087.8127</ele><time>2026-04-20T20:00:54.000Z</time></trkpt>
        <trkpt lat="29.763261" lon="103.436028"><ele>1090.5814</ele><time>2026-04-20T20:00:59.000Z</time></trkpt>
        <trkpt lat="29.763247" lon="103.435977"><ele>1091.772</ele><time>2026-04-20T20:01:03.000Z</time></trkpt>
        <trkpt lat="29.763228" lon="103.435917"><ele>1091.4886</ele><time>2026-04-20T20:01:08.000Z</time></trkpt>
        <trkpt lat="29.76319" lon="103.435874"><ele>1092.4205</ele><time>2026-04-20T20:01:12.000Z</time></trkpt>
        <trkpt lat="29.763168" lon="103.435811"><ele>1092.9292</ele><time>2026-04-20T20:01:16.000Z</time></trkpt>
        <trkpt lat="29.763135" lon="103.43576"><ele>1094.1124</ele><time>2026-04-20T20:01:20.000Z</time></trkpt>
        <trkpt lat="29.763108" lon="103.435698"><ele>1093.0352</ele><time>2026-04-20T20:01:26.000Z</time></trkpt>
        <trkpt lat="29.763079" lon="103.435632"><ele>1092.1376</ele><time>2026-04-20T20:01:42.000Z</time></trkpt>
        <trkpt lat="29.763077" lon="103.435573"><ele>1089.9196</ele><time>2026-04-20T20:01:47.000Z</time></trkpt>
        <trkpt lat="29.763075" lon="103.435515"><ele>1089.9713</ele><time>2026-04-20T20:01:55.000Z</time></trkpt>
        <trkpt lat="29.763044" lon="103.435474"><ele>1091.0221</ele><time>2026-04-20T20:02:00.000Z</time></trkpt>
        <trkpt lat="29.763013" lon="103.43543"><ele>1089.5961</ele><time>2026-04-20T20:02:04.000Z</time></trkpt>
        <trkpt lat="29.763007" lon="103.435376"><ele>1089.3712</ele><time>2026-04-20T20:02:09.000Z</time></trkpt>
        <trkpt lat="29.762983" lon="103.435315"><ele>1089.541</ele><time>2026-04-20T20:02:14.000Z</time></trkpt>
        <trkpt lat="29.762963" lon="103.435263"><ele>1089.7931</ele><time>2026-04-20T20:02:19.000Z</time></trkpt>
        <trkpt lat="29.762944" lon="103.435208"><ele>1088.7239</ele><time>2026-04-20T20:02:22.000Z</time></trkpt>
        <trkpt lat="29.762927" lon="103.435157"><ele>1088.4604</ele><time>2026-04-20T20:02:25.000Z</time></trkpt>
        <trkpt lat="29.762902" lon="103.435101"><ele>1086.0386</ele><time>2026-04-20T20:02:31.000Z</time></trkpt>
        <trkpt lat="29.762893" lon="103.435047"><ele>1084.6956</ele><time>2026-04-20T20:02:37.000Z</time></trkpt>
        <trkpt lat="29.762853" lon="103.434993"><ele>1086.3289</ele><time>2026-04-20T20:02:46.000Z</time></trkpt>
        <trkpt lat="29.762824" lon="103.434948"><ele>1087.9562</ele><time>2026-04-20T20:02:54.000Z</time></trkpt>
        <trkpt lat="29.762795" lon="103.434992"><ele>1095.8551</ele><time>2026-04-20T20:03:17.000Z</time></trkpt>
        <trkpt lat="29.762795" lon="103.434933"><ele>1102.5347</ele><time>2026-04-20T20:04:01.000Z</time></trkpt>
        <trkpt lat="29.762782" lon="103.434878"><ele>1102.5895</ele><time>2026-04-20T20:05:19.000Z</time></trkpt>
        <trkpt lat="29.762767" lon="103.434826"><ele>1104.3171</ele><time>2026-04-20T20:05:51.000Z</time></trkpt>
        <trkpt lat="29.762787" lon="103.434778"><ele>1097.6926</ele><time>2026-04-20T20:13:05.000Z</time></trkpt>
        <trkpt lat="29.762783" lon="103.434725"><ele>1086.8014</ele><time>2026-04-20T20:13:26.000Z</time></trkpt>
        <trkpt lat="29.762751" lon="103.434689"><ele>1085.7368</ele><time>2026-04-20T20:13:30.000Z</time></trkpt>
        <trkpt lat="29.762721" lon="103.434633"><ele>1085.9609</ele><time>2026-04-20T20:13:35.000Z</time></trkpt>
        <trkpt lat="29.762692" lon="103.434588"><ele>1087.2151</ele><time>2026-04-20T20:13:39.000Z</time></trkpt>
        <trkpt lat="29.762672" lon="103.434535"><ele>1086.8109</ele><time>2026-04-20T20:13:42.000Z</time></trkpt>
        <trkpt lat="29.762675" lon="103.434451"><ele>1086.6897</ele><time>2026-04-20T20:13:45.000Z</time></trkpt>
        <trkpt lat="29.76267" lon="103.434366"><ele>1086.0599</ele><time>2026-04-20T20:13:48.000Z</time></trkpt>
        <trkpt lat="29.762657" lon="103.434306"><ele>1085.0038</ele><time>2026-04-20T20:13:50.000Z</time></trkpt>
        <trkpt lat="29.76262" lon="103.434263"><ele>1083.1301</ele><time>2026-04-20T20:13:58.000Z</time></trkpt>
        <trkpt lat="29.762586" lon="103.434207"><ele>1082.7019</ele><time>2026-04-20T20:14:04.000Z</time></trkpt>
        <trkpt lat="29.762583" lon="103.434156"><ele>1078.9833</ele><time>2026-04-20T20:14:14.000Z</time></trkpt>
        <trkpt lat="29.762591" lon="103.434099"><ele>1078.9049</ele><time>2026-04-20T20:14:23.000Z</time></trkpt>
        <trkpt lat="29.762593" lon="103.434044"><ele>1078.0168</ele><time>2026-04-20T20:14:29.000Z</time></trkpt>
        <trkpt lat="29.762562" lon="103.434004"><ele>1078.5753</ele><time>2026-04-20T20:14:32.000Z</time></trkpt>
        <trkpt lat="29.762551" lon="103.433937"><ele>1077.1211</ele><time>2026-04-20T20:14:38.000Z</time></trkpt>
        <trkpt lat="29.762561" lon="103.433883"><ele>1077.4008</ele><time>2026-04-20T20:14:45.000Z</time></trkpt>
        <trkpt lat="29.762523" lon="103.433836"><ele>1068.689</ele><time>2026-04-20T20:15:44.000Z</time></trkpt>
        <trkpt lat="29.762524" lon="103.433781"><ele>1070.1215</ele><time>2026-04-20T20:15:47.000Z</time></trkpt>
        <trkpt lat="29.762499" lon="103.433731"><ele>1069.5239</ele><time>2026-04-20T20:15:53.000Z</time></trkpt>
        <trkpt lat="29.762475" lon="103.433684"><ele>1068.4526</ele><time>2026-04-20T20:15:57.000Z</time></trkpt>
        <trkpt lat="29.762429" lon="103.433628"><ele>1069.9053</ele><time>2026-04-20T20:16:14.000Z</time></trkpt>
        <trkpt lat="29.762383" lon="103.433637"><ele>1071.0735</ele><time>2026-04-20T20:16:20.000Z</time></trkpt>
        <trkpt lat="29.762369" lon="103.433584"><ele>1071.7762</ele><time>2026-04-20T20:16:25.000Z</time></trkpt>
        <trkpt lat="29.762359" lon="103.433531"><ele>1071.2362</ele><time>2026-04-20T20:16:31.000Z</time></trkpt>
        <trkpt lat="29.762349" lon="103.433481"><ele>1071.7217</ele><time>2026-04-20T20:16:40.000Z</time></trkpt>
        <trkpt lat="29.762342" lon="103.433419"><ele>1072.007</ele><time>2026-04-20T20:16:43.000Z</time></trkpt>
        <trkpt lat="29.762314" lon="103.433374"><ele>1072.3325</ele><time>2026-04-20T20:16:52.000Z</time></trkpt>
        <trkpt lat="29.762289" lon="103.433327"><ele>1071.5493</ele><time>2026-04-20T20:17:03.000Z</time></trkpt>
        <trkpt lat="29.762266" lon="103.433282"><ele>1070.8702</ele><time>2026-04-20T20:17:11.000Z</time></trkpt>
        <trkpt lat="29.762227" lon="103.433244"><ele>1069.4644</ele><time>2026-04-20T20:17:18.000Z</time></trkpt>
        <trkpt lat="29.762191" lon="103.433202"><ele>1071.7103</ele><time>2026-04-20T20:17:24.000Z</time></trkpt>
        <trkpt lat="29.76218" lon="103.433146"><ele>1072.0428</ele><time>2026-04-20T20:17:28.000Z</time></trkpt>
        <trkpt lat="29.762177" lon="103.433093"><ele>1071.7219</ele><time>2026-04-20T20:17:32.000Z</time></trkpt>
        <trkpt lat="29.762156" lon="103.433045"><ele>1071.3427</ele><time>2026-04-20T20:17:36.000Z</time></trkpt>
        <trkpt lat="29.762114" lon="103.433004"><ele>1071.8335</ele><time>2026-04-20T20:17:40.000Z</time></trkpt>
        <trkpt lat="29.762068" lon="103.43299"><ele>1072.9404</ele><time>2026-04-20T20:17:47.000Z</time></trkpt>
        <trkpt lat="29.76203" lon="103.432957"><ele>1073.5796</ele><time>2026-04-20T20:17:53.000Z</time></trkpt>
        <trkpt lat="29.762" lon="103.432917"><ele>1074.8286</ele><time>2026-04-20T20:17:58.000Z</time></trkpt>
        <trkpt lat="29.76198" lon="103.432866"><ele>1075.0771</ele><time>2026-04-20T20:18:03.000Z</time></trkpt>
        <trkpt lat="29.761955" lon="103.432822"><ele>1074.7037</ele><time>2026-04-20T20:18:08.000Z</time></trkpt>
        <trkpt lat="29.761919" lon="103.432786"><ele>1073.3281</ele><time>2026-04-20T20:18:14.000Z</time></trkpt>
        <trkpt lat="29.761898" lon="103.432737"><ele>1072.9515</ele><time>2026-04-20T20:18:19.000Z</time></trkpt>
        <trkpt lat="29.761875" lon="103.432691"><ele>1073.1847</ele><time>2026-04-20T20:18:26.000Z</time></trkpt>
        <trkpt lat="29.761828" lon="103.432684"><ele>1072.9785</ele><time>2026-04-20T20:18:31.000Z</time></trkpt>
        <trkpt lat="29.761783" lon="103.432654"><ele>1072.1399</ele><time>2026-04-20T20:18:36.000Z</time></trkpt>
        <trkpt lat="29.761769" lon="103.432604"><ele>1070.3618</ele><time>2026-04-20T20:18:42.000Z</time></trkpt>
        <trkpt lat="29.761734" lon="103.432555"><ele>1071.6036</ele><time>2026-04-20T20:18:46.000Z</time></trkpt>
        <trkpt lat="29.761694" lon="103.43251"><ele>1070.9312</ele><time>2026-04-20T20:18:51.000Z</time></trkpt>
        <trkpt lat="29.761676" lon="103.43246"><ele>1069.9153</ele><time>2026-04-20T20:18:56.000Z</time></trkpt>
        <trkpt lat="29.761654" lon="103.432414"><ele>1071.3232</ele><time>2026-04-20T20:19:03.000Z</time></trkpt>
        <trkpt lat="29.761626" lon="103.432372"><ele>1073.4288</ele><time>2026-04-20T20:19:09.000Z</time></trkpt>
        <trkpt lat="29.761587" lon="103.432335"><ele>1073.9376</ele><time>2026-04-20T20:19:15.000Z</time></trkpt>
        <trkpt lat="29.761541" lon="103.432349"><ele>1074.4994</ele><time>2026-04-20T20:19:19.000Z</time></trkpt>
        <trkpt lat="29.761508" lon="103.432313"><ele>1073.6293</ele><time>2026-04-20T20:19:24.000Z</time></trkpt>
        <trkpt lat="29.761492" lon="103.432261"><ele>1073.372</ele><time>2026-04-20T20:19:29.000Z</time></trkpt>
        <trkpt lat="29.761477" lon="103.432204"><ele>1073.787</ele><time>2026-04-20T20:19:35.000Z</time></trkpt>
        <trkpt lat="29.761446" lon="103.432161"><ele>1073.6526</ele><time>2026-04-20T20:19:43.000Z</time></trkpt>
        <trkpt lat="29.761412" lon="103.432118"><ele>1073.4661</ele><time>2026-04-20T20:19:51.000Z</time></trkpt>
        <trkpt lat="29.761415" lon="103.432059"><ele>1074.1562</ele><time>2026-04-20T20:19:57.000Z</time></trkpt>
        <trkpt lat="29.761438" lon="103.432013"><ele>1073.9352</ele><time>2026-04-20T20:20:03.000Z</time></trkpt>
        <trkpt lat="29.761479" lon="103.431987"><ele>1076.4893</ele><time>2026-04-20T20:20:48.000Z</time></trkpt>
        <trkpt lat="29.761427" lon="103.432014"><ele>1084.0756</ele><time>2026-04-20T20:21:17.000Z</time></trkpt>
        <trkpt lat="29.76139" lon="103.431975"><ele>1078.4161</ele><time>2026-04-20T20:21:53.000Z</time></trkpt>
        <trkpt lat="29.76135" lon="103.431941"><ele>1077.652</ele><time>2026-04-20T20:21:58.000Z</time></trkpt>
        <trkpt lat="29.761302" lon="103.431886"><ele>1076.1842</ele><time>2026-04-20T20:22:06.000Z</time></trkpt>
        <trkpt lat="29.761273" lon="103.431838"><ele>1076.7362</ele><time>2026-04-20T20:22:11.000Z</time></trkpt>
        <trkpt lat="29.761253" lon="103.431791"><ele>1075.869</ele><time>2026-04-20T20:22:15.000Z</time></trkpt>
        <trkpt lat="29.761207" lon="103.431771"><ele>1077.663</ele><time>2026-04-20T20:22:21.000Z</time></trkpt>
        <trkpt lat="29.761185" lon="103.431724"><ele>1077.79</ele><time>2026-04-20T20:22:26.000Z</time></trkpt>
        <trkpt lat="29.761162" lon="103.431678"><ele>1077.5677</ele><time>2026-04-20T20:22:31.000Z</time></trkpt>
        <trkpt lat="29.761132" lon="103.431627"><ele>1078.4321</ele><time>2026-04-20T20:22:35.000Z</time></trkpt>
        <trkpt lat="29.761091" lon="103.431575"><ele>1078.365</ele><time>2026-04-20T20:22:39.000Z</time></trkpt>
        <trkpt lat="29.761072" lon="103.431519"><ele>1078.32</ele><time>2026-04-20T20:22:43.000Z</time></trkpt>
        <trkpt lat="29.761044" lon="103.431469"><ele>1078.5276</ele><time>2026-04-20T20:22:47.000Z</time></trkpt>
        <trkpt lat="29.761005" lon="103.431428"><ele>1078.6583</ele><time>2026-04-20T20:22:52.000Z</time></trkpt>
        <trkpt lat="29.76098" lon="103.431384"><ele>1080.0865</ele><time>2026-04-20T20:22:55.000Z</time></trkpt>
        <trkpt lat="29.760961" lon="103.431329"><ele>1080.0862</ele><time>2026-04-20T20:22:59.000Z</time></trkpt>
        <trkpt lat="29.760928" lon="103.431288"><ele>1081.5504</ele><time>2026-04-20T20:23:03.000Z</time></trkpt>
        <trkpt lat="29.760879" lon="103.431231"><ele>1083.6913</ele><time>2026-04-20T20:23:09.000Z</time></trkpt>
        <trkpt lat="29.76083" lon="103.431246"><ele>1088.1567</ele><time>2026-04-20T20:23:24.000Z</time></trkpt>
        <trkpt lat="29.7608" lon="103.431205"><ele>1087.6606</ele><time>2026-04-20T20:23:28.000Z</time></trkpt>
        <trkpt lat="29.760764" lon="103.43117"><ele>1086.9009</ele><time>2026-04-20T20:23:31.000Z</time></trkpt>
        <trkpt lat="29.760737" lon="103.431216"><ele>1086.8805</ele><time>2026-04-20T20:23:36.000Z</time></trkpt>
        <trkpt lat="29.760691" lon="103.431211"><ele>1088.3186</ele><time>2026-04-20T20:23:40.000Z</time></trkpt>
        <trkpt lat="29.760663" lon="103.431144"><ele>1085.8483</ele><time>2026-04-20T20:23:46.000Z</time></trkpt>
        <trkpt lat="29.760642" lon="103.431096"><ele>1085.421</ele><time>2026-04-20T20:23:50.000Z</time></trkpt>
        <trkpt lat="29.760635" lon="103.431024"><ele>1080.4761</ele><time>2026-04-20T20:24:05.000Z</time></trkpt>
        <trkpt lat="29.76068" lon="103.430991"><ele>1082.4365</ele><time>2026-04-20T20:24:09.000Z</time></trkpt>
        <trkpt lat="29.760646" lon="103.430948"><ele>1086.1652</ele><time>2026-04-20T20:24:14.000Z</time></trkpt>
        <trkpt lat="29.760624" lon="103.430903"><ele>1087.6259</ele><time>2026-04-20T20:24:20.000Z</time></trkpt>
        <trkpt lat="29.76061" lon="103.430849"><ele>1091.3296</ele><time>2026-04-20T20:24:27.000Z</time></trkpt>
        <trkpt lat="29.760631" lon="103.430792"><ele>1093.1228</ele><time>2026-04-20T20:24:34.000Z</time></trkpt>
        <trkpt lat="29.760588" lon="103.430758"><ele>1098.4319</ele><time>2026-04-20T20:24:40.000Z</time></trkpt>
        <trkpt lat="29.760537" lon="103.430733"><ele>1099.0902</ele><time>2026-04-20T20:24:50.000Z</time></trkpt>
        <trkpt lat="29.760524" lon="103.430677"><ele>1101.7659</ele><time>2026-04-20T20:24:55.000Z</time></trkpt>
        <trkpt lat="29.760488" lon="103.430635"><ele>1102.651</ele><time>2026-04-20T20:25:04.000Z</time></trkpt>
        <trkpt lat="29.76048" lon="103.430577"><ele>1103.5358</ele><time>2026-04-20T20:25:12.000Z</time></trkpt>
        <trkpt lat="29.760462" lon="103.430518"><ele>1103.9017</ele><time>2026-04-20T20:25:18.000Z</time></trkpt>
        <trkpt lat="29.760491" lon="103.430456"><ele>1106.1381</ele><time>2026-04-20T20:25:26.000Z</time></trkpt>
        <trkpt lat="29.760467" lon="103.430396"><ele>1110.1984</ele><time>2026-04-20T20:25:41.000Z</time></trkpt>
        <trkpt lat="29.760451" lon="103.430347"><ele>1110.5618</ele><time>2026-04-20T20:25:45.000Z</time></trkpt>
        <trkpt lat="29.760421" lon="103.430308"><ele>1111.9719</ele><time>2026-04-20T20:25:55.000Z</time></trkpt>
        <trkpt lat="29.760376" lon="103.430299"><ele>1111.1545</ele><time>2026-04-20T20:26:02.000Z</time></trkpt>
        <trkpt lat="29.760416" lon="103.430269"><ele>1112.3192</ele><time>2026-04-20T20:26:09.000Z</time></trkpt>
        <trkpt lat="29.760409" lon="103.430213"><ele>1115.2347</ele><time>2026-04-20T20:26:15.000Z</time></trkpt>
        <trkpt lat="29.760405" lon="103.430161"><ele>1118.5491</ele><time>2026-04-20T20:26:22.000Z</time></trkpt>
        <trkpt lat="29.760429" lon="103.430109"><ele>1135.3981</ele><time>2026-04-20T20:27:02.000Z</time></trkpt>
        <trkpt lat="29.760435" lon="103.430052"><ele>1136.8121</ele><time>2026-04-20T20:27:17.000Z</time></trkpt>
        <trkpt lat="29.760458" lon="103.430006"><ele>1143.7003</ele><time>2026-04-20T20:27:32.000Z</time></trkpt>
        <trkpt lat="29.76042" lon="103.429968"><ele>1144.643</ele><time>2026-04-20T20:27:44.000Z</time></trkpt>
        <trkpt lat="29.760383" lon="103.429912"><ele>1146.6427</ele><time>2026-04-20T20:27:50.000Z</time></trkpt>
        <trkpt lat="29.760377" lon="103.429855"><ele>1148.8545</ele><time>2026-04-20T20:27:56.000Z</time></trkpt>
        <trkpt lat="29.760364" lon="103.429928"><ele>1149.1215</ele><time>2026-04-20T20:28:29.000Z</time></trkpt>
        <trkpt lat="29.760336" lon="103.429881"><ele>1151.3398</ele><time>2026-04-20T20:28:51.000Z</time></trkpt>
        <trkpt lat="29.760362" lon="103.429831"><ele>1151.9822</ele><time>2026-04-20T20:29:00.000Z</time></trkpt>
        <trkpt lat="29.760384" lon="103.429766"><ele>1156.7306</ele><time>2026-04-20T20:29:15.000Z</time></trkpt>
        <trkpt lat="29.760384" lon="103.429703"><ele>1162.2866</ele><time>2026-04-20T20:29:31.000Z</time></trkpt>
        <trkpt lat="29.760355" lon="103.429652"><ele>1163.5848</ele><time>2026-04-20T20:29:45.000Z</time></trkpt>
        <trkpt lat="29.760314" lon="103.429611"><ele>1161.6488</ele><time>2026-04-20T20:30:00.000Z</time></trkpt>
        <trkpt lat="29.760301" lon="103.429559"><ele>1166.9219</ele><time>2026-04-20T20:30:23.000Z</time></trkpt>
        <trkpt lat="29.760265" lon="103.42951"><ele>1167.7913</ele><time>2026-04-20T20:30:34.000Z</time></trkpt>
        <trkpt lat="29.760227" lon="103.429468"><ele>1167.1223</ele><time>2026-04-20T20:30:42.000Z</time></trkpt>
        <trkpt lat="29.760193" lon="103.429428"><ele>1166.714</ele><time>2026-04-20T20:30:51.000Z</time></trkpt>
        <trkpt lat="29.76016" lon="103.429376"><ele>1167.587</ele><time>2026-04-20T20:30:55.000Z</time></trkpt>
        <trkpt lat="29.760127" lon="103.429317"><ele>1169.0948</ele><time>2026-04-20T20:31:02.000Z</time></trkpt>
        <trkpt lat="29.760114" lon="103.429263"><ele>1171.2484</ele><time>2026-04-20T20:31:07.000Z</time></trkpt>
        <trkpt lat="29.760102" lon="103.429209"><ele>1174.3239</ele><time>2026-04-20T20:31:13.000Z</time></trkpt>
        <trkpt lat="29.760098" lon="103.429146"><ele>1176.6375</ele><time>2026-04-20T20:31:24.000Z</time></trkpt>
        <trkpt lat="29.760096" lon="103.429082"><ele>1176.5116</ele><time>2026-04-20T20:31:30.000Z</time></trkpt>
        <trkpt lat="29.760084" lon="103.429029"><ele>1176.8816</ele><time>2026-04-20T20:31:34.000Z</time></trkpt>
        <trkpt lat="29.760083" lon="103.428975"><ele>1177.1594</ele><time>2026-04-20T20:31:39.000Z</time></trkpt>
        <trkpt lat="29.760071" lon="103.428919"><ele>1180.908</ele><time>2026-04-20T20:32:16.000Z</time></trkpt>
        <trkpt lat="29.760024" lon="103.428897"><ele>1182.774</ele><time>2026-04-20T20:32:26.000Z</time></trkpt>
        <trkpt lat="29.759992" lon="103.42894"><ele>1183.6417</ele><time>2026-04-20T20:32:33.000Z</time></trkpt>
        <trkpt lat="29.759944" lon="103.428968"><ele>1184.203</ele><time>2026-04-20T20:32:43.000Z</time></trkpt>
        <trkpt lat="29.759886" lon="103.428984"><ele>1186.565</ele><time>2026-04-20T20:33:05.000Z</time></trkpt>
        <trkpt lat="29.759849" lon="103.428953"><ele>1187.2705</ele><time>2026-04-20T20:33:12.000Z</time></trkpt>
        <trkpt lat="29.759823" lon="103.428905"><ele>1185.5394</ele><time>2026-04-20T20:33:18.000Z</time></trkpt>
        <trkpt lat="29.759782" lon="103.428875"><ele>1191.617</ele><time>2026-04-20T20:33:33.000Z</time></trkpt>
        <trkpt lat="29.759764" lon="103.428817"><ele>1191.244</ele><time>2026-04-20T20:33:39.000Z</time></trkpt>
        <trkpt lat="29.759734" lon="103.428768"><ele>1191.6809</ele><time>2026-04-20T20:33:46.000Z</time></trkpt>
        <trkpt lat="29.759706" lon="103.428723"><ele>1190.7705</ele><time>2026-04-20T20:33:50.000Z</time></trkpt>
        <trkpt lat="29.759687" lon="103.428676"><ele>1190.2776</ele><time>2026-04-20T20:33:56.000Z</time></trkpt>
        <trkpt lat="29.759674" lon="103.428617"><ele>1195.8463</ele><time>2026-04-20T20:34:07.000Z</time></trkpt>
        <trkpt lat="29.7597" lon="103.428573"><ele>1194.6718</ele><time>2026-04-20T20:34:14.000Z</time></trkpt>
        <trkpt lat="29.759681" lon="103.428519"><ele>1194.1495</ele><time>2026-04-20T20:34:21.000Z</time></trkpt>
        <trkpt lat="29.759714" lon="103.428482"><ele>1190.045</ele><time>2026-04-20T20:34:31.000Z</time></trkpt>
        <trkpt lat="29.759713" lon="103.428428"><ele>1189.9746</ele><time>2026-04-20T20:34:43.000Z</time></trkpt>
        <trkpt lat="29.759737" lon="103.428383"><ele>1188.0508</ele><time>2026-04-20T20:34:51.000Z</time></trkpt>
        <trkpt lat="29.759762" lon="103.428334"><ele>1187.6165</ele><time>2026-04-20T20:35:01.000Z</time></trkpt>
        <trkpt lat="29.759769" lon="103.428279"><ele>1186.1218</ele><time>2026-04-20T20:35:09.000Z</time></trkpt>
        <trkpt lat="29.759789" lon="103.428224"><ele>1185.7213</ele><time>2026-04-20T20:35:14.000Z</time></trkpt>
        <trkpt lat="29.759765" lon="103.428159"><ele>1186.1151</ele><time>2026-04-20T20:35:18.000Z</time></trkpt>
        <trkpt lat="29.759769" lon="103.428107"><ele>1185.3418</ele><time>2026-04-20T20:35:23.000Z</time></trkpt>
        <trkpt lat="29.759754" lon="103.428056"><ele>1185.0977</ele><time>2026-04-20T20:35:30.000Z</time></trkpt>
        <trkpt lat="29.759719" lon="103.428019"><ele>1188.5189</ele><time>2026-04-20T20:35:39.000Z</time></trkpt>
        <trkpt lat="29.759724" lon="103.427963"><ele>1186.0409</ele><time>2026-04-20T20:35:48.000Z</time></trkpt>
        <trkpt lat="29.759732" lon="103.427911"><ele>1185.029</ele><time>2026-04-20T20:35:54.000Z</time></trkpt>
        <trkpt lat="29.759751" lon="103.427857"><ele>1184.9694</ele><time>2026-04-20T20:35:59.000Z</time></trkpt>
        <trkpt lat="29.759762" lon="103.427792"><ele>1183.8741</ele><time>2026-04-20T20:36:04.000Z</time></trkpt>
        <trkpt lat="29.759759" lon="103.427732"><ele>1183.6613</ele><time>2026-04-20T20:36:08.000Z</time></trkpt>
        <trkpt lat="29.759768" lon="103.427673"><ele>1182.151</ele><time>2026-04-20T20:36:12.000Z</time></trkpt>
        <trkpt lat="29.759763" lon="103.427613"><ele>1179.1368</ele><time>2026-04-20T20:36:16.000Z</time></trkpt>
        <trkpt lat="29.759768" lon="103.427561"><ele>1178.1158</ele><time>2026-04-20T20:36:22.000Z</time></trkpt>
        <trkpt lat="29.759763" lon="103.427501"><ele>1176.641</ele><time>2026-04-20T20:36:26.000Z</time></trkpt>
        <trkpt lat="29.759801" lon="103.427466"><ele>1175.9532</ele><time>2026-04-20T20:36:33.000Z</time></trkpt>
        <trkpt lat="29.759844" lon="103.427423"><ele>1177.5178</ele><time>2026-04-20T20:38:43.000Z</time></trkpt>
        <trkpt lat="29.759842" lon="103.427369"><ele>1173.2926</ele><time>2026-04-20T20:40:37.000Z</time></trkpt>
        <trkpt lat="29.759845" lon="103.42731"><ele>1170.7595</ele><time>2026-04-20T20:40:47.000Z</time></trkpt>
        <trkpt lat="29.75979" lon="103.427303"><ele>1169.8163</ele><time>2026-04-20T20:40:51.000Z</time></trkpt>
        <trkpt lat="29.759765" lon="103.427258"><ele>1168.4907</ele><time>2026-04-20T20:40:59.000Z</time></trkpt>
        <trkpt lat="29.759739" lon="103.427216"><ele>1167.8237</ele><time>2026-04-20T20:41:06.000Z</time></trkpt>
        <trkpt lat="29.759707" lon="103.427169"><ele>1167.5247</ele><time>2026-04-20T20:41:12.000Z</time></trkpt>
        <trkpt lat="29.759672" lon="103.427112"><ele>1167.0212</ele><time>2026-04-20T20:41:18.000Z</time></trkpt>
        <trkpt lat="29.759665" lon="103.42706"><ele>1167.5557</ele><time>2026-04-20T20:41:22.000Z</time></trkpt>
        <trkpt lat="29.759654" lon="103.427006"><ele>1168.3323</ele><time>2026-04-20T20:41:26.000Z</time></trkpt>
        <trkpt lat="29.759654" lon="103.426948"><ele>1171.0972</ele><time>2026-04-20T20:41:30.000Z</time></trkpt>
        <trkpt lat="29.759647" lon="103.426892"><ele>1170.754</ele><time>2026-04-20T20:41:39.000Z</time></trkpt>
        <trkpt lat="29.759626" lon="103.426842"><ele>1170.8013</ele><time>2026-04-20T20:41:46.000Z</time></trkpt>
        <trkpt lat="29.759615" lon="103.426787"><ele>1173.9509</ele><time>2026-04-20T20:41:54.000Z</time></trkpt>
        <trkpt lat="29.759576" lon="103.42675"><ele>1176.4723</ele><time>2026-04-20T20:42:01.000Z</time></trkpt>
        <trkpt lat="29.759559" lon="103.4267"><ele>1177.3107</ele><time>2026-04-20T20:42:06.000Z</time></trkpt>
        <trkpt lat="29.759527" lon="103.426664"><ele>1177.115</ele><time>2026-04-20T20:42:10.000Z</time></trkpt>
        <trkpt lat="29.759503" lon="103.42661"><ele>1177.2955</ele><time>2026-04-20T20:42:15.000Z</time></trkpt>
        <trkpt lat="29.759484" lon="103.42655"><ele>1178.3427</ele><time>2026-04-20T20:42:20.000Z</time></trkpt>
        <trkpt lat="29.759464" lon="103.426498"><ele>1179.8654</ele><time>2026-04-20T20:42:25.000Z</time></trkpt>
        <trkpt lat="29.759449" lon="103.426445"><ele>1180.0181</ele><time>2026-04-20T20:42:29.000Z</time></trkpt>
        <trkpt lat="29.759434" lon="103.426393"><ele>1180.9514</ele><time>2026-04-20T20:42:35.000Z</time></trkpt>
        <trkpt lat="29.759408" lon="103.426345"><ele>1178.8206</ele><time>2026-04-20T20:42:40.000Z</time></trkpt>
        <trkpt lat="29.759369" lon="103.426304"><ele>1179.4028</ele><time>2026-04-20T20:42:45.000Z</time></trkpt>
        <trkpt lat="29.759334" lon="103.426271"><ele>1178.099</ele><time>2026-04-20T20:42:53.000Z</time></trkpt>
        <trkpt lat="29.759289" lon="103.426242"><ele>1171.2205</ele><time>2026-04-20T20:42:58.000Z</time></trkpt>
        <trkpt lat="29.759278" lon="103.426188"><ele>1169.3463</ele><time>2026-04-20T20:43:03.000Z</time></trkpt>
        <trkpt lat="29.759317" lon="103.426143"><ele>1166.7562</ele><time>2026-04-20T20:43:42.000Z</time></trkpt>
        <trkpt lat="29.759344" lon="103.426097"><ele>1168.1993</ele><time>2026-04-20T20:43:49.000Z</time></trkpt>
        <trkpt lat="29.759366" lon="103.426049"><ele>1167.1177</ele><time>2026-04-20T20:43:55.000Z</time></trkpt>
        <trkpt lat="29.759368" lon="103.426107"><ele>1167.1824</ele><time>2026-04-20T20:45:09.000Z</time></trkpt>
        <trkpt lat="29.759333" lon="103.42616"><ele>1166.7842</ele><time>2026-04-20T20:45:15.000Z</time></trkpt>
        <trkpt lat="29.759322" lon="103.426211"><ele>1166.1477</ele><time>2026-04-20T20:45:21.000Z</time></trkpt>
        <trkpt lat="29.759367" lon="103.426235"><ele>1167.0024</ele><time>2026-04-20T20:45:29.000Z</time></trkpt>
        <trkpt lat="29.759392" lon="103.426289"><ele>1171.8491</ele><time>2026-04-20T20:45:45.000Z</time></trkpt>
        <trkpt lat="29.759425" lon="103.426353"><ele>1172.431</ele><time>2026-04-20T20:45:50.000Z</time></trkpt>
        <trkpt lat="29.759452" lon="103.426398"><ele>1172.5321</ele><time>2026-04-20T20:45:55.000Z</time></trkpt>
        <trkpt lat="29.759472" lon="103.426447"><ele>1174.3319</ele><time>2026-04-20T20:46:02.000Z</time></trkpt>
        <trkpt lat="29.759492" lon="103.426504"><ele>1175.1031</ele><time>2026-04-20T20:46:07.000Z</time></trkpt>
        <trkpt lat="29.759502" lon="103.426568"><ele>1175.6033</ele><time>2026-04-20T20:46:12.000Z</time></trkpt>
        <trkpt lat="29.759517" lon="103.426637"><ele>1175.9</ele><time>2026-04-20T20:46:16.000Z</time></trkpt>
        <trkpt lat="29.759547" lon="103.426678"><ele>1175.7079</ele><time>2026-04-20T20:46:22.000Z</time></trkpt>
        <trkpt lat="29.75958" lon="103.426719"><ele>1175.8379</ele><time>2026-04-20T20:46:25.000Z</time></trkpt>
        <trkpt lat="29.759613" lon="103.426759"><ele>1173.6383</ele><time>2026-04-20T20:46:31.000Z</time></trkpt>
        <trkpt lat="29.759653" lon="103.426814"><ele>1173.0527</ele><time>2026-04-20T20:46:37.000Z</time></trkpt>
        <trkpt lat="29.75966" lon="103.426871"><ele>1172.7612</ele><time>2026-04-20T20:46:42.000Z</time></trkpt>
        <trkpt lat="29.759672" lon="103.426931"><ele>1169.6392</ele><time>2026-04-20T20:46:54.000Z</time></trkpt>
        <trkpt lat="29.759686" lon="103.426982"><ele>1168.6895</ele><time>2026-04-20T20:46:59.000Z</time></trkpt>
        <trkpt lat="29.759671" lon="103.427047"><ele>1168.8074</ele><time>2026-04-20T20:47:05.000Z</time></trkpt>
        <trkpt lat="29.759683" lon="103.427097"><ele>1168.3491</ele><time>2026-04-20T20:47:09.000Z</time></trkpt>
        <trkpt lat="29.759693" lon="103.427149"><ele>1168.4965</ele><time>2026-04-20T20:47:14.000Z</time></trkpt>
        <trkpt lat="29.759731" lon="103.427185"><ele>1168.2169</ele><time>2026-04-20T20:47:20.000Z</time></trkpt>
        <trkpt lat="29.759777" lon="103.427218"><ele>1169.2063</ele><time>2026-04-20T20:47:26.000Z</time></trkpt>
        <trkpt lat="29.759801" lon="103.427265"><ele>1169.2314</ele><time>2026-04-20T20:47:36.000Z</time></trkpt>
        <trkpt lat="29.759844" lon="103.427297"><ele>1171.3373</ele><time>2026-04-20T20:47:45.000Z</time></trkpt>
        <trkpt lat="29.759901" lon="103.427291"><ele>1174.185</ele><time>2026-04-20T20:47:48.000Z</time></trkpt>
        <trkpt lat="29.759921" lon="103.427347"><ele>1175.6302</ele><time>2026-04-20T20:47:55.000Z</time></trkpt>
        <trkpt lat="29.759881" lon="103.427373"><ele>1176.4097</ele><time>2026-04-20T20:47:59.000Z</time></trkpt>
        <trkpt lat="29.759863" lon="103.427431"><ele>1176.6248</ele><time>2026-04-20T20:48:06.000Z</time></trkpt>
        <trkpt lat="29.759832" lon="103.427475"><ele>1177.4045</ele><time>2026-04-20T20:48:17.000Z</time></trkpt>
        <trkpt lat="29.759795" lon="103.427522"><ele>1178.9349</ele><time>2026-04-20T20:48:22.000Z</time></trkpt>
        <trkpt lat="29.759773" lon="103.427574"><ele>1179.7959</ele><time>2026-04-20T20:48:29.000Z</time></trkpt>
        <trkpt lat="29.759805" lon="103.427616"><ele>1179.4845</ele><time>2026-04-20T20:48:34.000Z</time></trkpt>
        <trkpt lat="29.759793" lon="103.427668"><ele>1180.6235</ele><time>2026-04-20T20:48:39.000Z</time></trkpt>
        <trkpt lat="29.759792" lon="103.42773"><ele>1181.0492</ele><time>2026-04-20T20:48:44.000Z</time></trkpt>
        <trkpt lat="29.759799" lon="103.427789"><ele>1181.571</ele><time>2026-04-20T20:48:48.000Z</time></trkpt>
        <trkpt lat="29.759796" lon="103.427843"><ele>1182.8075</ele><time>2026-04-20T20:48:53.000Z</time></trkpt>
        <trkpt lat="29.759785" lon="103.427896"><ele>1184.3552</ele><time>2026-04-20T20:48:58.000Z</time></trkpt>
        <trkpt lat="29.759769" lon="103.427956"><ele>1185.2865</ele><time>2026-04-20T20:49:02.000Z</time></trkpt>
        <trkpt lat="29.759754" lon="103.428011"><ele>1186.5482</ele><time>2026-04-20T20:49:07.000Z</time></trkpt>
        <trkpt lat="29.75978" lon="103.428066"><ele>1186.2875</ele><time>2026-04-20T20:49:14.000Z</time></trkpt>
        <trkpt lat="29.759803" lon="103.428112"><ele>1186.5182</ele><time>2026-04-20T20:49:21.000Z</time></trkpt>
        <trkpt lat="29.759815" lon="103.428168"><ele>1187.317</ele><time>2026-04-20T20:49:25.000Z</time></trkpt>
        <trkpt lat="29.759803" lon="103.428221"><ele>1187.841</ele><time>2026-04-20T20:49:30.000Z</time></trkpt>
        <trkpt lat="29.759799" lon="103.428278"><ele>1189.857</ele><time>2026-04-20T20:49:37.000Z</time></trkpt>
        <trkpt lat="29.759786" lon="103.428336"><ele>1190.468</ele><time>2026-04-20T20:49:42.000Z</time></trkpt>
        <trkpt lat="29.759778" lon="103.428387"><ele>1191.9868</ele><time>2026-04-20T20:49:53.000Z</time></trkpt>
        <trkpt lat="29.759752" lon="103.428429"><ele>1193.4688</ele><time>2026-04-20T20:49:59.000Z</time></trkpt>
        <trkpt lat="29.759721" lon="103.42847"><ele>1195.0199</ele><time>2026-04-20T20:50:04.000Z</time></trkpt>
        <trkpt lat="29.759718" lon="103.428525"><ele>1196.0956</ele><time>2026-04-20T20:50:14.000Z</time></trkpt>
        <trkpt lat="29.759752" lon="103.428567"><ele>1194.9082</ele><time>2026-04-20T20:50:29.000Z</time></trkpt>
        <trkpt lat="29.759745" lon="103.42862"><ele>1194.4017</ele><time>2026-04-20T20:50:36.000Z</time></trkpt>
        <trkpt lat="29.759733" lon="103.42867"><ele>1193.6011</ele><time>2026-04-20T20:50:42.000Z</time></trkpt>
        <trkpt lat="29.759742" lon="103.428729"><ele>1191.2711</ele><time>2026-04-20T20:50:50.000Z</time></trkpt>
        <trkpt lat="29.759749" lon="103.42881"><ele>1191.258</ele><time>2026-04-20T20:50:57.000Z</time></trkpt>
        <trkpt lat="29.759779" lon="103.428861"><ele>1188.2902</ele><time>2026-04-20T20:51:03.000Z</time></trkpt>
        <trkpt lat="29.759815" lon="103.428893"><ele>1184.2119</ele><time>2026-04-20T20:51:11.000Z</time></trkpt>
        <trkpt lat="29.759871" lon="103.428908"><ele>1180.474</ele><time>2026-04-20T20:51:17.000Z</time></trkpt>
        <trkpt lat="29.759913" lon="103.42894"><ele>1177.1864</ele><time>2026-04-20T20:51:28.000Z</time></trkpt>
        <trkpt lat="29.759961" lon="103.428943"><ele>1174.9607</ele><time>2026-04-20T20:51:38.000Z</time></trkpt>
        <trkpt lat="29.760013" lon="103.42895"><ele>1173.2369</ele><time>2026-04-20T20:51:47.000Z</time></trkpt>
        <trkpt lat="29.760068" lon="103.428921"><ele>1173.2097</ele><time>2026-04-20T20:51:54.000Z</time></trkpt>
        <trkpt lat="29.760117" lon="103.428932"><ele>1175.8021</ele><time>2026-04-20T20:52:02.000Z</time></trkpt>
        <trkpt lat="29.760154" lon="103.428992"><ele>1178.0851</ele><time>2026-04-20T20:52:10.000Z</time></trkpt>
        <trkpt lat="29.760117" lon="103.429025"><ele>1177.6744</ele><time>2026-04-20T20:52:18.000Z</time></trkpt>
        <trkpt lat="29.760133" lon="103.429076"><ele>1177.5726</ele><time>2026-04-20T20:52:21.000Z</time></trkpt>
        <trkpt lat="29.760139" lon="103.429154"><ele>1177.8003</ele><time>2026-04-20T20:52:28.000Z</time></trkpt>
        <trkpt lat="29.760143" lon="103.429208"><ele>1178.7654</ele><time>2026-04-20T20:52:32.000Z</time></trkpt>
        <trkpt lat="29.760142" lon="103.429279"><ele>1177.2987</ele><time>2026-04-20T20:52:42.000Z</time></trkpt>
        <trkpt lat="29.760109" lon="103.429339"><ele>1177.3297</ele><time>2026-04-20T20:52:51.000Z</time></trkpt>
        <trkpt lat="29.760123" lon="103.429408"><ele>1174.6428</ele><time>2026-04-20T20:52:55.000Z</time></trkpt>
        <trkpt lat="29.760171" lon="103.429438"><ele>1170.4115</ele><time>2026-04-20T20:53:00.000Z</time></trkpt>
        <trkpt lat="29.760212" lon="103.429471"><ele>1167.5797</ele><time>2026-04-20T20:53:04.000Z</time></trkpt>
        <trkpt lat="29.760258" lon="103.429489"><ele>1166.2998</ele><time>2026-04-20T20:53:09.000Z</time></trkpt>
        <trkpt lat="29.760304" lon="103.429531"><ele>1165.0416</ele><time>2026-04-20T20:53:15.000Z</time></trkpt>
        <trkpt lat="29.760344" lon="103.429581"><ele>1162.6288</ele><time>2026-04-20T20:53:25.000Z</time></trkpt>
        <trkpt lat="29.760325" lon="103.429635"><ele>1162.961</ele><time>2026-04-20T20:53:31.000Z</time></trkpt>
        <trkpt lat="29.760371" lon="103.42965"><ele>1157.8221</ele><time>2026-04-20T20:53:39.000Z</time></trkpt>
        <trkpt lat="29.760414" lon="103.429671"><ele>1155.9916</ele><time>2026-04-20T20:53:43.000Z</time></trkpt>
        <trkpt lat="29.760431" lon="103.429728"><ele>1153.6108</ele><time>2026-04-20T20:54:05.000Z</time></trkpt>
        <trkpt lat="29.76043" lon="103.429782"><ele>1155.1915</ele><time>2026-04-20T20:54:10.000Z</time></trkpt>
        <trkpt lat="29.760437" lon="103.429842"><ele>1155.9849</ele><time>2026-04-20T20:54:20.000Z</time></trkpt>
        <trkpt lat="29.760402" lon="103.429877"><ele>1155.2744</ele><time>2026-04-20T20:54:27.000Z</time></trkpt>
        <trkpt lat="29.760401" lon="103.42993"><ele>1152.5751</ele><time>2026-04-20T20:54:38.000Z</time></trkpt>
        <trkpt lat="29.760392" lon="103.429987"><ele>1151.6505</ele><time>2026-04-20T20:54:42.000Z</time></trkpt>
        <trkpt lat="29.760435" lon="103.430024"><ele>1146.2031</ele><time>2026-04-20T20:54:48.000Z</time></trkpt>
        <trkpt lat="29.760484" lon="103.430038"><ele>1142.8367</ele><time>2026-04-20T20:54:56.000Z</time></trkpt>
        <trkpt lat="29.760514" lon="103.430077"><ele>1140.4005</ele><time>2026-04-20T20:55:06.000Z</time></trkpt>
        <trkpt lat="29.760519" lon="103.430131"><ele>1140.8182</ele><time>2026-04-20T20:55:11.000Z</time></trkpt>
        <trkpt lat="29.760482" lon="103.430168"><ele>1141.2609</ele><time>2026-04-20T20:55:20.000Z</time></trkpt>
        <trkpt lat="29.760461" lon="103.430218"><ele>1139.5184</ele><time>2026-04-20T20:55:35.000Z</time></trkpt>
        <trkpt lat="29.760428" lon="103.430259"><ele>1131.1877</ele><time>2026-04-20T20:55:53.000Z</time></trkpt>
        <trkpt lat="29.760455" lon="103.43031"><ele>1128.0232</ele><time>2026-04-20T20:55:58.000Z</time></trkpt>
        <trkpt lat="29.760495" lon="103.430344"><ele>1117.8488</ele><time>2026-04-20T20:56:11.000Z</time></trkpt>
        <trkpt lat="29.760503" lon="103.430404"><ele>1113.3782</ele><time>2026-04-20T20:56:25.000Z</time></trkpt>
        <trkpt lat="29.760531" lon="103.430446"><ele>1112.5825</ele><time>2026-04-20T20:56:30.000Z</time></trkpt>
        <trkpt lat="29.760526" lon="103.430499"><ele>1112.2362</ele><time>2026-04-20T20:56:34.000Z</time></trkpt>
        <trkpt lat="29.760521" lon="103.430553"><ele>1111.4847</ele><time>2026-04-20T20:56:42.000Z</time></trkpt>
        <trkpt lat="29.760556" lon="103.430588"><ele>1106.6887</ele><time>2026-04-20T20:56:50.000Z</time></trkpt>
        <trkpt lat="29.760557" lon="103.430642"><ele>1103.4481</ele><time>2026-04-20T20:56:58.000Z</time></trkpt>
        <trkpt lat="29.760579" lon="103.430695"><ele>1101.2682</ele><time>2026-04-20T20:57:04.000Z</time></trkpt>
        <trkpt lat="29.760614" lon="103.430735"><ele>1098.9993</ele><time>2026-04-20T20:57:11.000Z</time></trkpt>
        <trkpt lat="29.76063" lon="103.430787"><ele>1098.2131</ele><time>2026-04-20T20:57:16.000Z</time></trkpt>
        <trkpt lat="29.760662" lon="103.430828"><ele>1096.6611</ele><time>2026-04-20T20:57:21.000Z</time></trkpt>
        <trkpt lat="29.760683" lon="103.430881"><ele>1096.413</ele><time>2026-04-20T20:57:25.000Z</time></trkpt>
        <trkpt lat="29.760678" lon="103.430934"><ele>1093.845</ele><time>2026-04-20T20:57:33.000Z</time></trkpt>
        <trkpt lat="29.760687" lon="103.430989"><ele>1093.9193</ele><time>2026-04-20T20:57:39.000Z</time></trkpt>
        <trkpt lat="29.760692" lon="103.431047"><ele>1091.499</ele><time>2026-04-20T20:57:49.000Z</time></trkpt>
        <trkpt lat="29.760671" lon="103.431108"><ele>1091.0403</ele><time>2026-04-20T20:57:54.000Z</time></trkpt>
        <trkpt lat="29.760689" lon="103.431163"><ele>1089.6984</ele><time>2026-04-20T20:58:00.000Z</time></trkpt>
        <trkpt lat="29.760734" lon="103.43118"><ele>1086.538</ele><time>2026-04-20T20:58:06.000Z</time></trkpt>
        <trkpt lat="29.760776" lon="103.431205"><ele>1084.9541</ele><time>2026-04-20T20:58:11.000Z</time></trkpt>
        <trkpt lat="29.76082" lon="103.43117"><ele>1084.2325</ele><time>2026-04-20T20:58:27.000Z</time></trkpt>
        <trkpt lat="29.760869" lon="103.431169"><ele>1084.425</ele><time>2026-04-20T20:58:30.000Z</time></trkpt>
        <trkpt lat="29.760888" lon="103.431228"><ele>1085.2106</ele><time>2026-04-20T20:58:34.000Z</time></trkpt>
        <trkpt lat="29.760935" lon="103.431237"><ele>1085.0675</ele><time>2026-04-20T20:58:37.000Z</time></trkpt>
        <trkpt lat="29.760987" lon="103.431266"><ele>1085.7064</ele><time>2026-04-20T20:58:41.000Z</time></trkpt>
        <trkpt lat="29.761011" lon="103.431314"><ele>1085.8687</ele><time>2026-04-20T20:58:45.000Z</time></trkpt>
        <trkpt lat="29.761017" lon="103.431367"><ele>1085.5591</ele><time>2026-04-20T20:58:47.000Z</time></trkpt>
        <trkpt lat="29.761047" lon="103.43142"><ele>1086.4022</ele><time>2026-04-20T20:58:52.000Z</time></trkpt>
        <trkpt lat="29.76107" lon="103.431465"><ele>1086.1974</ele><time>2026-04-20T20:58:58.000Z</time></trkpt>
        <trkpt lat="29.761092" lon="103.431512"><ele>1085.3405</ele><time>2026-04-20T20:59:02.000Z</time></trkpt>
        <trkpt lat="29.761117" lon="103.431574"><ele>1086.1635</ele><time>2026-04-20T20:59:05.000Z</time></trkpt>
        <trkpt lat="29.761163" lon="103.431605"><ele>1084.5847</ele><time>2026-04-20T20:59:08.000Z</time></trkpt>
        <trkpt lat="29.761184" lon="103.431652"><ele>1082.7701</ele><time>2026-04-20T20:59:13.000Z</time></trkpt>
        <trkpt lat="29.76122" lon="103.431696"><ele>1081.1077</ele><time>2026-04-20T20:59:17.000Z</time></trkpt>
        <trkpt lat="29.76126" lon="103.431738"><ele>1081.6432</ele><time>2026-04-20T20:59:20.000Z</time></trkpt>
        <trkpt lat="29.761294" lon="103.431783"><ele>1080.5269</ele><time>2026-04-20T20:59:26.000Z</time></trkpt>
        <trkpt lat="29.76132" lon="103.43184"><ele>1080.0284</ele><time>2026-04-20T20:59:29.000Z</time></trkpt>
        <trkpt lat="29.761359" lon="103.431897"><ele>1079.5742</ele><time>2026-04-20T20:59:32.000Z</time></trkpt>
        <trkpt lat="29.76138" lon="103.431943"><ele>1078.0238</ele><time>2026-04-20T20:59:35.000Z</time></trkpt>
        <trkpt lat="29.761418" lon="103.431974"><ele>1076.0608</ele><time>2026-04-20T20:59:39.000Z</time></trkpt>
        <trkpt lat="29.761467" lon="103.432009"><ele>1075.9585</ele><time>2026-04-20T20:59:40.000Z</time></trkpt>
        <trkpt lat="29.761511" lon="103.432037"><ele>1075.7137</ele><time>2026-04-20T20:59:44.000Z</time></trkpt>
        <trkpt lat="29.761485" lon="103.432085"><ele>1076.3973</ele><time>2026-04-20T20:59:50.000Z</time></trkpt>
        <trkpt lat="29.761462" lon="103.432133"><ele>1077.5247</ele><time>2026-04-20T20:59:52.000Z</time></trkpt>
        <trkpt lat="29.761506" lon="103.432165"><ele>1076.1472</ele><time>2026-04-20T21:00:02.000Z</time></trkpt>
        <trkpt lat="29.761536" lon="103.432228"><ele>1073.5192</ele><time>2026-04-20T21:00:09.000Z</time></trkpt>
        <trkpt lat="29.761521" lon="103.432277"><ele>1074.2355</ele><time>2026-04-20T21:00:17.000Z</time></trkpt>
        <trkpt lat="29.761541" lon="103.432326"><ele>1073.5958</ele><time>2026-04-20T21:00:21.000Z</time></trkpt>
        <trkpt lat="29.761592" lon="103.432342"><ele>1073.5745</ele><time>2026-04-20T21:00:27.000Z</time></trkpt>
        <trkpt lat="29.761637" lon="103.432355"><ele>1074.1132</ele><time>2026-04-20T21:00:32.000Z</time></trkpt>
        <trkpt lat="29.761679" lon="103.432377"><ele>1074.1168</ele><time>2026-04-20T21:00:35.000Z</time></trkpt>
        <trkpt lat="29.761701" lon="103.432424"><ele>1075.4099</ele><time>2026-04-20T21:00:45.000Z</time></trkpt>
        <trkpt lat="29.761737" lon="103.432459"><ele>1074.8035</ele><time>2026-04-20T21:00:48.000Z</time></trkpt>
        <trkpt lat="29.761719" lon="103.432517"><ele>1074.7092</ele><time>2026-04-20T21:00:59.000Z</time></trkpt>
        <trkpt lat="29.761757" lon="103.432557"><ele>1073.3127</ele><time>2026-04-20T21:01:02.000Z</time></trkpt>
        <trkpt lat="29.761798" lon="103.432591"><ele>1072.0658</ele><time>2026-04-20T21:01:08.000Z</time></trkpt>
        <trkpt lat="29.761843" lon="103.432611"><ele>1071.7887</ele><time>2026-04-20T21:01:11.000Z</time></trkpt>
        <trkpt lat="29.761871" lon="103.432664"><ele>1073.1326</ele><time>2026-04-20T21:01:20.000Z</time></trkpt>
        <trkpt lat="29.761922" lon="103.432656"><ele>1075.6125</ele><time>2026-04-20T21:01:35.000Z</time></trkpt>
        <trkpt lat="29.761926" lon="103.432709"><ele>1075.375</ele><time>2026-04-20T21:01:38.000Z</time></trkpt>
        <trkpt lat="29.761937" lon="103.432764"><ele>1075.2921</ele><time>2026-04-20T21:01:43.000Z</time></trkpt>
        <trkpt lat="29.761986" lon="103.432793"><ele>1075.513</ele><time>2026-04-20T21:01:47.000Z</time></trkpt>
        <trkpt lat="29.762026" lon="103.432825"><ele>1075.9382</ele><time>2026-04-20T21:01:59.000Z</time></trkpt>
        <trkpt lat="29.762043" lon="103.432882"><ele>1075.1338</ele><time>2026-04-20T21:02:03.000Z</time></trkpt>
        <trkpt lat="29.762066" lon="103.432928"><ele>1076.1953</ele><time>2026-04-20T21:02:12.000Z</time></trkpt>
        <trkpt lat="29.762108" lon="103.432957"><ele>1075.0814</ele><time>2026-04-20T21:02:17.000Z</time></trkpt>
        <trkpt lat="29.762162" lon="103.432977"><ele>1073.3467</ele><time>2026-04-20T21:02:23.000Z</time></trkpt>
        <trkpt lat="29.762199" lon="103.433012"><ele>1073.9276</ele><time>2026-04-20T21:02:26.000Z</time></trkpt>
        <trkpt lat="29.76222" lon="103.433059"><ele>1073.0875</ele><time>2026-04-20T21:02:30.000Z</time></trkpt>
        <trkpt lat="29.762224" lon="103.433122"><ele>1072.5526</ele><time>2026-04-20T21:02:34.000Z</time></trkpt>
        <trkpt lat="29.762202" lon="103.433168"><ele>1072.4937</ele><time>2026-04-20T21:02:38.000Z</time></trkpt>
        <trkpt lat="29.76222" lon="103.433219"><ele>1072.4938</ele><time>2026-04-20T21:02:40.000Z</time></trkpt>
        <trkpt lat="29.762237" lon="103.433268"><ele>1072.3506</ele><time>2026-04-20T21:02:44.000Z</time></trkpt>
        <trkpt lat="29.76229" lon="103.433276"><ele>1071.1249</ele><time>2026-04-20T21:02:49.000Z</time></trkpt>
        <trkpt lat="29.762327" lon="103.433315"><ele>1072.7188</ele><time>2026-04-20T21:02:56.000Z</time></trkpt>
        <trkpt lat="29.762361" lon="103.43336"><ele>1073.7286</ele><time>2026-04-20T21:03:02.000Z</time></trkpt>
        <trkpt lat="29.762355" lon="103.433415"><ele>1074.2102</ele><time>2026-04-20T21:03:12.000Z</time></trkpt>
        <trkpt lat="29.762388" lon="103.433459"><ele>1074.9292</ele><time>2026-04-20T21:03:17.000Z</time></trkpt>
        <trkpt lat="29.762382" lon="103.43352"><ele>1074.5154</ele><time>2026-04-20T21:03:23.000Z</time></trkpt>
        <trkpt lat="29.762401" lon="103.433583"><ele>1076.5184</ele><time>2026-04-20T21:03:36.000Z</time></trkpt>
        <trkpt lat="29.762427" lon="103.433634"><ele>1076.2598</ele><time>2026-04-20T21:03:43.000Z</time></trkpt>
        <trkpt lat="29.762479" lon="103.433662"><ele>1076.7885</ele><time>2026-04-20T21:03:51.000Z</time></trkpt>
        <trkpt lat="29.762509" lon="103.433714"><ele>1077.238</ele><time>2026-04-20T21:04:03.000Z</time></trkpt>
        <trkpt lat="29.762545" lon="103.433747"><ele>1076.5957</ele><time>2026-04-20T21:04:12.000Z</time></trkpt>
        <trkpt lat="29.762561" lon="103.433799"><ele>1077.4429</ele><time>2026-04-20T21:04:18.000Z</time></trkpt>
        <trkpt lat="29.762581" lon="103.433846"><ele>1077.8972</ele><time>2026-04-20T21:04:23.000Z</time></trkpt>
        <trkpt lat="29.762593" lon="103.433896"><ele>1078.1576</ele><time>2026-04-20T21:04:31.000Z</time></trkpt>
        <trkpt lat="29.762597" lon="103.43395"><ele>1078.1335</ele><time>2026-04-20T21:04:38.000Z</time></trkpt>
        <trkpt lat="29.762613" lon="103.434002"><ele>1077.9458</ele><time>2026-04-20T21:04:43.000Z</time></trkpt>
        <trkpt lat="29.762651" lon="103.434041"><ele>1078.1871</ele><time>2026-04-20T21:04:48.000Z</time></trkpt>
        <trkpt lat="29.762642" lon="103.434093"><ele>1078.8396</ele><time>2026-04-20T21:04:57.000Z</time></trkpt>
        <trkpt lat="29.762627" lon="103.434162"><ele>1079.264</ele><time>2026-04-20T21:05:04.000Z</time></trkpt>
        <trkpt lat="29.762615" lon="103.434213"><ele>1078.4227</ele><time>2026-04-20T21:05:12.000Z</time></trkpt>
        <trkpt lat="29.762642" lon="103.43426"><ele>1078.6975</ele><time>2026-04-20T21:05:21.000Z</time></trkpt>
        <trkpt lat="29.762667" lon="103.434305"><ele>1081.0792</ele><time>2026-04-20T21:05:29.000Z</time></trkpt>
        <trkpt lat="29.762701" lon="103.434351"><ele>1085.2081</ele><time>2026-04-20T21:05:34.000Z</time></trkpt>
        <trkpt lat="29.762704" lon="103.434408"><ele>1087.5012</ele><time>2026-04-20T21:05:39.000Z</time></trkpt>
        <trkpt lat="29.762697" lon="103.434481"><ele>1090.6803</ele><time>2026-04-20T21:05:47.000Z</time></trkpt>
        <trkpt lat="29.762718" lon="103.434536"><ele>1090.2605</ele><time>2026-04-20T21:06:31.000Z</time></trkpt>
        <trkpt lat="29.762732" lon="103.434593"><ele>1089.0729</ele><time>2026-04-20T21:06:35.000Z</time></trkpt>
        <trkpt lat="29.76276" lon="103.434635"><ele>1088.9945</ele><time>2026-04-20T21:06:40.000Z</time></trkpt>
        <trkpt lat="29.762799" lon="103.434685"><ele>1088.6893</ele><time>2026-04-20T21:06:45.000Z</time></trkpt>
        <trkpt lat="29.76281" lon="103.434737"><ele>1086.2924</ele><time>2026-04-20T21:06:58.000Z</time></trkpt>
        <trkpt lat="29.762836" lon="103.43478"><ele>1087.6188</ele><time>2026-04-20T21:07:04.000Z</time></trkpt>
        <trkpt lat="29.762816" lon="103.434836"><ele>1092.2074</ele><time>2026-04-20T21:07:12.000Z</time></trkpt>
        <trkpt lat="29.762841" lon="103.43489"><ele>1093.1406</ele><time>2026-04-20T21:07:58.000Z</time></trkpt>
        <trkpt lat="29.762858" lon="103.434952"><ele>1093.4723</ele><time>2026-04-20T21:08:02.000Z</time></trkpt>
        <trkpt lat="29.762897" lon="103.434982"><ele>1095.297</ele><time>2026-04-20T21:08:06.000Z</time></trkpt>
        <trkpt lat="29.762908" lon="103.435035"><ele>1095.5822</ele><time>2026-04-20T21:08:10.000Z</time></trkpt>
        <trkpt lat="29.762953" lon="103.435042"><ele>1090.9587</ele><time>2026-04-20T21:08:23.000Z</time></trkpt>
        <trkpt lat="29.762957" lon="103.435101"><ele>1089.3662</ele><time>2026-04-20T21:08:27.000Z</time></trkpt>
        <trkpt lat="29.762969" lon="103.435153"><ele>1088.28</ele><time>2026-04-20T21:08:34.000Z</time></trkpt>
        <trkpt lat="29.763014" lon="103.435195"><ele>1090.2462</ele><time>2026-04-20T21:08:37.000Z</time></trkpt>
        <trkpt lat="29.763002" lon="103.435247"><ele>1090.3304</ele><time>2026-04-20T21:08:43.000Z</time></trkpt>
        <trkpt lat="29.763031" lon="103.435289"><ele>1091.0175</ele><time>2026-04-20T21:08:46.000Z</time></trkpt>
        <trkpt lat="29.763018" lon="103.435342"><ele>1089.1646</ele><time>2026-04-20T21:08:53.000Z</time></trkpt>
        <trkpt lat="29.763029" lon="103.435406"><ele>1087.7012</ele><time>2026-04-20T21:08:57.000Z</time></trkpt>
        <trkpt lat="29.763046" lon="103.435459"><ele>1086.7954</ele><time>2026-04-20T21:09:01.000Z</time></trkpt>
        <trkpt lat="29.763084" lon="103.435498"><ele>1086.7635</ele><time>2026-04-20T21:09:06.000Z</time></trkpt>
        <trkpt lat="29.763127" lon="103.435525"><ele>1087.1678</ele><time>2026-04-20T21:09:09.000Z</time></trkpt>
        <trkpt lat="29.763137" lon="103.435578"><ele>1086.8846</ele><time>2026-04-20T21:09:13.000Z</time></trkpt>
        <trkpt lat="29.763117" lon="103.435633"><ele>1083.7222</ele><time>2026-04-20T21:09:28.000Z</time></trkpt>
        <trkpt lat="29.763142" lon="103.43568"><ele>1083.8151</ele><time>2026-04-20T21:09:32.000Z</time></trkpt>
        <trkpt lat="29.763181" lon="103.435719"><ele>1084.7573</ele><time>2026-04-20T21:09:35.000Z</time></trkpt>
        <trkpt lat="29.763192" lon="103.435772"><ele>1086.3696</ele><time>2026-04-20T21:09:41.000Z</time></trkpt>
        <trkpt lat="29.76319" lon="103.43583"><ele>1085.2435</ele><time>2026-04-20T21:09:44.000Z</time></trkpt>
        <trkpt lat="29.763209" lon="103.435897"><ele>1086.1039</ele><time>2026-04-20T21:09:50.000Z</time></trkpt>
        <trkpt lat="29.763232" lon="103.435946"><ele>1084.893</ele><time>2026-04-20T21:09:57.000Z</time></trkpt>
        <trkpt lat="29.763251" lon="103.435998"><ele>1085.9857</ele><time>2026-04-20T21:10:01.000Z</time></trkpt>
        <trkpt lat="29.763286" lon="103.436038"><ele>1086.5844</ele><time>2026-04-20T21:10:03.000Z</time></trkpt>
        <trkpt lat="29.763325" lon="103.436068"><ele>1087.2987</ele><time>2026-04-20T21:10:06.000Z</time></trkpt>
        <trkpt lat="29.763342" lon="103.436129"><ele>1088.8981</ele><time>2026-04-20T21:10:11.000Z</time></trkpt>
        <trkpt lat="29.763346" lon="103.436181"><ele>1091.716</ele><time>2026-04-20T21:10:15.000Z</time></trkpt>
        <trkpt lat="29.763333" lon="103.436232"><ele>1093.4683</ele><time>2026-04-20T21:10:18.000Z</time></trkpt>
        <trkpt lat="29.763335" lon="103.436297"><ele>1095.7363</ele><time>2026-04-20T21:10:24.000Z</time></trkpt>
        <trkpt lat="29.763348" lon="103.436357"><ele>1095.7104</ele><time>2026-04-20T21:10:32.000Z</time></trkpt>
        <trkpt lat="29.763316" lon="103.436405"><ele>1095.0802</ele><time>2026-04-20T21:10:38.000Z</time></trkpt>
        <trkpt lat="29.763325" lon="103.436465"><ele>1094.6858</ele><time>2026-04-20T21:10:42.000Z</time></trkpt>
        <trkpt lat="29.763273" lon="103.436415"><ele>1091.4297</ele><time>2026-04-20T21:10:49.000Z</time></trkpt>
        <trkpt lat="29.763307" lon="103.43646"><ele>1086.3634</ele><time>2026-04-20T21:11:04.000Z</time></trkpt>
        <trkpt lat="29.763364" lon="103.436402"><ele>1090.9902</ele><time>2026-04-20T21:11:56.000Z</time></trkpt>
        <trkpt lat="29.763332" lon="103.436444"><ele>1089.9476</ele><time>2026-04-20T21:12:12.000Z</time></trkpt>
        <trkpt lat="29.763371" lon="103.436495"><ele>1091.033</ele><time>2026-04-20T21:12:24.000Z</time></trkpt>
        <trkpt lat="29.763326" lon="103.436507"><ele>1089.2981</ele><time>2026-04-20T21:12:38.000Z</time></trkpt>
        <trkpt lat="29.763376" lon="103.436522"><ele>1092.0405</ele><time>2026-04-20T21:12:41.000Z</time></trkpt>
        <trkpt lat="29.76333" lon="103.436534"><ele>1092.2544</ele><time>2026-04-20T21:12:47.000Z</time></trkpt>
        <trkpt lat="29.763387" lon="103.436557"><ele>1094.0472</ele><time>2026-04-20T21:12:51.000Z</time></trkpt>
        <trkpt lat="29.763414" lon="103.436612"><ele>1092.6509</ele><time>2026-04-20T21:12:56.000Z</time></trkpt>
        <trkpt lat="29.763434" lon="103.436662"><ele>1093.1143</ele><time>2026-04-20T21:13:00.000Z</time></trkpt>
        <trkpt lat="29.763441" lon="103.436729"><ele>1092.0637</ele><time>2026-04-20T21:13:06.000Z</time></trkpt>
        <trkpt lat="29.763454" lon="103.436781"><ele>1091.9645</ele><time>2026-04-20T21:13:14.000Z</time></trkpt>
        <trkpt lat="29.763463" lon="103.436843"><ele>1091.2621</ele><time>2026-04-20T21:13:28.000Z</time></trkpt>
        <trkpt lat="29.763462" lon="103.436905"><ele>1090.7247</ele><time>2026-04-20T21:13:33.000Z</time></trkpt>
        <trkpt lat="29.763477" lon="103.436988"><ele>1091.9607</ele><time>2026-04-20T21:13:40.000Z</time></trkpt>
        <trkpt lat="29.763486" lon="103.43704"><ele>1089.1869</ele><time>2026-04-20T21:13:50.000Z</time></trkpt>
        <trkpt lat="29.763507" lon="103.437087"><ele>1089.6034</ele><time>2026-04-20T21:13:55.000Z</time></trkpt>
        <trkpt lat="29.763496" lon="103.43714"><ele>1088.7793</ele><time>2026-04-20T21:14:04.000Z</time></trkpt>
        <trkpt lat="29.763529" lon="103.437176"><ele>1088.6141</ele><time>2026-04-20T21:14:07.000Z</time></trkpt>
        <trkpt lat="29.763568" lon="103.43722"><ele>1089.5548</ele><time>2026-04-20T21:14:09.000Z</time></trkpt>
        <trkpt lat="29.763523" lon="103.437231"><ele>1088.8873</ele><time>2026-04-20T21:14:13.000Z</time></trkpt>
        <trkpt lat="29.763536" lon="103.437287"><ele>1088.3029</ele><time>2026-04-20T21:14:17.000Z</time></trkpt>
        <trkpt lat="29.763576" lon="103.43733"><ele>1088.5048</ele><time>2026-04-20T21:14:22.000Z</time></trkpt>
        <trkpt lat="29.76361" lon="103.437396"><ele>1090.2714</ele><time>2026-04-20T21:14:28.000Z</time></trkpt>
        <trkpt lat="29.763642" lon="103.437443"><ele>1091.4983</ele><time>2026-04-20T21:14:31.000Z</time></trkpt>
        <trkpt lat="29.763675" lon="103.437488"><ele>1092.8241</ele><time>2026-04-20T21:14:35.000Z</time></trkpt>
        <trkpt lat="29.76369" lon="103.437541"><ele>1092.6439</ele><time>2026-04-20T21:14:40.000Z</time></trkpt>
        <trkpt lat="29.763719" lon="103.437587"><ele>1092.986</ele><time>2026-04-20T21:14:45.000Z</time></trkpt>
        <trkpt lat="29.763731" lon="103.43764"><ele>1093.1633</ele><time>2026-04-20T21:14:52.000Z</time></trkpt>
        <trkpt lat="29.76376" lon="103.437685"><ele>1093.1884</ele><time>2026-04-20T21:14:55.000Z</time></trkpt>
        <trkpt lat="29.7638" lon="103.437748"><ele>1091.7015</ele><time>2026-04-20T21:15:02.000Z</time></trkpt>
        <trkpt lat="29.763838" lon="103.437794"><ele>1092.0234</ele><time>2026-04-20T21:15:07.000Z</time></trkpt>
        <trkpt lat="29.763844" lon="103.437847"><ele>1091.9735</ele><time>2026-04-20T21:15:13.000Z</time></trkpt>
        <trkpt lat="29.763854" lon="103.4379"><ele>1090.5093</ele><time>2026-04-20T21:15:18.000Z</time></trkpt>
        <trkpt lat="29.763866" lon="103.437961"><ele>1089.6091</ele><time>2026-04-20T21:15:25.000Z</time></trkpt>
        <trkpt lat="29.763904" lon="103.438014"><ele>1089.4312</ele><time>2026-04-20T21:15:30.000Z</time></trkpt>
        <trkpt lat="29.763896" lon="103.438073"><ele>1090.3694</ele><time>2026-04-20T21:15:34.000Z</time></trkpt>
        <trkpt lat="29.763914" lon="103.438127"><ele>1090.4923</ele><time>2026-04-20T21:15:39.000Z</time></trkpt>
        <trkpt lat="29.763945" lon="103.438181"><ele>1089.8501</ele><time>2026-04-20T21:15:48.000Z</time></trkpt>
        <trkpt lat="29.763983" lon="103.438221"><ele>1091.4935</ele><time>2026-04-20T21:15:52.000Z</time></trkpt>
        <trkpt lat="29.764002" lon="103.438274"><ele>1092.654</ele><time>2026-04-20T21:15:59.000Z</time></trkpt>
        <trkpt lat="29.764023" lon="103.438328"><ele>1092.7002</ele><time>2026-04-20T21:16:02.000Z</time></trkpt>
        <trkpt lat="29.764057" lon="103.438363"><ele>1092.635</ele><time>2026-04-20T21:16:06.000Z</time></trkpt>
        <trkpt lat="29.764086" lon="103.438416"><ele>1092.6897</ele><time>2026-04-20T21:16:12.000Z</time></trkpt>
        <trkpt lat="29.764122" lon="103.438451"><ele>1093.9249</ele><time>2026-04-20T21:16:18.000Z</time></trkpt>
        <trkpt lat="29.764146" lon="103.438511"><ele>1094.7139</ele><time>2026-04-20T21:16:32.000Z</time></trkpt>
        <trkpt lat="29.764175" lon="103.438562"><ele>1094.8297</ele><time>2026-04-20T21:16:38.000Z</time></trkpt>
        <trkpt lat="29.764192" lon="103.438618"><ele>1096.2236</ele><time>2026-04-20T21:16:42.000Z</time></trkpt>
        <trkpt lat="29.764209" lon="103.438668"><ele>1095.9513</ele><time>2026-04-20T21:16:47.000Z</time></trkpt>
        <trkpt lat="29.764226" lon="103.438716"><ele>1096.6064</ele><time>2026-04-20T21:16:50.000Z</time></trkpt>
        <trkpt lat="29.764254" lon="103.438768"><ele>1097.6738</ele><time>2026-04-20T21:16:55.000Z</time></trkpt>
        <trkpt lat="29.76427" lon="103.43882"><ele>1097.8047</ele><time>2026-04-20T21:16:59.000Z</time></trkpt>
        <trkpt lat="29.764272" lon="103.438873"><ele>1099.5369</ele><time>2026-04-20T21:17:04.000Z</time></trkpt>
        <trkpt lat="29.764284" lon="103.438927"><ele>1100.202</ele><time>2026-04-20T21:17:07.000Z</time></trkpt>
        <trkpt lat="29.764321" lon="103.438964"><ele>1100.9445</ele><time>2026-04-20T21:17:11.000Z</time></trkpt>
        <trkpt lat="29.764354" lon="103.439002"><ele>1102.5024</ele><time>2026-04-20T21:17:13.000Z</time></trkpt>
        <trkpt lat="29.764379" lon="103.439053"><ele>1105.7689</ele><time>2026-04-20T21:17:28.000Z</time></trkpt>
        <trkpt lat="29.764386" lon="103.439115"><ele>1104.4213</ele><time>2026-04-20T21:17:33.000Z</time></trkpt>
        <trkpt lat="29.764395" lon="103.439171"><ele>1104.3467</ele><time>2026-04-20T21:17:39.000Z</time></trkpt>
        <trkpt lat="29.764412" lon="103.43923"><ele>1101.8702</ele><time>2026-04-20T21:17:43.000Z</time></trkpt>
        <trkpt lat="29.764428" lon="103.439288"><ele>1101.3401</ele><time>2026-04-20T21:17:48.000Z</time></trkpt>
        <trkpt lat="29.764445" lon="103.439341"><ele>1101.0886</ele><time>2026-04-20T21:17:52.000Z</time></trkpt>
        <trkpt lat="29.764451" lon="103.4394"><ele>1101.0922</ele><time>2026-04-20T21:17:58.000Z</time></trkpt>
        <trkpt lat="29.764472" lon="103.439458"><ele>1101.5117</ele><time>2026-04-20T21:18:02.000Z</time></trkpt>
        <trkpt lat="29.76449" lon="103.439519"><ele>1101.0797</ele><time>2026-04-20T21:18:07.000Z</time></trkpt>
        <trkpt lat="29.764509" lon="103.439566"><ele>1100.628</ele><time>2026-04-20T21:18:10.000Z</time></trkpt>
        <trkpt lat="29.764546" lon="103.439635"><ele>1100.5951</ele><time>2026-04-20T21:18:14.000Z</time></trkpt>
        <trkpt lat="29.764564" lon="103.439687"><ele>1100.5782</ele><time>2026-04-20T21:18:18.000Z</time></trkpt>
        <trkpt lat="29.764577" lon="103.43975"><ele>1100.883</ele><time>2026-04-20T21:18:23.000Z</time></trkpt>
        <trkpt lat="29.7646" lon="103.439797"><ele>1100.6561</ele><time>2026-04-20T21:18:27.000Z</time></trkpt>
        <trkpt lat="29.764611" lon="103.439852"><ele>1100.8142</ele><time>2026-04-20T21:18:31.000Z</time></trkpt>
        <trkpt lat="29.764622" lon="103.439915"><ele>1100.5576</ele><time>2026-04-20T21:18:37.000Z</time></trkpt>
        <trkpt lat="29.764648" lon="103.43997"><ele>1100.2754</ele><time>2026-04-20T21:18:40.000Z</time></trkpt>
        <trkpt lat="29.764661" lon="103.440032"><ele>1100.9625</ele><time>2026-04-20T21:18:45.000Z</time></trkpt>
        <trkpt lat="29.764677" lon="103.440085"><ele>1097.7192</ele><time>2026-04-20T21:19:07.000Z</time></trkpt>
        <trkpt lat="29.764696" lon="103.440135"><ele>1097.7504</ele><time>2026-04-20T21:19:12.000Z</time></trkpt>
        <trkpt lat="29.764722" lon="103.440179"><ele>1097.8406</ele><time>2026-04-20T21:19:16.000Z</time></trkpt>
        <trkpt lat="29.764743" lon="103.440226"><ele>1097.9691</ele><time>2026-04-20T21:19:20.000Z</time></trkpt>
        <trkpt lat="29.764775" lon="103.440281"><ele>1098.6484</ele><time>2026-04-20T21:19:26.000Z</time></trkpt>
        <trkpt lat="29.764808" lon="103.440317"><ele>1099.1205</ele><time>2026-04-20T21:19:30.000Z</time></trkpt>
        <trkpt lat="29.764841" lon="103.440355"><ele>1099.931</ele><time>2026-04-20T21:19:34.000Z</time></trkpt>
        <trkpt lat="29.764868" lon="103.440407"><ele>1099.1816</ele><time>2026-04-20T21:19:41.000Z</time></trkpt>
        <trkpt lat="29.764891" lon="103.440455"><ele>1100.3016</ele><time>2026-04-20T21:19:44.000Z</time></trkpt>
        <trkpt lat="29.764918" lon="103.440511"><ele>1101.0206</ele><time>2026-04-20T21:19:48.000Z</time></trkpt>
        <trkpt lat="29.764953" lon="103.440565"><ele>1102.419</ele><time>2026-04-20T21:19:53.000Z</time></trkpt>
        <trkpt lat="29.764973" lon="103.44062"><ele>1102.6829</ele><time>2026-04-20T21:19:57.000Z</time></trkpt>
        <trkpt lat="29.764999" lon="103.440664"><ele>1102.7495</ele><time>2026-04-20T21:20:02.000Z</time></trkpt>
        <trkpt lat="29.765012" lon="103.440716"><ele>1103.182</ele><time>2026-04-20T21:20:07.000Z</time></trkpt>
        <trkpt lat="29.765032" lon="103.44077"><ele>1102.3871</ele><time>2026-04-20T21:20:12.000Z</time></trkpt>
        <trkpt lat="29.765048" lon="103.440835"><ele>1102.4355</ele><time>2026-04-20T21:20:16.000Z</time></trkpt>
        <trkpt lat="29.765066" lon="103.440889"><ele>1101.5735</ele><time>2026-04-20T21:20:20.000Z</time></trkpt>
        <trkpt lat="29.765089" lon="103.440942"><ele>1100.3297</ele><time>2026-04-20T21:20:29.000Z</time></trkpt>
        <trkpt lat="29.765117" lon="103.441007"><ele>1100.3699</ele><time>2026-04-20T21:20:33.000Z</time></trkpt>
        <trkpt lat="29.765129" lon="103.441059"><ele>1100.9415</ele><time>2026-04-20T21:20:37.000Z</time></trkpt>
        <trkpt lat="29.765139" lon="103.441114"><ele>1099.756</ele><time>2026-04-20T21:20:41.000Z</time></trkpt>
        <trkpt lat="29.76516" lon="103.44117"><ele>1099.2445</ele><time>2026-04-20T21:20:46.000Z</time></trkpt>
        <trkpt lat="29.765176" lon="103.441226"><ele>1098.9958</ele><time>2026-04-20T21:20:50.000Z</time></trkpt>
        <trkpt lat="29.765205" lon="103.441271"><ele>1099.1958</ele><time>2026-04-20T21:20:53.000Z</time></trkpt>
        <trkpt lat="29.765226" lon="103.441333"><ele>1098.6843</ele><time>2026-04-20T21:20:59.000Z</time></trkpt>
        <trkpt lat="29.765246" lon="103.441387"><ele>1098.011</ele><time>2026-04-20T21:21:05.000Z</time></trkpt>
        <trkpt lat="29.765272" lon="103.441435"><ele>1098.5553</ele><time>2026-04-20T21:21:09.000Z</time></trkpt>
        <trkpt lat="29.765297" lon="103.441483"><ele>1098.6088</ele><time>2026-04-20T21:21:13.000Z</time></trkpt>
        <trkpt lat="29.765317" lon="103.441539"><ele>1097.9426</ele><time>2026-04-20T21:21:17.000Z</time></trkpt>
        <trkpt lat="29.765346" lon="103.441591"><ele>1098.7312</ele><time>2026-04-20T21:21:24.000Z</time></trkpt>
        <trkpt lat="29.765366" lon="103.44164"><ele>1098.1318</ele><time>2026-04-20T21:21:28.000Z</time></trkpt>
        <trkpt lat="29.765393" lon="103.441695"><ele>1098.5122</ele><time>2026-04-20T21:21:33.000Z</time></trkpt>
        <trkpt lat="29.765426" lon="103.44174"><ele>1097.095</ele><time>2026-04-20T21:21:38.000Z</time></trkpt>
        <trkpt lat="29.765452" lon="103.441786"><ele>1096.0881</ele><time>2026-04-20T21:21:43.000Z</time></trkpt>
        <trkpt lat="29.765465" lon="103.441841"><ele>1095.8823</ele><time>2026-04-20T21:21:47.000Z</time></trkpt>
        <trkpt lat="29.765495" lon="103.441897"><ele>1096.719</ele><time>2026-04-20T21:21:51.000Z</time></trkpt>
        <trkpt lat="29.765516" lon="103.441959"><ele>1096.8417</ele><time>2026-04-20T21:21:56.000Z</time></trkpt>
        <trkpt lat="29.765534" lon="103.442007"><ele>1095.864</ele><time>2026-04-20T21:22:01.000Z</time></trkpt>
        <trkpt lat="29.765565" lon="103.442058"><ele>1095.247</ele><time>2026-04-20T21:22:05.000Z</time></trkpt>
        <trkpt lat="29.765588" lon="103.442102"><ele>1092.601</ele><time>2026-04-20T21:22:11.000Z</time></trkpt>
        <trkpt lat="29.765625" lon="103.442141"><ele>1090.275</ele><time>2026-04-20T21:22:17.000Z</time></trkpt>
        <trkpt lat="29.765654" lon="103.442181"><ele>1090.9763</ele><time>2026-04-20T21:22:22.000Z</time></trkpt>
        <trkpt lat="29.765686" lon="103.442235"><ele>1088.8627</ele><time>2026-04-20T21:22:30.000Z</time></trkpt>
        <trkpt lat="29.76573" lon="103.442274"><ele>1088.4565</ele><time>2026-04-20T21:22:35.000Z</time></trkpt>
        <trkpt lat="29.765787" lon="103.442279"><ele>1089.0709</ele><time>2026-04-20T21:22:39.000Z</time></trkpt>
        <trkpt lat="29.765841" lon="103.44228"><ele>1088.8905</ele><time>2026-04-20T21:22:43.000Z</time></trkpt>
        <trkpt lat="29.765884" lon="103.442302"><ele>1090.1643</ele><time>2026-04-20T21:22:47.000Z</time></trkpt>
        <trkpt lat="29.765932" lon="103.442334"><ele>1093.3627</ele><time>2026-04-20T21:22:52.000Z</time></trkpt>
        <trkpt lat="29.765971" lon="103.44236"><ele>1093.896</ele><time>2026-04-20T21:22:56.000Z</time></trkpt>
        <trkpt lat="29.765994" lon="103.442419"><ele>1091.5126</ele><time>2026-04-20T21:23:03.000Z</time></trkpt>
        <trkpt lat="29.766017" lon="103.442472"><ele>1092.3434</ele><time>2026-04-20T21:23:08.000Z</time></trkpt>
        <trkpt lat="29.766042" lon="103.44252"><ele>1091.827</ele><time>2026-04-20T21:23:12.000Z</time></trkpt>
        <trkpt lat="29.766087" lon="103.442538"><ele>1093.2455</ele><time>2026-04-20T21:23:15.000Z</time></trkpt>
        <trkpt lat="29.76613" lon="103.442555"><ele>1092.819</ele><time>2026-04-20T21:23:17.000Z</time></trkpt>
        <trkpt lat="29.766169" lon="103.442598"><ele>1092.0325</ele><time>2026-04-20T21:23:20.000Z</time></trkpt>
        <trkpt lat="29.76619" lon="103.442649"><ele>1091.0162</ele><time>2026-04-20T21:23:26.000Z</time></trkpt>
        <trkpt lat="29.766207" lon="103.4427"><ele>1090.16</ele><time>2026-04-20T21:23:34.000Z</time></trkpt>
        <trkpt lat="29.766235" lon="103.442751"><ele>1089.2242</ele><time>2026-04-20T21:23:39.000Z</time></trkpt>
        <trkpt lat="29.766282" lon="103.442768"><ele>1088.3635</ele><time>2026-04-20T21:23:42.000Z</time></trkpt>
        <trkpt lat="29.766317" lon="103.442809"><ele>1089.1456</ele><time>2026-04-20T21:23:47.000Z</time></trkpt>
        <trkpt lat="29.766346" lon="103.442849"><ele>1088.5123</ele><time>2026-04-20T21:23:50.000Z</time></trkpt>
        <trkpt lat="29.766378" lon="103.442897"><ele>1088.8036</ele><time>2026-04-20T21:23:53.000Z</time></trkpt>
        <trkpt lat="29.766415" lon="103.442934"><ele>1089.0067</ele><time>2026-04-20T21:23:56.000Z</time></trkpt>
        <trkpt lat="29.766455" lon="103.442963"><ele>1089.2986</ele><time>2026-04-20T21:23:59.000Z</time></trkpt>
        <trkpt lat="29.766504" lon="103.442967"><ele>1088.1559</ele><time>2026-04-20T21:24:03.000Z</time></trkpt>
        <trkpt lat="29.766544" lon="103.443008"><ele>1088.9591</ele><time>2026-04-20T21:24:07.000Z</time></trkpt>
        <trkpt lat="29.766583" lon="103.443051"><ele>1087.5874</ele><time>2026-04-20T21:24:11.000Z</time></trkpt>
        <trkpt lat="29.766532" lon="103.443078"><ele>1088.8588</ele><time>2026-04-20T21:24:18.000Z</time></trkpt>
        <trkpt lat="29.766566" lon="103.443122"><ele>1085.6909</ele><time>2026-04-20T21:24:27.000Z</time></trkpt>
        <trkpt lat="29.76656" lon="103.443175"><ele>1083.7186</ele><time>2026-04-20T21:24:33.000Z</time></trkpt>
        <trkpt lat="29.766581" lon="103.443227"><ele>1081.4756</ele><time>2026-04-20T21:24:40.000Z</time></trkpt>
        <trkpt lat="29.766609" lon="103.443295"><ele>1081.8207</ele><time>2026-04-20T21:24:43.000Z</time></trkpt>
        <trkpt lat="29.766645" lon="103.443336"><ele>1081.83</ele><time>2026-04-20T21:24:47.000Z</time></trkpt>
        <trkpt lat="29.766668" lon="103.443391"><ele>1080.9792</ele><time>2026-04-20T21:24:51.000Z</time></trkpt>
        <trkpt lat="29.766684" lon="103.443445"><ele>1079.1996</ele><time>2026-04-20T21:24:55.000Z</time></trkpt>
        <trkpt lat="29.766722" lon="103.443481"><ele>1078.6222</ele><time>2026-04-20T21:25:00.000Z</time></trkpt>
        <trkpt lat="29.76677" lon="103.443493"><ele>1077.3113</ele><time>2026-04-20T21:25:06.000Z</time></trkpt>
        <trkpt lat="29.766824" lon="103.443514"><ele>1076.2108</ele><time>2026-04-20T21:25:10.000Z</time></trkpt>
        <trkpt lat="29.766868" lon="103.443536"><ele>1076.2599</ele><time>2026-04-20T21:25:13.000Z</time></trkpt>
        <trkpt lat="29.766905" lon="103.443499"><ele>1076.2909</ele><time>2026-04-20T21:25:16.000Z</time></trkpt>
        <trkpt lat="29.76687" lon="103.443532"><ele>1075.726</ele><time>2026-04-20T21:25:21.000Z</time></trkpt>
        <trkpt lat="29.766915" lon="103.443563"><ele>1075.83</ele><time>2026-04-20T21:25:24.000Z</time></trkpt>
        <trkpt lat="29.766972" lon="103.443584"><ele>1075.986</ele><time>2026-04-20T21:25:29.000Z</time></trkpt>
        <trkpt lat="29.766995" lon="103.443635"><ele>1076.404</ele><time>2026-04-20T21:25:36.000Z</time></trkpt>
        <trkpt lat="29.767029" lon="103.443684"><ele>1075.315</ele><time>2026-04-20T21:25:39.000Z</time></trkpt>
        <trkpt lat="29.767059" lon="103.443734"><ele>1074.7703</ele><time>2026-04-20T21:25:43.000Z</time></trkpt>
        <trkpt lat="29.767093" lon="103.443781"><ele>1074.7003</ele><time>2026-04-20T21:25:47.000Z</time></trkpt>
        <trkpt lat="29.767121" lon="103.443828"><ele>1072.2223</ele><time>2026-04-20T21:25:55.000Z</time></trkpt>
        <trkpt lat="29.767165" lon="103.443849"><ele>1072.149</ele><time>2026-04-20T21:25:58.000Z</time></trkpt>
        <trkpt lat="29.767187" lon="103.443908"><ele>1071.4309</ele><time>2026-04-20T21:26:04.000Z</time></trkpt>
        <trkpt lat="29.767224" lon="103.443956"><ele>1070.7743</ele><time>2026-04-20T21:26:08.000Z</time></trkpt>
        <trkpt lat="29.767268" lon="103.443986"><ele>1070.1863</ele><time>2026-04-20T21:26:13.000Z</time></trkpt>
        <trkpt lat="29.76731" lon="103.444029"><ele>1068.913</ele><time>2026-04-20T21:26:19.000Z</time></trkpt>
        <trkpt lat="29.767374" lon="103.444054"><ele>1068.7943</ele><time>2026-04-20T21:26:24.000Z</time></trkpt>
        <trkpt lat="29.767412" lon="103.444091"><ele>1065.5612</ele><time>2026-04-20T21:26:30.000Z</time></trkpt>
        <trkpt lat="29.767454" lon="103.444131"><ele>1065.0587</ele><time>2026-04-20T21:26:34.000Z</time></trkpt>
        <trkpt lat="29.767485" lon="103.444179"><ele>1064.5243</ele><time>2026-04-20T21:26:38.000Z</time></trkpt>
        <trkpt lat="29.767529" lon="103.444204"><ele>1064.5599</ele><time>2026-04-20T21:26:41.000Z</time></trkpt>
        <trkpt lat="29.76757" lon="103.444236"><ele>1062.5765</ele><time>2026-04-20T21:26:47.000Z</time></trkpt>
        <trkpt lat="29.767615" lon="103.44425"><ele>1062.7599</ele><time>2026-04-20T21:26:50.000Z</time></trkpt>
        <trkpt lat="29.767636" lon="103.444296"><ele>1061.3915</ele><time>2026-04-20T21:26:52.000Z</time></trkpt>
        <trkpt lat="29.767681" lon="103.444354"><ele>1060.738</ele><time>2026-04-20T21:27:05.000Z</time></trkpt>
        <trkpt lat="29.76772" lon="103.444393"><ele>1060.0415</ele><time>2026-04-20T21:27:09.000Z</time></trkpt>
        <trkpt lat="29.767755" lon="103.444428"><ele>1060.5503</ele><time>2026-04-20T21:27:13.000Z</time></trkpt>
        <trkpt lat="29.767813" lon="103.444448"><ele>1060.7336</ele><time>2026-04-20T21:27:17.000Z</time></trkpt>
        <trkpt lat="29.767863" lon="103.44448"><ele>1059.2458</ele><time>2026-04-20T21:27:21.000Z</time></trkpt>
        <trkpt lat="29.767899" lon="103.444521"><ele>1059.3156</ele><time>2026-04-20T21:27:24.000Z</time></trkpt>
        <trkpt lat="29.767911" lon="103.444582"><ele>1060.1677</ele><time>2026-04-20T21:27:28.000Z</time></trkpt>
        <trkpt lat="29.767928" lon="103.444648"><ele>1062.0225</ele><time>2026-04-20T21:27:33.000Z</time></trkpt>
        <trkpt lat="29.767967" lon="103.44468"><ele>1060.7916</ele><time>2026-04-20T21:27:37.000Z</time></trkpt>
        <trkpt lat="29.768002" lon="103.444717"><ele>1059.3337</ele><time>2026-04-20T21:27:43.000Z</time></trkpt>
        <trkpt lat="29.768042" lon="103.444743"><ele>1057.6716</ele><time>2026-04-20T21:27:48.000Z</time></trkpt>
        <trkpt lat="29.768052" lon="103.444795"><ele>1056.6343</ele><time>2026-04-20T21:27:52.000Z</time></trkpt>
        <trkpt lat="29.768056" lon="103.444847"><ele>1056.8268</ele><time>2026-04-20T21:27:56.000Z</time></trkpt>
        <trkpt lat="29.768074" lon="103.444906"><ele>1056.942</ele><time>2026-04-20T21:28:00.000Z</time></trkpt>
        <trkpt lat="29.768107" lon="103.444951"><ele>1057.0591</ele><time>2026-04-20T21:28:03.000Z</time></trkpt>
        <trkpt lat="29.768145" lon="103.444985"><ele>1057.5284</ele><time>2026-04-20T21:28:06.000Z</time></trkpt>
        <trkpt lat="29.768173" lon="103.445038"><ele>1056.2501</ele><time>2026-04-20T21:28:10.000Z</time></trkpt>
        <trkpt lat="29.768206" lon="103.445087"><ele>1056.3256</ele><time>2026-04-20T21:28:14.000Z</time></trkpt>
        <trkpt lat="29.768237" lon="103.445128"><ele>1056.705</ele><time>2026-04-20T21:28:19.000Z</time></trkpt>
        <trkpt lat="29.768274" lon="103.445165"><ele>1054.8871</ele><time>2026-04-20T21:28:25.000Z</time></trkpt>
        <trkpt lat="29.768303" lon="103.445213"><ele>1053.3685</ele><time>2026-04-20T21:28:30.000Z</time></trkpt>
        <trkpt lat="29.768337" lon="103.445253"><ele>1051.5422</ele><time>2026-04-20T21:28:34.000Z</time></trkpt>
        <trkpt lat="29.768357" lon="103.4453"><ele>1049.873</ele><time>2026-04-20T21:28:39.000Z</time></trkpt>
        <trkpt lat="29.768381" lon="103.445356"><ele>1047.8308</ele><time>2026-04-20T21:28:43.000Z</time></trkpt>
        <trkpt lat="29.768422" lon="103.445386"><ele>1046.4598</ele><time>2026-04-20T21:28:48.000Z</time></trkpt>
        <trkpt lat="29.768464" lon="103.445419"><ele>1046.4232</ele><time>2026-04-20T21:28:53.000Z</time></trkpt>
        <trkpt lat="29.768505" lon="103.445442"><ele>1045.7355</ele><time>2026-04-20T21:28:57.000Z</time></trkpt>
        <trkpt lat="29.768534" lon="103.445488"><ele>1043.4159</ele><time>2026-04-20T21:29:02.000Z</time></trkpt>
        <trkpt lat="29.768581" lon="103.445519"><ele>1042.8174</ele><time>2026-04-20T21:29:07.000Z</time></trkpt>
        <trkpt lat="29.768624" lon="103.445548"><ele>1043.3105</ele><time>2026-04-20T21:29:11.000Z</time></trkpt>
        <trkpt lat="29.768662" lon="103.445584"><ele>1043.6672</ele><time>2026-04-20T21:29:16.000Z</time></trkpt>
        <trkpt lat="29.768701" lon="103.445623"><ele>1044.153</ele><time>2026-04-20T21:29:20.000Z</time></trkpt>
        <trkpt lat="29.768744" lon="103.445641"><ele>1043.2277</ele><time>2026-04-20T21:29:24.000Z</time></trkpt>
        <trkpt lat="29.768764" lon="103.445697"><ele>1041.6357</ele><time>2026-04-20T21:29:31.000Z</time></trkpt>
        <trkpt lat="29.768798" lon="103.445745"><ele>1041.6942</ele><time>2026-04-20T21:29:35.000Z</time></trkpt>
        <trkpt lat="29.768811" lon="103.445798"><ele>1040.4955</ele><time>2026-04-20T21:29:42.000Z</time></trkpt>
        <trkpt lat="29.768845" lon="103.445857"><ele>1040.5151</ele><time>2026-04-20T21:29:47.000Z</time></trkpt>
        <trkpt lat="29.768885" lon="103.445891"><ele>1039.3967</ele><time>2026-04-20T21:29:52.000Z</time></trkpt>
        <trkpt lat="29.768903" lon="103.445942"><ele>1038.6664</ele><time>2026-04-20T21:29:56.000Z</time></trkpt>
        <trkpt lat="29.768946" lon="103.445981"><ele>1036.8376</ele><time>2026-04-20T21:30:01.000Z</time></trkpt>
        <trkpt lat="29.768993" lon="103.446019"><ele>1035.558</ele><time>2026-04-20T21:30:07.000Z</time></trkpt>
        <trkpt lat="29.769039" lon="103.446063"><ele>1030.7418</ele><time>2026-04-20T21:30:11.000Z</time></trkpt>
        <trkpt lat="29.769087" lon="103.446071"><ele>1028.7544</ele><time>2026-04-20T21:30:15.000Z</time></trkpt>
        <trkpt lat="29.769132" lon="103.446094"><ele>1029.3965</ele><time>2026-04-20T21:30:19.000Z</time></trkpt>
        <trkpt lat="29.769113" lon="103.446146"><ele>1038.2479</ele><time>2026-04-20T21:30:39.000Z</time></trkpt>
        <trkpt lat="29.76906" lon="103.446092"><ele>1037.5619</ele><time>2026-04-20T21:30:50.000Z</time></trkpt>
        <trkpt lat="29.769112" lon="103.446114"><ele>1036.0369</ele><time>2026-04-20T21:31:07.000Z</time></trkpt>
        <trkpt lat="29.769161" lon="103.446147"><ele>1036.0963</ele><time>2026-04-20T21:31:34.000Z</time></trkpt>
        <trkpt lat="29.769192" lon="103.446199"><ele>1034.5032</ele><time>2026-04-20T21:31:40.000Z</time></trkpt>
        <trkpt lat="29.769215" lon="103.446248"><ele>1033.6212</ele><time>2026-04-20T21:31:44.000Z</time></trkpt>
        <trkpt lat="29.769244" lon="103.446203"><ele>1033.2185</ele><time>2026-04-20T21:32:00.000Z</time></trkpt>
        <trkpt lat="29.769299" lon="103.446156"><ele>1033.5355</ele><time>2026-04-20T21:32:02.000Z</time></trkpt>
        <trkpt lat="29.769271" lon="103.446225"><ele>1036.4243</ele><time>2026-04-20T21:32:17.000Z</time></trkpt>
        <trkpt lat="29.769224" lon="103.446249"><ele>1033.8625</ele><time>2026-04-20T21:32:25.000Z</time></trkpt>
        <trkpt lat="29.769244" lon="103.446296"><ele>1030.9722</ele><time>2026-04-20T21:32:34.000Z</time></trkpt>
        <trkpt lat="29.769276" lon="103.446338"><ele>1031.5375</ele><time>2026-04-20T21:32:38.000Z</time></trkpt>
        <trkpt lat="29.769306" lon="103.446394"><ele>1032.4062</ele><time>2026-04-20T21:32:40.000Z</time></trkpt>
        <trkpt lat="29.769294" lon="103.446455"><ele>1030.2792</ele><time>2026-04-20T21:32:45.000Z</time></trkpt>
        <trkpt lat="29.769264" lon="103.446404"><ele>1034.3663</ele><time>2026-04-20T21:32:53.000Z</time></trkpt>
        <trkpt lat="29.769301" lon="103.446452"><ele>1029.9702</ele><time>2026-04-20T21:33:00.000Z</time></trkpt>
        <trkpt lat="29.769346" lon="103.446434"><ele>1026.6116</ele><time>2026-04-20T21:33:10.000Z</time></trkpt>
        <trkpt lat="29.769398" lon="103.446436"><ele>1026.8033</ele><time>2026-04-20T21:33:15.000Z</time></trkpt>
        <trkpt lat="29.769389" lon="103.446491"><ele>1029.6859</ele><time>2026-04-20T21:33:25.000Z</time></trkpt>
        <trkpt lat="29.769408" lon="103.446545"><ele>1030.5841</ele><time>2026-04-20T21:33:31.000Z</time></trkpt>
        <trkpt lat="29.769449" lon="103.446604"><ele>1032.3358</ele><time>2026-04-20T21:33:36.000Z</time></trkpt>
        <trkpt lat="29.769493" lon="103.446614"><ele>1028.5728</ele><time>2026-04-20T21:33:40.000Z</time></trkpt>
        <trkpt lat="29.769551" lon="103.446628"><ele>1026.4904</ele><time>2026-04-20T21:33:43.000Z</time></trkpt>
        <trkpt lat="29.769584" lon="103.446676"><ele>1027.0499</ele><time>2026-04-20T21:33:44.000Z</time></trkpt>
        <trkpt lat="29.769606" lon="103.446725"><ele>1029.323</ele><time>2026-04-20T21:33:49.000Z</time></trkpt>
        <trkpt lat="29.769618" lon="103.446801"><ele>1032.4961</ele><time>2026-04-20T21:33:57.000Z</time></trkpt>
        <trkpt lat="29.769638" lon="103.446851"><ele>1030.0453</ele><time>2026-04-20T21:34:02.000Z</time></trkpt>
        <trkpt lat="29.769676" lon="103.446893"><ele>1028.4052</ele><time>2026-04-20T21:34:07.000Z</time></trkpt>
        <trkpt lat="29.769713" lon="103.446926"><ele>1025.6816</ele><time>2026-04-20T21:34:12.000Z</time></trkpt>
        <trkpt lat="29.769747" lon="103.446976"><ele>1024.2731</ele><time>2026-04-20T21:34:18.000Z</time></trkpt>
        <trkpt lat="29.769794" lon="103.447014"><ele>1023.0049</ele><time>2026-04-20T21:34:22.000Z</time></trkpt>
        <trkpt lat="29.769827" lon="103.447065"><ele>1021.53625</ele><time>2026-04-20T21:34:26.000Z</time></trkpt>
        <trkpt lat="29.769869" lon="103.4471"><ele>1020.73804</ele><time>2026-04-20T21:34:29.000Z</time></trkpt>
        <trkpt lat="29.769898" lon="103.447145"><ele>1017.64685</ele><time>2026-04-20T21:34:34.000Z</time></trkpt>
        <trkpt lat="29.769943" lon="103.447161"><ele>1017.06714</ele><time>2026-04-20T21:34:39.000Z</time></trkpt>
        <trkpt lat="29.769984" lon="103.44719"><ele>1015.5092</ele><time>2026-04-20T21:34:44.000Z</time></trkpt>
        <trkpt lat="29.770037" lon="103.447209"><ele>1014.6744</ele><time>2026-04-20T21:34:52.000Z</time></trkpt>
        <trkpt lat="29.770102" lon="103.447214"><ele>1014.9473</ele><time>2026-04-20T21:34:55.000Z</time></trkpt>
        <trkpt lat="29.770131" lon="103.447263"><ele>1013.4752</ele><time>2026-04-20T21:35:01.000Z</time></trkpt>
        <trkpt lat="29.770155" lon="103.447312"><ele>1013.5608</ele><time>2026-04-20T21:35:05.000Z</time></trkpt>
        <trkpt lat="29.770205" lon="103.447323"><ele>1012.4037</ele><time>2026-04-20T21:35:10.000Z</time></trkpt>
        <trkpt lat="29.770253" lon="103.447351"><ele>1010.9138</ele><time>2026-04-20T21:35:14.000Z</time></trkpt>
        <trkpt lat="29.770289" lon="103.44739"><ele>1011.02124</ele><time>2026-04-20T21:35:17.000Z</time></trkpt>
        <trkpt lat="29.770341" lon="103.447423"><ele>1012.0721</ele><time>2026-04-20T21:35:22.000Z</time></trkpt>
        <trkpt lat="29.770394" lon="103.447431"><ele>1010.5741</ele><time>2026-04-20T21:35:27.000Z</time></trkpt>
        <trkpt lat="29.770419" lon="103.447384"><ele>1010.2519</ele><time>2026-04-20T21:35:31.000Z</time></trkpt>
        <trkpt lat="29.770457" lon="103.447346"><ele>1011.8287</ele><time>2026-04-20T21:35:35.000Z</time></trkpt>
        <trkpt lat="29.770499" lon="103.447315"><ele>1012.5375</ele><time>2026-04-20T21:35:41.000Z</time></trkpt>
        <trkpt lat="29.770562" lon="103.447313"><ele>1014.5928</ele><time>2026-04-20T21:35:45.000Z</time></trkpt>
        <trkpt lat="29.770577" lon="103.447262"><ele>1015.53925</ele><time>2026-04-20T21:35:49.000Z</time></trkpt>
        <trkpt lat="29.770584" lon="103.447199"><ele>1016.08545</ele><time>2026-04-20T21:35:55.000Z</time></trkpt>
        <trkpt lat="29.770612" lon="103.447245"><ele>1016.45123</ele><time>2026-04-20T21:36:09.000Z</time></trkpt>
        <trkpt lat="29.77066" lon="103.447249"><ele>1017.4932</ele><time>2026-04-20T21:36:12.000Z</time></trkpt>
        <trkpt lat="29.770702" lon="103.447277"><ele>1015.69617</ele><time>2026-04-20T21:36:22.000Z</time></trkpt>
        <trkpt lat="29.770745" lon="103.447296"><ele>1013.2213</ele><time>2026-04-20T21:36:41.000Z</time></trkpt>
        <trkpt lat="29.770793" lon="103.447276"><ele>1011.5322</ele><time>2026-04-20T21:36:48.000Z</time></trkpt>
        <trkpt lat="29.770824" lon="103.44732"><ele>1010.58405</ele><time>2026-04-20T21:36:56.000Z</time></trkpt>
        <trkpt lat="29.770887" lon="103.447359"><ele>1010.3275</ele><time>2026-04-20T21:37:03.000Z</time></trkpt>
        <trkpt lat="29.770929" lon="103.447389"><ele>1008.6163</ele><time>2026-04-20T21:37:12.000Z</time></trkpt>
        <trkpt lat="29.770965" lon="103.447436"><ele>1010.9443</ele><time>2026-04-20T21:37:16.000Z</time></trkpt>
        <trkpt lat="29.771009" lon="103.447454"><ele>1009.683</ele><time>2026-04-20T21:37:19.000Z</time></trkpt>
        <trkpt lat="29.771041" lon="103.447492"><ele>1010.66174</ele><time>2026-04-20T21:37:22.000Z</time></trkpt>
        <trkpt lat="29.771081" lon="103.447537"><ele>1010.7288</ele><time>2026-04-20T21:37:25.000Z</time></trkpt>
        <trkpt lat="29.771133" lon="103.447591"><ele>1010.0089</ele><time>2026-04-20T21:37:41.000Z</time></trkpt>
        <trkpt lat="29.771175" lon="103.447617"><ele>1008.9864</ele><time>2026-04-20T21:37:45.000Z</time></trkpt>
        <trkpt lat="29.771204" lon="103.447664"><ele>1008.7635</ele><time>2026-04-20T21:37:50.000Z</time></trkpt>
        <trkpt lat="29.771249" lon="103.447686"><ele>1009.3825</ele><time>2026-04-20T21:37:53.000Z</time></trkpt>
        <trkpt lat="29.771288" lon="103.447732"><ele>1009.3798</ele><time>2026-04-20T21:37:57.000Z</time></trkpt>
        <trkpt lat="29.771329" lon="103.447758"><ele>1010.2282</ele><time>2026-04-20T21:38:02.000Z</time></trkpt>
        <trkpt lat="29.771364" lon="103.447798"><ele>1009.7412</ele><time>2026-04-20T21:38:05.000Z</time></trkpt>
        <trkpt lat="29.771393" lon="103.447845"><ele>1008.05273</ele><time>2026-04-20T21:38:09.000Z</time></trkpt>
        <trkpt lat="29.771415" lon="103.447892"><ele>1010.1436</ele><time>2026-04-20T21:38:12.000Z</time></trkpt>
        <trkpt lat="29.771457" lon="103.447913"><ele>1004.4149</ele><time>2026-04-20T21:38:21.000Z</time></trkpt>
        <trkpt lat="29.77146" lon="103.447859"><ele>1001.2728</ele><time>2026-04-20T21:38:36.000Z</time></trkpt>
        <trkpt lat="29.771572" lon="103.4478"><ele>1002.08655</ele><time>2026-04-20T21:38:37.000Z</time></trkpt>
        <trkpt lat="29.771515" lon="103.447752"><ele>1001.684</ele><time>2026-04-20T21:38:38.000Z</time></trkpt>
        <trkpt lat="29.771485" lon="103.447817"><ele>1001.88434</ele><time>2026-04-20T21:38:39.000Z</time></trkpt>
        <trkpt lat="29.77144" lon="103.447831"><ele>1003.41315</ele><time>2026-04-20T21:38:42.000Z</time></trkpt>
        <trkpt lat="29.771395" lon="103.447863"><ele>1012.8437</ele><time>2026-04-20T21:39:01.000Z</time></trkpt>
        <trkpt lat="29.771425" lon="103.447905"><ele>1008.4323</ele><time>2026-04-20T21:39:15.000Z</time></trkpt>
        <trkpt lat="29.771451" lon="103.447861"><ele>1006.7122</ele><time>2026-04-20T21:39:53.000Z</time></trkpt>
        <trkpt lat="29.771476" lon="103.447922"><ele>1006.29193</ele><time>2026-04-20T21:39:59.000Z</time></trkpt>
        <trkpt lat="29.77152" lon="103.44794"><ele>1005.44275</ele><time>2026-04-20T21:40:06.000Z</time></trkpt>
        <trkpt lat="29.771572" lon="103.447959"><ele>1002.9953</ele><time>2026-04-20T21:40:11.000Z</time></trkpt>
        <trkpt lat="29.771611" lon="103.44799"><ele>995.76965</ele><time>2026-04-20T21:40:19.000Z</time></trkpt>
        <trkpt lat="29.771659" lon="103.448008"><ele>994.57074</ele><time>2026-04-20T21:40:39.000Z</time></trkpt>
        <trkpt lat="29.771685" lon="103.448075"><ele>994.8374</ele><time>2026-04-20T21:40:51.000Z</time></trkpt>
        <trkpt lat="29.771675" lon="103.448016"><ele>992.55115</ele><time>2026-04-20T21:41:13.000Z</time></trkpt>
        <trkpt lat="29.771732" lon="103.448017"><ele>992.4509</ele><time>2026-04-20T21:41:45.000Z</time></trkpt>
        <trkpt lat="29.771791" lon="103.448018"><ele>990.0767</ele><time>2026-04-20T21:41:55.000Z</time></trkpt>
        <trkpt lat="29.771791" lon="103.447966"><ele>987.5749</ele><time>2026-04-20T21:42:17.000Z</time></trkpt>
        <trkpt lat="29.771839" lon="103.447968"><ele>987.6453</ele><time>2026-04-20T21:42:38.000Z</time></trkpt>
        <trkpt lat="29.771889" lon="103.447966"><ele>986.09875</ele><time>2026-04-20T21:42:50.000Z</time></trkpt>
        <trkpt lat="29.77193" lon="103.447989"><ele>984.25824</ele><time>2026-04-20T21:43:28.000Z</time></trkpt>
        <trkpt lat="29.771967" lon="103.448038"><ele>984.1914</ele><time>2026-04-20T21:43:34.000Z</time></trkpt>
        <trkpt lat="29.772021" lon="103.448065"><ele>983.4817</ele><time>2026-04-20T21:43:38.000Z</time></trkpt>
        <trkpt lat="29.772067" lon="103.448094"><ele>983.3246</ele><time>2026-04-20T21:43:42.000Z</time></trkpt>
        <trkpt lat="29.772097" lon="103.448139"><ele>983.01556</ele><time>2026-04-20T21:43:46.000Z</time></trkpt>
        <trkpt lat="29.772137" lon="103.448174"><ele>983.7168</ele><time>2026-04-20T21:43:50.000Z</time></trkpt>
        <trkpt lat="29.772203" lon="103.448204"><ele>982.8481</ele><time>2026-04-20T21:43:53.000Z</time></trkpt>
        <trkpt lat="29.772254" lon="103.448197"><ele>983.08936</ele><time>2026-04-20T21:43:56.000Z</time></trkpt>
        <trkpt lat="29.7723" lon="103.448168"><ele>983.9405</ele><time>2026-04-20T21:43:59.000Z</time></trkpt>
        <trkpt lat="29.772354" lon="103.448154"><ele>983.83813</ele><time>2026-04-20T21:44:03.000Z</time></trkpt>
        <trkpt lat="29.772397" lon="103.448179"><ele>982.8499</ele><time>2026-04-20T21:44:09.000Z</time></trkpt>
        <trkpt lat="29.77243" lon="103.448227"><ele>982.9676</ele><time>2026-04-20T21:44:15.000Z</time></trkpt>
        <trkpt lat="29.77248" lon="103.448218"><ele>984.492</ele><time>2026-04-20T21:44:24.000Z</time></trkpt>
        <trkpt lat="29.772532" lon="103.448222"><ele>987.73444</ele><time>2026-04-20T21:44:29.000Z</time></trkpt>
        <trkpt lat="29.772581" lon="103.448216"><ele>990.312</ele><time>2026-04-20T21:44:39.000Z</time></trkpt>
        <trkpt lat="29.772625" lon="103.448207"><ele>992.4389</ele><time>2026-04-20T21:44:48.000Z</time></trkpt>
        <trkpt lat="29.772668" lon="103.448174"><ele>994.6238</ele><time>2026-04-20T21:45:18.000Z</time></trkpt>
        <trkpt lat="29.772708" lon="103.448201"><ele>994.89746</ele><time>2026-04-20T21:45:23.000Z</time></trkpt>
        <trkpt lat="29.772786" lon="103.44822"><ele>993.9159</ele><time>2026-04-20T21:45:26.000Z</time></trkpt>
        <trkpt lat="29.772861" lon="103.448194"><ele>994.89905</ele><time>2026-04-20T21:45:28.000Z</time></trkpt>
        <trkpt lat="29.772906" lon="103.448186"><ele>995.02026</ele><time>2026-04-20T21:45:33.000Z</time></trkpt>
        <trkpt lat="29.772973" lon="103.448181"><ele>993.6189</ele><time>2026-04-20T21:45:35.000Z</time></trkpt>
        <trkpt lat="29.773021" lon="103.448161"><ele>993.83484</ele><time>2026-04-20T21:45:37.000Z</time></trkpt>
        <trkpt lat="29.773076" lon="103.448169"><ele>994.22205</ele><time>2026-04-20T21:45:40.000Z</time></trkpt>
        <trkpt lat="29.773127" lon="103.448173"><ele>994.5488</ele><time>2026-04-20T21:45:43.000Z</time></trkpt>
        <trkpt lat="29.773174" lon="103.44818"><ele>996.25775</ele><time>2026-04-20T21:45:52.000Z</time></trkpt>
        <trkpt lat="29.773223" lon="103.448195"><ele>997.36896</ele><time>2026-04-20T21:45:58.000Z</time></trkpt>
        <trkpt lat="29.773259" lon="103.448163"><ele>997.794</ele><time>2026-04-20T21:46:01.000Z</time></trkpt>
        <trkpt lat="29.773309" lon="103.44817"><ele>998.571</ele><time>2026-04-20T21:46:06.000Z</time></trkpt>
        <trkpt lat="29.773349" lon="103.448142"><ele>998.9023</ele><time>2026-04-20T21:46:10.000Z</time></trkpt>
        <trkpt lat="29.773405" lon="103.448133"><ele>998.374</ele><time>2026-04-20T21:46:15.000Z</time></trkpt>
        <trkpt lat="29.773461" lon="103.448115"><ele>998.38495</ele><time>2026-04-20T21:46:20.000Z</time></trkpt>
        <trkpt lat="29.773499" lon="103.448083"><ele>999.40894</ele><time>2026-04-20T21:46:24.000Z</time></trkpt>
        <trkpt lat="29.773558" lon="103.448084"><ele>997.07306</ele><time>2026-04-20T21:46:28.000Z</time></trkpt>
        <trkpt lat="29.773605" lon="103.448089"><ele>994.83856</ele><time>2026-04-20T21:46:33.000Z</time></trkpt>
        <trkpt lat="29.773649" lon="103.448073"><ele>994.6689</ele><time>2026-04-20T21:46:37.000Z</time></trkpt>
        <trkpt lat="29.773694" lon="103.448063"><ele>993.84503</ele><time>2026-04-20T21:46:40.000Z</time></trkpt>
        <trkpt lat="29.773738" lon="103.448046"><ele>993.5776</ele><time>2026-04-20T21:46:43.000Z</time></trkpt>
        <trkpt lat="29.773785" lon="103.448026"><ele>993.3459</ele><time>2026-04-20T21:46:47.000Z</time></trkpt>
        <trkpt lat="29.773835" lon="103.448049"><ele>993.26526</ele><time>2026-04-20T21:46:52.000Z</time></trkpt>
        <trkpt lat="29.773883" lon="103.448051"><ele>994.272</ele><time>2026-04-20T21:46:58.000Z</time></trkpt>
        <trkpt lat="29.773934" lon="103.44804"><ele>996.50775</ele><time>2026-04-20T21:47:13.000Z</time></trkpt>
        <trkpt lat="29.773998" lon="103.44802"><ele>997.40875</ele><time>2026-04-20T21:47:34.000Z</time></trkpt>
        <trkpt lat="29.774047" lon="103.448028"><ele>998.4735</ele><time>2026-04-20T21:47:41.000Z</time></trkpt>
        <trkpt lat="29.774094" lon="103.448024"><ele>998.6534</ele><time>2026-04-20T21:47:44.000Z</time></trkpt>
        <trkpt lat="29.774153" lon="103.448018"><ele>998.2828</ele><time>2026-04-20T21:47:50.000Z</time></trkpt>
        <trkpt lat="29.774199" lon="103.448016"><ele>997.31006</ele><time>2026-04-20T21:47:53.000Z</time></trkpt>
        <trkpt lat="29.77425" lon="103.448012"><ele>997.4105</ele><time>2026-04-20T21:47:57.000Z</time></trkpt>
        <trkpt lat="29.774308" lon="103.447993"><ele>997.1452</ele><time>2026-04-20T21:48:01.000Z</time></trkpt>
        <trkpt lat="29.774373" lon="103.447982"><ele>996.92126</ele><time>2026-04-20T21:48:06.000Z</time></trkpt>
        <trkpt lat="29.774427" lon="103.447981"><ele>995.6732</ele><time>2026-04-20T21:48:11.000Z</time></trkpt>
        <trkpt lat="29.77448" lon="103.44799"><ele>994.77924</ele><time>2026-04-20T21:48:15.000Z</time></trkpt>
        <trkpt lat="29.774524" lon="103.448006"><ele>994.9388</ele><time>2026-04-20T21:48:20.000Z</time></trkpt>
        <trkpt lat="29.77457" lon="103.448023"><ele>995.593</ele><time>2026-04-20T21:48:23.000Z</time></trkpt>
        <trkpt lat="29.774616" lon="103.448041"><ele>995.26447</ele><time>2026-04-20T21:48:27.000Z</time></trkpt>
        <trkpt lat="29.774667" lon="103.448043"><ele>996.16064</ele><time>2026-04-20T21:48:31.000Z</time></trkpt>
        <trkpt lat="29.774732" lon="103.448015"><ele>998.8171</ele><time>2026-04-20T21:48:40.000Z</time></trkpt>
        <trkpt lat="29.774802" lon="103.448038"><ele>997.7217</ele><time>2026-04-20T21:48:42.000Z</time></trkpt>
        <trkpt lat="29.774835" lon="103.448077"><ele>997.7335</ele><time>2026-04-20T21:48:45.000Z</time></trkpt>
        <trkpt lat="29.77487" lon="103.448117"><ele>998.179</ele><time>2026-04-20T21:48:50.000Z</time></trkpt>
        <trkpt lat="29.774919" lon="103.448093"><ele>998.33057</ele><time>2026-04-20T21:48:59.000Z</time></trkpt>
        <trkpt lat="29.774964" lon="103.448102"><ele>998.00964</ele><time>2026-04-20T21:49:02.000Z</time></trkpt>
        <trkpt lat="29.775019" lon="103.44813"><ele>997.3934</ele><time>2026-04-20T21:49:08.000Z</time></trkpt>
        <trkpt lat="29.775062" lon="103.448183"><ele>998.501</ele><time>2026-04-20T21:49:15.000Z</time></trkpt>
        <trkpt lat="29.775113" lon="103.448201"><ele>997.31976</ele><time>2026-04-20T21:49:19.000Z</time></trkpt>
        <trkpt lat="29.775113" lon="103.448265"><ele>996.31604</ele><time>2026-04-20T21:49:24.000Z</time></trkpt>
        <trkpt lat="29.775103" lon="103.448317"><ele>996.33563</ele><time>2026-04-20T21:49:27.000Z</time></trkpt>
        <trkpt lat="29.775137" lon="103.448363"><ele>998.0592</ele><time>2026-04-20T21:49:33.000Z</time></trkpt>
        <trkpt lat="29.775172" lon="103.448396"><ele>997.86224</ele><time>2026-04-20T21:49:39.000Z</time></trkpt>
        <trkpt lat="29.775225" lon="103.44839"><ele>998.39746</ele><time>2026-04-20T21:49:45.000Z</time></trkpt>
        <trkpt lat="29.775284" lon="103.448392"><ele>999.06024</ele><time>2026-04-20T21:49:49.000Z</time></trkpt>
        <trkpt lat="29.775335" lon="103.448405"><ele>999.9722</ele><time>2026-04-20T21:49:53.000Z</time></trkpt>
        <trkpt lat="29.775376" lon="103.448427"><ele>1000.5411</ele><time>2026-04-20T21:49:58.000Z</time></trkpt>
        <trkpt lat="29.775435" lon="103.448452"><ele>1001.26086</ele><time>2026-04-20T21:50:01.000Z</time></trkpt>
        <trkpt lat="29.775455" lon="103.448504"><ele>1000.9251</ele><time>2026-04-20T21:50:04.000Z</time></trkpt>
        <trkpt lat="29.775471" lon="103.448562"><ele>999.5335</ele><time>2026-04-20T21:50:07.000Z</time></trkpt>
        <trkpt lat="29.775477" lon="103.448623"><ele>998.92755</ele><time>2026-04-20T21:50:09.000Z</time></trkpt>
        <trkpt lat="29.775465" lon="103.448694"><ele>998.2618</ele><time>2026-04-20T21:50:11.000Z</time></trkpt>
        <trkpt lat="29.775468" lon="103.448761"><ele>996.4482</ele><time>2026-04-20T21:50:13.000Z</time></trkpt>
        <trkpt lat="29.77547" lon="103.448831"><ele>995.44727</ele><time>2026-04-20T21:50:15.000Z</time></trkpt>
        <trkpt lat="29.775476" lon="103.448904"><ele>995.53186</ele><time>2026-04-20T21:50:17.000Z</time></trkpt>
        <trkpt lat="29.775486" lon="103.448961"><ele>995.7237</ele><time>2026-04-20T21:50:19.000Z</time></trkpt>
        <trkpt lat="29.775476" lon="103.449017"><ele>995.43463</ele><time>2026-04-20T21:50:21.000Z</time></trkpt>
        <trkpt lat="29.775472" lon="103.449076"><ele>996.8989</ele><time>2026-04-20T21:50:24.000Z</time></trkpt>
        <trkpt lat="29.775524" lon="103.449087"><ele>997.2336</ele><time>2026-04-20T21:50:29.000Z</time></trkpt>
        <trkpt lat="29.77557" lon="103.449112"><ele>997.07764</ele><time>2026-04-20T21:50:32.000Z</time></trkpt>
        <trkpt lat="29.775612" lon="103.449166"><ele>995.6688</ele><time>2026-04-20T21:50:42.000Z</time></trkpt>
        <trkpt lat="29.775654" lon="103.449198"><ele>995.0894</ele><time>2026-04-20T21:50:49.000Z</time></trkpt>
        <trkpt lat="29.775674" lon="103.449253"><ele>995.0297</ele><time>2026-04-20T21:50:54.000Z</time></trkpt>
        <trkpt lat="29.775706" lon="103.449291"><ele>994.88715</ele><time>2026-04-20T21:50:58.000Z</time></trkpt>
        <trkpt lat="29.775719" lon="103.449346"><ele>995.1962</ele><time>2026-04-20T21:51:02.000Z</time></trkpt>
        <trkpt lat="29.775739" lon="103.449404"><ele>995.2199</ele><time>2026-04-20T21:51:08.000Z</time></trkpt>
        <trkpt lat="29.775739" lon="103.449461"><ele>993.67786</ele><time>2026-04-20T21:51:12.000Z</time></trkpt>
        <trkpt lat="29.775735" lon="103.449529"><ele>993.6704</ele><time>2026-04-20T21:51:17.000Z</time></trkpt>
        <trkpt lat="29.775745" lon="103.449589"><ele>993.5135</ele><time>2026-04-20T21:51:22.000Z</time></trkpt>
        <trkpt lat="29.77579" lon="103.449625"><ele>993.1661</ele><time>2026-04-20T21:51:27.000Z</time></trkpt>
        <trkpt lat="29.775835" lon="103.449648"><ele>992.96704</ele><time>2026-04-20T21:51:31.000Z</time></trkpt>
        <trkpt lat="29.775887" lon="103.449666"><ele>992.52795</ele><time>2026-04-20T21:51:37.000Z</time></trkpt>
        <trkpt lat="29.775941" lon="103.449674"><ele>993.1412</ele><time>2026-04-20T21:51:41.000Z</time></trkpt>
        <trkpt lat="29.775988" lon="103.449683"><ele>992.0907</ele><time>2026-04-20T21:51:46.000Z</time></trkpt>
        <trkpt lat="29.776022" lon="103.44972"><ele>990.4123</ele><time>2026-04-20T21:51:51.000Z</time></trkpt>
        <trkpt lat="29.776053" lon="103.449763"><ele>989.98755</ele><time>2026-04-20T21:51:56.000Z</time></trkpt>
        <trkpt lat="29.7761" lon="103.449783"><ele>986.8454</ele><time>2026-04-20T21:52:01.000Z</time></trkpt>
        <trkpt lat="29.776149" lon="103.449804"><ele>987.1934</ele><time>2026-04-20T21:52:05.000Z</time></trkpt>
        <trkpt lat="29.776208" lon="103.449803"><ele>983.75757</ele><time>2026-04-20T21:52:11.000Z</time></trkpt>
        <trkpt lat="29.77625" lon="103.449785"><ele>983.26764</ele><time>2026-04-20T21:52:14.000Z</time></trkpt>
        <trkpt lat="29.776299" lon="103.449788"><ele>982.4288</ele><time>2026-04-20T21:52:19.000Z</time></trkpt>
        <trkpt lat="29.77634" lon="103.449833"><ele>982.7813</ele><time>2026-04-20T21:52:25.000Z</time></trkpt>
        <trkpt lat="29.776296" lon="103.449856"><ele>984.0058</ele><time>2026-04-20T21:52:35.000Z</time></trkpt>
        <trkpt lat="29.776274" lon="103.449905"><ele>984.2525</ele><time>2026-04-20T21:53:00.000Z</time></trkpt>
        <trkpt lat="29.776259" lon="103.449956"><ele>979.89764</ele><time>2026-04-20T21:54:04.000Z</time></trkpt>
        <trkpt lat="29.776309" lon="103.449961"><ele>983.7195</ele><time>2026-04-20T21:54:30.000Z</time></trkpt>
        <trkpt lat="29.77635" lon="103.449927"><ele>984.6926</ele><time>2026-04-20T21:54:59.000Z</time></trkpt>
        <trkpt lat="29.776367" lon="103.449876"><ele>982.60706</ele><time>2026-04-20T21:55:26.000Z</time></trkpt>
        <trkpt lat="29.776354" lon="103.449927"><ele>985.0577</ele><time>2026-04-20T21:56:13.000Z</time></trkpt>
        <trkpt lat="29.776383" lon="103.449869"><ele>986.4124</ele><time>2026-04-20T21:56:52.000Z</time></trkpt>
        <trkpt lat="29.776393" lon="103.449813"><ele>986.26245</ele><time>2026-04-20T21:56:58.000Z</time></trkpt>
        <trkpt lat="29.776429" lon="103.449777"><ele>985.3453</ele><time>2026-04-20T21:57:04.000Z</time></trkpt>
        <trkpt lat="29.776474" lon="103.449754"><ele>983.7111</ele><time>2026-04-20T21:57:08.000Z</time></trkpt>
        <trkpt lat="29.776534" lon="103.449763"><ele>981.7521</ele><time>2026-04-20T21:57:15.000Z</time></trkpt>
        <trkpt lat="29.776589" lon="103.449772"><ele>982.1866</ele><time>2026-04-20T21:57:19.000Z</time></trkpt>
        <trkpt lat="29.776639" lon="103.449799"><ele>982.09454</ele><time>2026-04-20T21:57:24.000Z</time></trkpt>
        <trkpt lat="29.776655" lon="103.449858"><ele>980.16156</ele><time>2026-04-20T21:57:29.000Z</time></trkpt>
        <trkpt lat="29.77667" lon="103.449917"><ele>979.4216</ele><time>2026-04-20T21:57:33.000Z</time></trkpt>
        <trkpt lat="29.776681" lon="103.449968"><ele>977.8645</ele><time>2026-04-20T21:57:38.000Z</time></trkpt>
        <trkpt lat="29.776705" lon="103.450015"><ele>975.6174</ele><time>2026-04-20T21:57:42.000Z</time></trkpt>
        <trkpt lat="29.776747" lon="103.450043"><ele>972.6656</ele><time>2026-04-20T21:57:47.000Z</time></trkpt>
        <trkpt lat="29.776799" lon="103.450078"><ele>971.63007</ele><time>2026-04-20T21:57:51.000Z</time></trkpt>
        <trkpt lat="29.77684" lon="103.450116"><ele>970.57495</ele><time>2026-04-20T21:57:54.000Z</time></trkpt>
        <trkpt lat="29.776882" lon="103.450145"><ele>969.1199</ele><time>2026-04-20T21:57:57.000Z</time></trkpt>
        <trkpt lat="29.776921" lon="103.450176"><ele>967.9726</ele><time>2026-04-20T21:58:00.000Z</time></trkpt>
        <trkpt lat="29.776935" lon="103.450237"><ele>966.9732</ele><time>2026-04-20T21:58:03.000Z</time></trkpt>
        <trkpt lat="29.77695" lon="103.450296"><ele>966.1012</ele><time>2026-04-20T21:58:06.000Z</time></trkpt>
        <trkpt lat="29.776959" lon="103.450351"><ele>965.15936</ele><time>2026-04-20T21:58:09.000Z</time></trkpt>
        <trkpt lat="29.77697" lon="103.450408"><ele>964.5064</ele><time>2026-04-20T21:58:14.000Z</time></trkpt>
        <trkpt lat="29.777" lon="103.450456"><ele>963.1488</ele><time>2026-04-20T21:58:19.000Z</time></trkpt>
        <trkpt lat="29.777009" lon="103.450512"><ele>961.7523</ele><time>2026-04-20T21:58:23.000Z</time></trkpt>
        <trkpt lat="29.777027" lon="103.450561"><ele>962.45856</ele><time>2026-04-20T21:58:27.000Z</time></trkpt>
        <trkpt lat="29.777073" lon="103.450561"><ele>959.5423</ele><time>2026-04-20T21:58:33.000Z</time></trkpt>
        <trkpt lat="29.777132" lon="103.450566"><ele>959.7858</ele><time>2026-04-20T21:58:39.000Z</time></trkpt>
        <trkpt lat="29.777183" lon="103.450591"><ele>957.69403</ele><time>2026-04-20T21:58:45.000Z</time></trkpt>
        <trkpt lat="29.777236" lon="103.450602"><ele>956.78394</ele><time>2026-04-20T21:58:49.000Z</time></trkpt>
        <trkpt lat="29.777288" lon="103.450589"><ele>954.526</ele><time>2026-04-20T21:58:57.000Z</time></trkpt>
        <trkpt lat="29.777334" lon="103.450584"><ele>953.60535</ele><time>2026-04-20T21:59:00.000Z</time></trkpt>
        <trkpt lat="29.777378" lon="103.450554"><ele>954.0387</ele><time>2026-04-20T21:59:04.000Z</time></trkpt>
        <trkpt lat="29.777428" lon="103.45056"><ele>953.87244</ele><time>2026-04-20T21:59:08.000Z</time></trkpt>
        <trkpt lat="29.777413" lon="103.450609"><ele>953.4013</ele><time>2026-04-20T21:59:33.000Z</time></trkpt>
        <trkpt lat="29.777454" lon="103.450586"><ele>952.70624</ele><time>2026-04-20T21:59:38.000Z</time></trkpt>
        <trkpt lat="29.777512" lon="103.450583"><ele>952.0496</ele><time>2026-04-20T21:59:42.000Z</time></trkpt>
        <trkpt lat="29.777561" lon="103.450592"><ele>951.9362</ele><time>2026-04-20T21:59:50.000Z</time></trkpt>
        <trkpt lat="29.77759" lon="103.450641"><ele>949.86505</ele><time>2026-04-20T21:59:55.000Z</time></trkpt>
        <trkpt lat="29.777631" lon="103.450681"><ele>948.2708</ele><time>2026-04-20T22:00:00.000Z</time></trkpt>
        <trkpt lat="29.777671" lon="103.450719"><ele>946.31683</ele><time>2026-04-20T22:00:05.000Z</time></trkpt>
        <trkpt lat="29.777713" lon="103.450765"><ele>947.6162</ele><time>2026-04-20T22:00:08.000Z</time></trkpt>
        <trkpt lat="29.777751" lon="103.450808"><ele>947.7788</ele><time>2026-04-20T22:00:12.000Z</time></trkpt>
        <trkpt lat="29.777772" lon="103.45086"><ele>947.7255</ele><time>2026-04-20T22:00:16.000Z</time></trkpt>
        <trkpt lat="29.777824" lon="103.450889"><ele>947.87067</ele><time>2026-04-20T22:00:21.000Z</time></trkpt>
        <trkpt lat="29.777879" lon="103.450925"><ele>948.3881</ele><time>2026-04-20T22:00:31.000Z</time></trkpt>
        <trkpt lat="29.777917" lon="103.450968"><ele>948.4717</ele><time>2026-04-20T22:00:36.000Z</time></trkpt>
        <trkpt lat="29.777959" lon="103.450995"><ele>948.5107</ele><time>2026-04-20T22:00:42.000Z</time></trkpt>
        <trkpt lat="29.778005" lon="103.450996"><ele>945.98315</ele><time>2026-04-20T22:00:46.000Z</time></trkpt>
        <trkpt lat="29.778058" lon="103.450984"><ele>943.63513</ele><time>2026-04-20T22:00:50.000Z</time></trkpt>
        <trkpt lat="29.778105" lon="103.451012"><ele>942.3791</ele><time>2026-04-20T22:00:55.000Z</time></trkpt>
        <trkpt lat="29.778151" lon="103.451043"><ele>942.67413</ele><time>2026-04-20T22:01:02.000Z</time></trkpt>
        <trkpt lat="29.778204" lon="103.451066"><ele>941.9352</ele><time>2026-04-20T22:01:07.000Z</time></trkpt>
        <trkpt lat="29.778255" lon="103.451051"><ele>942.1965</ele><time>2026-04-20T22:01:11.000Z</time></trkpt>
        <trkpt lat="29.778295" lon="103.451021"><ele>942.2664</ele><time>2026-04-20T22:01:15.000Z</time></trkpt>
        <trkpt lat="29.778349" lon="103.451018"><ele>943.0248</ele><time>2026-04-20T22:01:20.000Z</time></trkpt>
        <trkpt lat="29.778388" lon="103.451045"><ele>942.683</ele><time>2026-04-20T22:01:24.000Z</time></trkpt>
        <trkpt lat="29.778437" lon="103.45107"><ele>940.88855</ele><time>2026-04-20T22:01:27.000Z</time></trkpt>
        <trkpt lat="29.778468" lon="103.451116"><ele>939.17926</ele><time>2026-04-20T22:01:30.000Z</time></trkpt>
        <trkpt lat="29.778498" lon="103.451158"><ele>938.5199</ele><time>2026-04-20T22:01:34.000Z</time></trkpt>
        <trkpt lat="29.778519" lon="103.451215"><ele>937.71857</ele><time>2026-04-20T22:01:38.000Z</time></trkpt>
        <trkpt lat="29.77853" lon="103.451275"><ele>937.6607</ele><time>2026-04-20T22:01:42.000Z</time></trkpt>
        <trkpt lat="29.778551" lon="103.451326"><ele>935.84784</ele><time>2026-04-20T22:01:46.000Z</time></trkpt>
        <trkpt lat="29.778589" lon="103.451376"><ele>935.8415</ele><time>2026-04-20T22:01:53.000Z</time></trkpt>
        <trkpt lat="29.778622" lon="103.451417"><ele>935.83875</ele><time>2026-04-20T22:01:57.000Z</time></trkpt>
        <trkpt lat="29.778667" lon="103.451447"><ele>936.5182</ele><time>2026-04-20T22:02:01.000Z</time></trkpt>
        <trkpt lat="29.778715" lon="103.451476"><ele>935.4528</ele><time>2026-04-20T22:02:06.000Z</time></trkpt>
        <trkpt lat="29.778763" lon="103.451495"><ele>934.86237</ele><time>2026-04-20T22:02:10.000Z</time></trkpt>
        <trkpt lat="29.778806" lon="103.451525"><ele>935.4725</ele><time>2026-04-20T22:02:14.000Z</time></trkpt>
        <trkpt lat="29.778824" lon="103.451583"><ele>935.38715</ele><time>2026-04-20T22:02:19.000Z</time></trkpt>
        <trkpt lat="29.778812" lon="103.45164"><ele>935.3111</ele><time>2026-04-20T22:02:23.000Z</time></trkpt>
        <trkpt lat="29.778807" lon="103.451698"><ele>934.6059</ele><time>2026-04-20T22:02:28.000Z</time></trkpt>
        <trkpt lat="29.778814" lon="103.451754"><ele>935.7352</ele><time>2026-04-20T22:02:33.000Z</time></trkpt>
        <trkpt lat="29.778851" lon="103.451794"><ele>937.3289</ele><time>2026-04-20T22:02:41.000Z</time></trkpt>
        <trkpt lat="29.778898" lon="103.451805"><ele>940.1357</ele><time>2026-04-20T22:02:46.000Z</time></trkpt>
        <trkpt lat="29.778936" lon="103.451835"><ele>939.3287</ele><time>2026-04-20T22:02:50.000Z</time></trkpt>
        <trkpt lat="29.778972" lon="103.451872"><ele>939.49426</ele><time>2026-04-20T22:02:55.000Z</time></trkpt>
        <trkpt lat="29.778994" lon="103.451918"><ele>939.0699</ele><time>2026-04-20T22:02:59.000Z</time></trkpt>
        <trkpt lat="29.779008" lon="103.451982"><ele>937.6721</ele><time>2026-04-20T22:03:04.000Z</time></trkpt>
        <trkpt lat="29.779009" lon="103.452041"><ele>937.97186</ele><time>2026-04-20T22:03:09.000Z</time></trkpt>
        <trkpt lat="29.779006" lon="103.452099"><ele>938.0283</ele><time>2026-04-20T22:03:14.000Z</time></trkpt>
        <trkpt lat="29.779007" lon="103.452158"><ele>937.5934</ele><time>2026-04-20T22:03:19.000Z</time></trkpt>
        <trkpt lat="29.779014" lon="103.452217"><ele>936.098</ele><time>2026-04-20T22:03:25.000Z</time></trkpt>
        <trkpt lat="29.779028" lon="103.452279"><ele>935.26715</ele><time>2026-04-20T22:03:30.000Z</time></trkpt>
        <trkpt lat="29.779055" lon="103.452341"><ele>934.2474</ele><time>2026-04-20T22:03:35.000Z</time></trkpt>
        <trkpt lat="29.779082" lon="103.452388"><ele>933.0467</ele><time>2026-04-20T22:03:38.000Z</time></trkpt>
        <trkpt lat="29.779137" lon="103.45242"><ele>932.2612</ele><time>2026-04-20T22:03:43.000Z</time></trkpt>
        <trkpt lat="29.779187" lon="103.452433"><ele>930.24994</ele><time>2026-04-20T22:03:48.000Z</time></trkpt>
        <trkpt lat="29.779226" lon="103.452472"><ele>928.23663</ele><time>2026-04-20T22:03:52.000Z</time></trkpt>
        <trkpt lat="29.779276" lon="103.452504"><ele>926.6028</ele><time>2026-04-20T22:03:56.000Z</time></trkpt>
        <trkpt lat="29.77932" lon="103.452524"><ele>922.736</ele><time>2026-04-20T22:04:03.000Z</time></trkpt>
        <trkpt lat="29.779364" lon="103.452541"><ele>922.65125</ele><time>2026-04-20T22:04:06.000Z</time></trkpt>
        <trkpt lat="29.779418" lon="103.452539"><ele>920.9048</ele><time>2026-04-20T22:04:11.000Z</time></trkpt>
        <trkpt lat="29.779464" lon="103.452523"><ele>920.9005</ele><time>2026-04-20T22:04:15.000Z</time></trkpt>
        <trkpt lat="29.779506" lon="103.452478"><ele>921.22406</ele><time>2026-04-20T22:04:19.000Z</time></trkpt>
        <trkpt lat="29.779557" lon="103.452463"><ele>923.027</ele><time>2026-04-20T22:04:24.000Z</time></trkpt>
        <trkpt lat="29.779582" lon="103.452517"><ele>921.7554</ele><time>2026-04-20T22:04:29.000Z</time></trkpt>
        <trkpt lat="29.779633" lon="103.452519"><ele>919.97784</ele><time>2026-04-20T22:04:36.000Z</time></trkpt>
        <trkpt lat="29.779677" lon="103.452545"><ele>919.38916</ele><time>2026-04-20T22:04:38.000Z</time></trkpt>
        <trkpt lat="29.779724" lon="103.45254"><ele>918.79755</ele><time>2026-04-20T22:04:41.000Z</time></trkpt>
        <trkpt lat="29.779775" lon="103.452558"><ele>918.7386</ele><time>2026-04-20T22:04:45.000Z</time></trkpt>
        <trkpt lat="29.779833" lon="103.452542"><ele>919.97723</ele><time>2026-04-20T22:04:49.000Z</time></trkpt>
        <trkpt lat="29.779884" lon="103.452524"><ele>919.4206</ele><time>2026-04-20T22:04:52.000Z</time></trkpt>
        <trkpt lat="29.779931" lon="103.452523"><ele>919.6702</ele><time>2026-04-20T22:04:55.000Z</time></trkpt>
        <trkpt lat="29.779986" lon="103.45253"><ele>918.711</ele><time>2026-04-20T22:04:59.000Z</time></trkpt>
        <trkpt lat="29.780027" lon="103.452553"><ele>918.734</ele><time>2026-04-20T22:05:02.000Z</time></trkpt>
        <trkpt lat="29.780074" lon="103.452534"><ele>916.3007</ele><time>2026-04-20T22:05:06.000Z</time></trkpt>
        <trkpt lat="29.780121" lon="103.452531"><ele>914.69507</ele><time>2026-04-20T22:05:11.000Z</time></trkpt>
        <trkpt lat="29.780171" lon="103.452539"><ele>913.02563</ele><time>2026-04-20T22:05:16.000Z</time></trkpt>
        <trkpt lat="29.780116" lon="103.452514"><ele>913.5656</ele><time>2026-04-20T22:05:26.000Z</time></trkpt>
        <trkpt lat="29.780158" lon="103.452539"><ele>912.82404</ele><time>2026-04-20T22:05:39.000Z</time></trkpt>
        <trkpt lat="29.780203" lon="103.452547"><ele>910.6751</ele><time>2026-04-20T22:05:44.000Z</time></trkpt>
        <trkpt lat="29.780257" lon="103.452552"><ele>910.2685</ele><time>2026-04-20T22:05:49.000Z</time></trkpt>
        <trkpt lat="29.780302" lon="103.452522"><ele>908.45404</ele><time>2026-04-20T22:05:54.000Z</time></trkpt>
        <trkpt lat="29.780352" lon="103.452488"><ele>907.42584</ele><time>2026-04-20T22:05:58.000Z</time></trkpt>
        <trkpt lat="29.780408" lon="103.452466"><ele>907.2356</ele><time>2026-04-20T22:06:02.000Z</time></trkpt>
        <trkpt lat="29.780452" lon="103.452439"><ele>905.1057</ele><time>2026-04-20T22:06:06.000Z</time></trkpt>
        <trkpt lat="29.780449" lon="103.452498"><ele>900.5518</ele><time>2026-04-20T22:06:13.000Z</time></trkpt>
        <trkpt lat="29.78043" lon="103.45255"><ele>899.8565</ele><time>2026-04-20T22:06:17.000Z</time></trkpt>
        <trkpt lat="29.780384" lon="103.452581"><ele>898.331</ele><time>2026-04-20T22:06:26.000Z</time></trkpt>
        <trkpt lat="29.780357" lon="103.452633"><ele>898.90717</ele><time>2026-04-20T22:06:30.000Z</time></trkpt>
        <trkpt lat="29.780312" lon="103.452658"><ele>897.6932</ele><time>2026-04-20T22:06:35.000Z</time></trkpt>
        <trkpt lat="29.780276" lon="103.452702"><ele>897.22076</ele><time>2026-04-20T22:06:40.000Z</time></trkpt>
        <trkpt lat="29.780233" lon="103.452745"><ele>896.8394</ele><time>2026-04-20T22:06:45.000Z</time></trkpt>
        <trkpt lat="29.780192" lon="103.452776"><ele>896.18085</ele><time>2026-04-20T22:06:50.000Z</time></trkpt>
        <trkpt lat="29.780142" lon="103.452791"><ele>895.2904</ele><time>2026-04-20T22:06:55.000Z</time></trkpt>
        <trkpt lat="29.780095" lon="103.452804"><ele>894.2608</ele><time>2026-04-20T22:07:00.000Z</time></trkpt>
        <trkpt lat="29.780054" lon="103.452836"><ele>894.88654</ele><time>2026-04-20T22:07:04.000Z</time></trkpt>
        <trkpt lat="29.780008" lon="103.452875"><ele>893.27277</ele><time>2026-04-20T22:07:08.000Z</time></trkpt>
        <trkpt lat="29.779956" lon="103.452853"><ele>892.19824</ele><time>2026-04-20T22:07:12.000Z</time></trkpt>
        <trkpt lat="29.779917" lon="103.452826"><ele>887.3743</ele><time>2026-04-20T22:07:18.000Z</time></trkpt>
        <trkpt lat="29.77994" lon="103.452883"><ele>881.9076</ele><time>2026-04-20T22:07:24.000Z</time></trkpt>
        <trkpt lat="29.779965" lon="103.452927"><ele>882.0193</ele><time>2026-04-20T22:07:30.000Z</time></trkpt>
        <trkpt lat="29.779986" lon="103.452978"><ele>880.85223</ele><time>2026-04-20T22:07:40.000Z</time></trkpt>
        <trkpt lat="29.780018" lon="103.453019"><ele>879.5689</ele><time>2026-04-20T22:07:54.000Z</time></trkpt>
        <trkpt lat="29.780034" lon="103.453072"><ele>877.1876</ele><time>2026-04-20T22:08:04.000Z</time></trkpt>
        <trkpt lat="29.780062" lon="103.453121"><ele>873.1495</ele><time>2026-04-20T22:08:16.000Z</time></trkpt>
        <trkpt lat="29.780057" lon="103.453176"><ele>870.7672</ele><time>2026-04-20T22:08:27.000Z</time></trkpt>
        <trkpt lat="29.780072" lon="103.453229"><ele>868.23096</ele><time>2026-04-20T22:08:37.000Z</time></trkpt>
        <trkpt lat="29.780095" lon="103.45328"><ele>864.74805</ele><time>2026-04-20T22:08:46.000Z</time></trkpt>
        <trkpt lat="29.780101" lon="103.453332"><ele>861.81805</ele><time>2026-04-20T22:08:53.000Z</time></trkpt>
        <trkpt lat="29.780108" lon="103.453385"><ele>858.80054</ele><time>2026-04-20T22:09:01.000Z</time></trkpt>
        <trkpt lat="29.780123" lon="103.453438"><ele>855.9551</ele><time>2026-04-20T22:09:10.000Z</time></trkpt>
        <trkpt lat="29.780157" lon="103.453485"><ele>854.41266</ele><time>2026-04-20T22:09:16.000Z</time></trkpt>
        <trkpt lat="29.780182" lon="103.453533"><ele>852.1992</ele><time>2026-04-20T22:09:25.000Z</time></trkpt>
        <trkpt lat="29.780218" lon="103.453571"><ele>850.625</ele><time>2026-04-20T22:09:33.000Z</time></trkpt>
        <trkpt lat="29.780265" lon="103.453605"><ele>849.40326</ele><time>2026-04-20T22:09:40.000Z</time></trkpt>
        <trkpt lat="29.780318" lon="103.453635"><ele>849.1002</ele><time>2026-04-20T22:09:50.000Z</time></trkpt>
        <trkpt lat="29.780356" lon="103.453672"><ele>848.0331</ele><time>2026-04-20T22:09:59.000Z</time></trkpt>
        <trkpt lat="29.780398" lon="103.453695"><ele>845.09467</ele><time>2026-04-20T22:10:06.000Z</time></trkpt>
        <trkpt lat="29.780446" lon="103.453715"><ele>843.6706</ele><time>2026-04-20T22:10:14.000Z</time></trkpt>
        <trkpt lat="29.780483" lon="103.453754"><ele>843.24097</ele><time>2026-04-20T22:10:26.000Z</time></trkpt>
        <trkpt lat="29.780527" lon="103.453766"><ele>841.1568</ele><time>2026-04-20T22:10:31.000Z</time></trkpt>
        <trkpt lat="29.780575" lon="103.453799"><ele>839.7525</ele><time>2026-04-20T22:10:37.000Z</time></trkpt>
        <trkpt lat="29.780616" lon="103.453822"><ele>838.023</ele><time>2026-04-20T22:10:43.000Z</time></trkpt>
        <trkpt lat="29.780661" lon="103.453845"><ele>836.9393</ele><time>2026-04-20T22:10:49.000Z</time></trkpt>
        <trkpt lat="29.780699" lon="103.453873"><ele>836.56696</ele><time>2026-04-20T22:10:54.000Z</time></trkpt>
        <trkpt lat="29.780747" lon="103.4539"><ele>836.01514</ele><time>2026-04-20T22:11:00.000Z</time></trkpt>
        <trkpt lat="29.780808" lon="103.453924"><ele>834.6052</ele><time>2026-04-20T22:11:06.000Z</time></trkpt>
        <trkpt lat="29.780857" lon="103.453929"><ele>832.65155</ele><time>2026-04-20T22:11:11.000Z</time></trkpt>
        <trkpt lat="29.780899" lon="103.45395"><ele>833.0113</ele><time>2026-04-20T22:11:16.000Z</time></trkpt>
        <trkpt lat="29.780942" lon="103.453975"><ele>832.5325</ele><time>2026-04-20T22:11:22.000Z</time></trkpt>
        <trkpt lat="29.780976" lon="103.454015"><ele>830.60406</ele><time>2026-04-20T22:11:27.000Z</time></trkpt>
        <trkpt lat="29.781022" lon="103.454039"><ele>828.41156</ele><time>2026-04-20T22:11:32.000Z</time></trkpt>
        <trkpt lat="29.781058" lon="103.454071"><ele>826.7174</ele><time>2026-04-20T22:11:36.000Z</time></trkpt>
        <trkpt lat="29.781098" lon="103.454101"><ele>826.57666</ele><time>2026-04-20T22:11:45.000Z</time></trkpt>
        <trkpt lat="29.781132" lon="103.454136"><ele>821.2967</ele><time>2026-04-20T22:11:55.000Z</time></trkpt>
        <trkpt lat="29.781146" lon="103.454187"><ele>816.75653</ele><time>2026-04-20T22:12:14.000Z</time></trkpt>
        <trkpt lat="29.781203" lon="103.454199"><ele>813.195</ele><time>2026-04-20T22:12:25.000Z</time></trkpt>
        <trkpt lat="29.781232" lon="103.454242"><ele>809.7307</ele><time>2026-04-20T22:12:42.000Z</time></trkpt>
        <trkpt lat="29.781268" lon="103.454276"><ele>807.95325</ele><time>2026-04-20T22:12:54.000Z</time></trkpt>
        <trkpt lat="29.781305" lon="103.454316"><ele>801.3736</ele><time>2026-04-20T22:13:08.000Z</time></trkpt>
        <trkpt lat="29.781334" lon="103.454359"><ele>800.4755</ele><time>2026-04-20T22:13:17.000Z</time></trkpt>
        <trkpt lat="29.781376" lon="103.454386"><ele>799.2682</ele><time>2026-04-20T22:13:23.000Z</time></trkpt>
        <trkpt lat="29.781426" lon="103.454392"><ele>797.1467</ele><time>2026-04-20T22:13:28.000Z</time></trkpt>
        <trkpt lat="29.781396" lon="103.454438"><ele>800.4066</ele><time>2026-04-20T22:14:01.000Z</time></trkpt>
        <trkpt lat="29.781444" lon="103.454462"><ele>798.8194</ele><time>2026-04-20T22:16:59.000Z</time></trkpt>
        <trkpt lat="29.78149" lon="103.454497"><ele>794.8985</ele><time>2026-04-20T22:17:05.000Z</time></trkpt>
        <trkpt lat="29.781525" lon="103.454541"><ele>793.2022</ele><time>2026-04-20T22:17:11.000Z</time></trkpt>
        <trkpt lat="29.78156" lon="103.454584"><ele>789.2382</ele><time>2026-04-20T22:17:16.000Z</time></trkpt>
        <trkpt lat="29.781603" lon="103.454621"><ele>785.8347</ele><time>2026-04-20T22:17:20.000Z</time></trkpt>
        <trkpt lat="29.78164" lon="103.454671"><ele>782.43304</ele><time>2026-04-20T22:17:25.000Z</time></trkpt>
        <trkpt lat="29.781611" lon="103.454715"><ele>787.703</ele><time>2026-04-20T22:17:39.000Z</time></trkpt>
        <trkpt lat="29.781659" lon="103.454752"><ele>786.3345</ele><time>2026-04-20T22:17:47.000Z</time></trkpt>
        <trkpt lat="29.781708" lon="103.454777"><ele>784.7039</ele><time>2026-04-20T22:17:52.000Z</time></trkpt>
        <trkpt lat="29.781756" lon="103.454787"><ele>783.1775</ele><time>2026-04-20T22:18:03.000Z</time></trkpt>
        <trkpt lat="29.781802" lon="103.454787"><ele>782.1671</ele><time>2026-04-20T22:18:09.000Z</time></trkpt>
        <trkpt lat="29.781843" lon="103.454815"><ele>778.1888</ele><time>2026-04-20T22:18:17.000Z</time></trkpt>
        <trkpt lat="29.781874" lon="103.454853"><ele>776.829</ele><time>2026-04-20T22:18:24.000Z</time></trkpt>
        <trkpt lat="29.781898" lon="103.454899"><ele>774.50543</ele><time>2026-04-20T22:18:29.000Z</time></trkpt>
        <trkpt lat="29.781908" lon="103.454962"><ele>771.4012</ele><time>2026-04-20T22:18:38.000Z</time></trkpt>
        <trkpt lat="29.781908" lon="103.455018"><ele>770.14844</ele><time>2026-04-20T22:18:42.000Z</time></trkpt>
        <trkpt lat="29.781884" lon="103.455069"><ele>769.7246</ele><time>2026-04-20T22:18:48.000Z</time></trkpt>
        <trkpt lat="29.781885" lon="103.455133"><ele>768.36804</ele><time>2026-04-20T22:18:52.000Z</time></trkpt>
        <trkpt lat="29.781891" lon="103.455186"><ele>768.1744</ele><time>2026-04-20T22:18:55.000Z</time></trkpt>
        <trkpt lat="29.781871" lon="103.455236"><ele>767.80383</ele><time>2026-04-20T22:18:59.000Z</time></trkpt>
        <trkpt lat="29.781838" lon="103.455275"><ele>768.03064</ele><time>2026-04-20T22:19:04.000Z</time></trkpt>
        <trkpt lat="29.781825" lon="103.455345"><ele>767.5231</ele><time>2026-04-20T22:19:09.000Z</time></trkpt>
        <trkpt lat="29.781833" lon="103.455396"><ele>766.49207</ele><time>2026-04-20T22:19:12.000Z</time></trkpt>
        <trkpt lat="29.781868" lon="103.455433"><ele>766.4207</ele><time>2026-04-20T22:19:15.000Z</time></trkpt>
        <trkpt lat="29.781887" lon="103.455482"><ele>763.48126</ele><time>2026-04-20T22:19:19.000Z</time></trkpt>
        <trkpt lat="29.781873" lon="103.455539"><ele>763.44806</ele><time>2026-04-20T22:19:21.000Z</time></trkpt>
        <trkpt lat="29.781905" lon="103.455599"><ele>753.417</ele><time>2026-04-20T22:19:42.000Z</time></trkpt>
        <trkpt lat="29.781901" lon="103.455653"><ele>751.8198</ele><time>2026-04-20T22:19:50.000Z</time></trkpt>
        <trkpt lat="29.781905" lon="103.455712"><ele>756.1037</ele><time>2026-04-20T22:20:18.000Z</time></trkpt>
        <trkpt lat="29.781931" lon="103.455756"><ele>751.0515</ele><time>2026-04-20T22:20:25.000Z</time></trkpt>
        <trkpt lat="29.781935" lon="103.455815"><ele>748.238</ele><time>2026-04-20T22:20:34.000Z</time></trkpt>
        <trkpt lat="29.781957" lon="103.455876"><ele>746.1224</ele><time>2026-04-20T22:20:47.000Z</time></trkpt>
        <trkpt lat="29.78199" lon="103.455928"><ele>743.57104</ele><time>2026-04-20T22:20:53.000Z</time></trkpt>
        <trkpt lat="29.782015" lon="103.455977"><ele>741.7909</ele><time>2026-04-20T22:20:57.000Z</time></trkpt>
        <trkpt lat="29.78202" lon="103.45603"><ele>740.84283</ele><time>2026-04-20T22:21:09.000Z</time></trkpt>
        <trkpt lat="29.782051" lon="103.456087"><ele>739.5255</ele><time>2026-04-20T22:21:12.000Z</time></trkpt>
        <trkpt lat="29.782079" lon="103.456132"><ele>737.5981</ele><time>2026-04-20T22:21:21.000Z</time></trkpt>
        <trkpt lat="29.782117" lon="103.456181"><ele>736.2792</ele><time>2026-04-20T22:21:24.000Z</time></trkpt>
        <trkpt lat="29.782174" lon="103.456207"><ele>734.5793</ele><time>2026-04-20T22:21:26.000Z</time></trkpt>
        <trkpt lat="29.782221" lon="103.456238"><ele>732.0391</ele><time>2026-04-20T22:21:33.000Z</time></trkpt>
        <trkpt lat="29.782261" lon="103.456272"><ele>730.7629</ele><time>2026-04-20T22:21:37.000Z</time></trkpt>
        <trkpt lat="29.782291" lon="103.456325"><ele>727.27625</ele><time>2026-04-20T22:21:43.000Z</time></trkpt>
        <trkpt lat="29.782308" lon="103.456384"><ele>726.61395</ele><time>2026-04-20T22:21:47.000Z</time></trkpt>
        <trkpt lat="29.782314" lon="103.456446"><ele>725.6163</ele><time>2026-04-20T22:21:51.000Z</time></trkpt>
        <trkpt lat="29.782338" lon="103.456502"><ele>724.5693</ele><time>2026-04-20T22:21:55.000Z</time></trkpt>
        <trkpt lat="29.782371" lon="103.456548"><ele>725.46814</ele><time>2026-04-20T22:21:59.000Z</time></trkpt>
        <trkpt lat="29.782416" lon="103.45657"><ele>725.8626</ele><time>2026-04-20T22:22:03.000Z</time></trkpt>
        <trkpt lat="29.782447" lon="103.456621"><ele>722.9367</ele><time>2026-04-20T22:22:07.000Z</time></trkpt>
        <trkpt lat="29.782463" lon="103.456676"><ele>721.1511</ele><time>2026-04-20T22:22:11.000Z</time></trkpt>
        <trkpt lat="29.782481" lon="103.456737"><ele>721.2224</ele><time>2026-04-20T22:22:15.000Z</time></trkpt>
        <trkpt lat="29.78248" lon="103.456791"><ele>721.11865</ele><time>2026-04-20T22:22:18.000Z</time></trkpt>
        <trkpt lat="29.782498" lon="103.456844"><ele>719.5586</ele><time>2026-04-20T22:22:22.000Z</time></trkpt>
        <trkpt lat="29.782517" lon="103.456898"><ele>718.53455</ele><time>2026-04-20T22:22:26.000Z</time></trkpt>
        <trkpt lat="29.782527" lon="103.456954"><ele>718.1114</ele><time>2026-04-20T22:22:30.000Z</time></trkpt>
        <trkpt lat="29.78251" lon="103.457007"><ele>717.0072</ele><time>2026-04-20T22:22:34.000Z</time></trkpt>
        <trkpt lat="29.78254" lon="103.457055"><ele>715.34955</ele><time>2026-04-20T22:22:38.000Z</time></trkpt>
        <trkpt lat="29.782527" lon="103.457109"><ele>714.2715</ele><time>2026-04-20T22:22:41.000Z</time></trkpt>
        <trkpt lat="29.782529" lon="103.457172"><ele>711.0309</ele><time>2026-04-20T22:22:45.000Z</time></trkpt>
        <trkpt lat="29.782557" lon="103.457217"><ele>709.22003</ele><time>2026-04-20T22:22:49.000Z</time></trkpt>
        <trkpt lat="29.782537" lon="103.457279"><ele>708.7267</ele><time>2026-04-20T22:22:53.000Z</time></trkpt>
        <trkpt lat="29.782539" lon="103.457335"><ele>709.27527</ele><time>2026-04-20T22:22:57.000Z</time></trkpt>
        <trkpt lat="29.782517" lon="103.457391"><ele>709.98645</ele><time>2026-04-20T22:23:01.000Z</time></trkpt>
        <trkpt lat="29.782473" lon="103.457412"><ele>709.6471</ele><time>2026-04-20T22:23:04.000Z</time></trkpt>
        <trkpt lat="29.782422" lon="103.457416"><ele>709.8411</ele><time>2026-04-20T22:23:07.000Z</time></trkpt>
        <trkpt lat="29.782365" lon="103.457417"><ele>709.79456</ele><time>2026-04-20T22:23:11.000Z</time></trkpt>
        <trkpt lat="29.782316" lon="103.457407"><ele>710.0708</ele><time>2026-04-20T22:23:14.000Z</time></trkpt>
        <trkpt lat="29.782265" lon="103.457412"><ele>710.7956</ele><time>2026-04-20T22:23:18.000Z</time></trkpt>
        <trkpt lat="29.782215" lon="103.457398"><ele>709.8394</ele><time>2026-04-20T22:23:22.000Z</time></trkpt>
        <trkpt lat="29.782196" lon="103.457342"><ele>704.04315</ele><time>2026-04-20T22:23:28.000Z</time></trkpt>
        <trkpt lat="29.78219" lon="103.457394"><ele>701.07166</ele><time>2026-04-20T22:23:35.000Z</time></trkpt>
        <trkpt lat="29.782227" lon="103.457431"><ele>697.6229</ele><time>2026-04-20T22:23:39.000Z</time></trkpt>
        <trkpt lat="29.782274" lon="103.457463"><ele>696.1691</ele><time>2026-04-20T22:23:43.000Z</time></trkpt>
        <trkpt lat="29.782318" lon="103.457508"><ele>693.5501</ele><time>2026-04-20T22:23:47.000Z</time></trkpt>
        <trkpt lat="29.782351" lon="103.457547"><ele>693.5038</ele><time>2026-04-20T22:23:50.000Z</time></trkpt>
        <trkpt lat="29.782385" lon="103.457594"><ele>694.64795</ele><time>2026-04-20T22:23:54.000Z</time></trkpt>
        <trkpt lat="29.782402" lon="103.457649"><ele>695.5168</ele><time>2026-04-20T22:23:58.000Z</time></trkpt>
        <trkpt lat="29.782425" lon="103.457707"><ele>695.61774</ele><time>2026-04-20T22:24:02.000Z</time></trkpt>
        <trkpt lat="29.782442" lon="103.457764"><ele>693.6519</ele><time>2026-04-20T22:24:06.000Z</time></trkpt>
        <trkpt lat="29.782483" lon="103.457798"><ele>692.75635</ele><time>2026-04-20T22:24:10.000Z</time></trkpt>
        <trkpt lat="29.782522" lon="103.457831"><ele>690.92737</ele><time>2026-04-20T22:24:14.000Z</time></trkpt>
        <trkpt lat="29.782563" lon="103.457856"><ele>688.4489</ele><time>2026-04-20T22:24:18.000Z</time></trkpt>
        <trkpt lat="29.782593" lon="103.457904"><ele>687.4043</ele><time>2026-04-20T22:24:22.000Z</time></trkpt>
        <trkpt lat="29.782641" lon="103.457906"><ele>686.0464</ele><time>2026-04-20T22:24:26.000Z</time></trkpt>
        <trkpt lat="29.782677" lon="103.457951"><ele>685.0249</ele><time>2026-04-20T22:24:30.000Z</time></trkpt>
        <trkpt lat="29.782708" lon="103.457998"><ele>684.1823</ele><time>2026-04-20T22:24:34.000Z</time></trkpt>
        <trkpt lat="29.782726" lon="103.458056"><ele>683.82623</ele><time>2026-04-20T22:24:38.000Z</time></trkpt>
        <trkpt lat="29.782748" lon="103.458101"><ele>682.3175</ele><time>2026-04-20T22:24:43.000Z</time></trkpt>
        <trkpt lat="29.782768" lon="103.458151"><ele>680.4245</ele><time>2026-04-20T22:24:47.000Z</time></trkpt>
        <trkpt lat="29.782767" lon="103.458204"><ele>679.793</ele><time>2026-04-20T22:24:50.000Z</time></trkpt>
        <trkpt lat="29.782764" lon="103.458261"><ele>676.4694</ele><time>2026-04-20T22:24:55.000Z</time></trkpt>
        <trkpt lat="29.782789" lon="103.458308"><ele>676.69824</ele><time>2026-04-20T22:24:59.000Z</time></trkpt>
        <trkpt lat="29.782756" lon="103.458367"><ele>677.4449</ele><time>2026-04-20T22:25:03.000Z</time></trkpt>
        <trkpt lat="29.782719" lon="103.458401"><ele>679.04236</ele><time>2026-04-20T22:25:07.000Z</time></trkpt>
        <trkpt lat="29.78274" lon="103.458464"><ele>679.0983</ele><time>2026-04-20T22:25:12.000Z</time></trkpt>
        <trkpt lat="29.782792" lon="103.458493"><ele>677.90643</ele><time>2026-04-20T22:25:16.000Z</time></trkpt>
        <trkpt lat="29.782847" lon="103.458494"><ele>677.68787</ele><time>2026-04-20T22:25:20.000Z</time></trkpt>
        <trkpt lat="29.782891" lon="103.458518"><ele>675.32495</ele><time>2026-04-20T22:25:25.000Z</time></trkpt>
        <trkpt lat="29.782937" lon="103.458531"><ele>672.7636</ele><time>2026-04-20T22:25:31.000Z</time></trkpt>
        <trkpt lat="29.782895" lon="103.45851"><ele>674.71387</ele><time>2026-04-20T22:25:49.000Z</time></trkpt>
        <trkpt lat="29.782877" lon="103.458569"><ele>669.5868</ele><time>2026-04-20T22:26:03.000Z</time></trkpt>
        <trkpt lat="29.782883" lon="103.458634"><ele>669.3817</ele><time>2026-04-20T22:26:07.000Z</time></trkpt>
        <trkpt lat="29.78289" lon="103.458694"><ele>668.4191</ele><time>2026-04-20T22:26:11.000Z</time></trkpt>
        <trkpt lat="29.782901" lon="103.458753"><ele>667.74164</ele><time>2026-04-20T22:26:14.000Z</time></trkpt>
        <trkpt lat="29.782953" lon="103.458789"><ele>666.26636</ele><time>2026-04-20T22:26:19.000Z</time></trkpt>
        <trkpt lat="29.782991" lon="103.45883"><ele>665.82745</ele><time>2026-04-20T22:26:22.000Z</time></trkpt>
        <trkpt lat="29.783029" lon="103.458862"><ele>663.79614</ele><time>2026-04-20T22:26:25.000Z</time></trkpt>
        <trkpt lat="29.783054" lon="103.458905"><ele>661.7629</ele><time>2026-04-20T22:26:29.000Z</time></trkpt>
        <trkpt lat="29.783084" lon="103.458955"><ele>659.79596</ele><time>2026-04-20T22:26:33.000Z</time></trkpt>
        <trkpt lat="29.783125" lon="103.458978"><ele>657.5174</ele><time>2026-04-20T22:26:42.000Z</time></trkpt>
        <trkpt lat="29.783142" lon="103.459048"><ele>656.12305</ele><time>2026-04-20T22:26:54.000Z</time></trkpt>
        <trkpt lat="29.783157" lon="103.459108"><ele>655.14124</ele><time>2026-04-20T22:26:59.000Z</time></trkpt>
        <trkpt lat="29.783185" lon="103.459154"><ele>653.91864</ele><time>2026-04-20T22:27:04.000Z</time></trkpt>
        <trkpt lat="29.78317" lon="103.459212"><ele>654.77924</ele><time>2026-04-20T22:27:12.000Z</time></trkpt>
        <trkpt lat="29.783131" lon="103.459245"><ele>654.65375</ele><time>2026-04-20T22:27:19.000Z</time></trkpt>
        <trkpt lat="29.783085" lon="103.459269"><ele>653.5733</ele><time>2026-04-20T22:27:22.000Z</time></trkpt>
        <trkpt lat="29.783031" lon="103.459267"><ele>654.93805</ele><time>2026-04-20T22:27:26.000Z</time></trkpt>
        <trkpt lat="29.782981" lon="103.459277"><ele>655.8285</ele><time>2026-04-20T22:27:31.000Z</time></trkpt>
        <trkpt lat="29.782951" lon="103.459319"><ele>656.1999</ele><time>2026-04-20T22:27:52.000Z</time></trkpt>
        <trkpt lat="29.782963" lon="103.459378"><ele>648.6297</ele><time>2026-04-20T22:28:06.000Z</time></trkpt>
        <trkpt lat="29.782994" lon="103.459419"><ele>644.78815</ele><time>2026-04-20T22:28:16.000Z</time></trkpt>
        <trkpt lat="29.783017" lon="103.459475"><ele>642.8383</ele><time>2026-04-20T22:28:23.000Z</time></trkpt>
        <trkpt lat="29.783047" lon="103.459521"><ele>641.6751</ele><time>2026-04-20T22:28:28.000Z</time></trkpt>
        <trkpt lat="29.783067" lon="103.45958"><ele>637.7583</ele><time>2026-04-20T22:28:39.000Z</time></trkpt>
        <trkpt lat="29.783108" lon="103.459621"><ele>634.67926</ele><time>2026-04-20T22:28:47.000Z</time></trkpt>
        <trkpt lat="29.783144" lon="103.459667"><ele>635.1712</ele><time>2026-04-20T22:28:57.000Z</time></trkpt>
        <trkpt lat="29.783188" lon="103.459712"><ele>633.5136</ele><time>2026-04-20T22:29:07.000Z</time></trkpt>
        <trkpt lat="29.783235" lon="103.459733"><ele>632.17444</ele><time>2026-04-20T22:29:15.000Z</time></trkpt>
        <trkpt lat="29.783266" lon="103.459772"><ele>628.3226</ele><time>2026-04-20T22:29:35.000Z</time></trkpt>
        <trkpt lat="29.783284" lon="103.459821"><ele>624.67584</ele><time>2026-04-20T22:29:44.000Z</time></trkpt>
        <trkpt lat="29.783307" lon="103.459867"><ele>620.70306</ele><time>2026-04-20T22:29:57.000Z</time></trkpt>
        <trkpt lat="29.78333" lon="103.459931"><ele>617.67645</ele><time>2026-04-20T22:30:07.000Z</time></trkpt>
        <trkpt lat="29.783342" lon="103.459983"><ele>617.7343</ele><time>2026-04-20T22:30:14.000Z</time></trkpt>
        <trkpt lat="29.783332" lon="103.460042"><ele>620.12933</ele><time>2026-04-20T22:30:20.000Z</time></trkpt>
        <trkpt lat="29.78335" lon="103.460096"><ele>620.8713</ele><time>2026-04-20T22:30:23.000Z</time></trkpt>
        <trkpt lat="29.783358" lon="103.460158"><ele>620.01575</ele><time>2026-04-20T22:30:28.000Z</time></trkpt>
        <trkpt lat="29.78334" lon="103.460209"><ele>618.6823</ele><time>2026-04-20T22:30:32.000Z</time></trkpt>
        <trkpt lat="29.783312" lon="103.460261"><ele>618.9104</ele><time>2026-04-20T22:30:37.000Z</time></trkpt>
        <trkpt lat="29.783301" lon="103.460315"><ele>619.2958</ele><time>2026-04-20T22:30:41.000Z</time></trkpt>
        <trkpt lat="29.783285" lon="103.460368"><ele>618.25446</ele><time>2026-04-20T22:30:45.000Z</time></trkpt>
        <trkpt lat="29.783274" lon="103.460431"><ele>618.1737</ele><time>2026-04-20T22:30:48.000Z</time></trkpt>
        <trkpt lat="29.783253" lon="103.460477"><ele>616.87933</ele><time>2026-04-20T22:30:56.000Z</time></trkpt>
        <trkpt lat="29.783273" lon="103.460525"><ele>615.9221</ele><time>2026-04-20T22:31:01.000Z</time></trkpt>
        <trkpt lat="29.783344" lon="103.460546"><ele>611.1504</ele><time>2026-04-20T22:31:14.000Z</time></trkpt>
        <trkpt lat="29.783345" lon="103.460601"><ele>610.1581</ele><time>2026-04-20T22:31:18.000Z</time></trkpt>
        <trkpt lat="29.783371" lon="103.460648"><ele>607.97217</ele><time>2026-04-20T22:31:40.000Z</time></trkpt>
        <trkpt lat="29.783394" lon="103.460692"><ele>603.9438</ele><time>2026-04-20T22:31:46.000Z</time></trkpt>
        <trkpt lat="29.783427" lon="103.460736"><ele>600.7985</ele><time>2026-04-20T22:32:00.000Z</time></trkpt>
        <trkpt lat="29.783432" lon="103.460791"><ele>598.3208</ele><time>2026-04-20T22:32:05.000Z</time></trkpt>
        <trkpt lat="29.78342" lon="103.460845"><ele>597.7884</ele><time>2026-04-20T22:32:09.000Z</time></trkpt>
        <trkpt lat="29.783384" lon="103.46088"><ele>596.872</ele><time>2026-04-20T22:32:13.000Z</time></trkpt>
        <trkpt lat="29.78335" lon="103.46092"><ele>598.12427</ele><time>2026-04-20T22:32:17.000Z</time></trkpt>
        <trkpt lat="29.783307" lon="103.460962"><ele>597.8347</ele><time>2026-04-20T22:32:22.000Z</time></trkpt>
        <trkpt lat="29.783277" lon="103.461011"><ele>597.42267</ele><time>2026-04-20T22:32:26.000Z</time></trkpt>
        <trkpt lat="29.783322" lon="103.46104"><ele>588.07184</ele><time>2026-04-20T22:32:39.000Z</time></trkpt>
        <trkpt lat="29.783363" lon="103.461081"><ele>585.0584</ele><time>2026-04-20T22:32:46.000Z</time></trkpt>
        <trkpt lat="29.783403" lon="103.46111"><ele>583.8774</ele><time>2026-04-20T22:32:54.000Z</time></trkpt>
        <trkpt lat="29.78344" lon="103.461143"><ele>582.54913</ele><time>2026-04-20T22:33:01.000Z</time></trkpt>
        <trkpt lat="29.783479" lon="103.461174"><ele>582.08954</ele><time>2026-04-20T22:33:07.000Z</time></trkpt>
        <trkpt lat="29.783489" lon="103.461227"><ele>581.56915</ele><time>2026-04-20T22:33:14.000Z</time></trkpt>
        <trkpt lat="29.783504" lon="103.461281"><ele>581.99005</ele><time>2026-04-20T22:33:19.000Z</time></trkpt>
        <trkpt lat="29.783535" lon="103.461337"><ele>581.6177</ele><time>2026-04-20T22:33:26.000Z</time></trkpt>
        <trkpt lat="29.783558" lon="103.461385"><ele>581.19696</ele><time>2026-04-20T22:33:32.000Z</time></trkpt>
        <trkpt lat="29.78351" lon="103.461351"><ele>579.7637</ele><time>2026-04-20T22:33:40.000Z</time></trkpt>
        <trkpt lat="29.783474" lon="103.461308"><ele>578.99817</ele><time>2026-04-20T22:33:45.000Z</time></trkpt>
        <trkpt lat="29.783436" lon="103.461267"><ele>579.37634</ele><time>2026-04-20T22:33:51.000Z</time></trkpt>
        <trkpt lat="29.783382" lon="103.461274"><ele>579.9809</ele><time>2026-04-20T22:33:55.000Z</time></trkpt>
        <trkpt lat="29.783328" lon="103.461255"><ele>582.74567</ele><time>2026-04-20T22:33:59.000Z</time></trkpt>
        <trkpt lat="29.783269" lon="103.461279"><ele>584.5763</ele><time>2026-04-20T22:34:02.000Z</time></trkpt>
        <trkpt lat="29.783216" lon="103.461295"><ele>586.61847</ele><time>2026-04-20T22:34:06.000Z</time></trkpt>
        <trkpt lat="29.783172" lon="103.461281"><ele>584.71423</ele><time>2026-04-20T22:34:10.000Z</time></trkpt>
      </trkseg>
  </trk>
</gpx>